[[{"header":{"parameterUnit":"m.s-1","parameterCategory":1,"la1":30.6,"la2":28.766,"lo1":-90.7593,"lo2":-88.6598,"dy":0.0162,"dx":0.0183,"nx":116,"ny":114,"refTime":"2023-04-20T06:00:00:Z","depth":0,"parameterNumber":2,"parameterNumberName":"U-component_of_WINDS"},"data":[0.0,0.0,0.0,0.0,0.0,0.0,0.0,0.0,0.0,0.0,0.0,0.0,0.0,0.0,0.0,0.0,0.0,0.0,0.0,0.0,0.0,0.0,0.0,0.0,0.0,0.0,0.0,0.0,0.0,0.0,0.0,0.0,0.0,0.0,0.0,0.0,0.0,0.0,0.0,0.0,0.0,0.0,0.0,0.0,0.0,0.0,0.0,0.0,0.0,0.0,0.0,0.0,0.0,0.0,0.0,0.0,0.0,0.0,0.0,0.0,0.0,0.0,0.0,0.0,0.0,0.0,0.0,0.0,0.0,0.0,0.0,0.0,0.0,0.0,0.0,0.0,0.0,0.0,0.0,0.0,0.0,0.0,0.0,0.0,0.0,0.0,0.0,0.0,0.0,0.0,0.0,0.0,0.0,0.0,0.0,0.0,0.0,0.0,0.0,0.0,0.0,0.0,0.0,0.0,0.0,0.0,0.0,0.0,0.0,0.0,0.0,0.0,0.0,0.0,0.0,0.0,0.0,0.0,0.0,0.0,0.0,0.0,0.0,0.0,0.0,0.0,0.0,0.0,0.0,0.0,0.0,0.0,0.0,0.0,0.0,0.0,0.0,0.0,0.0,0.0,0.0,0.0,0.0,0.0,0.0,0.0,0.0,0.0,0.0,0.0,0.0,0.0,0.0,0.0,0.0,0.0,0.0,0.0,0.0,0.0,0.0,0.0,0.0,0.0,0.0,0.0,0.0,0.0,0.0,0.0,0.0,0.0,0.0,0.0,0.0,0.0,0.0,0.0,0.0,0.0,0.0,0.0,0.0,0.0,0.0,0.0,0.0,0.0,0.0,0.0,0.0,0.0,0.0,0.0,0.0,0.0,0.0,0.0,0.0,0.0,0.0,0.0,0.0,0.0,0.0,0.0,0.0,0.0,0.0,0.0,0.0,0.0,0.0,0.0,0.0,0.0,0.0,0.0,0.0,0.0,0.0,0.0,0.0,0.0,0.0,0.0,0.0,0.0,0.0,0.0,0.0,0.0,0.0,0.0,0.0,0.0,0.0,0.0,0.0,0.0,0.0,0.0,0.0,0.0,0.0,0.0,0.0,0.0,0.0,0.0,0.0,0.0,0.0,0.0,0.0,0.0,0.0,0.0,0.0,0.0,0.0,0.0,0.0,0.0,0.0,0.0,0.0,0.0,0.0,0.0,0.0,0.0,0.0,0.0,0.0,0.0,0.0,0.0,0.0,0.0,0.0,0.0,0.0,0.0,0.0,0.0,0.0,0.0,0.0,0.0,0.0,0.0,0.0,0.0,0.0,0.0,0.0,0.0,0.0,0.0,0.0,0.0,0.0,0.0,0.0,0.0,0.0,0.0,0.0,0.0,0.0,0.0,0.0,0.0,0.0,0.0,0.0,0.0,0.0,0.0,0.0,0.0,0.0,0.0,0.0,0.0,0.0,0.0,0.0,0.0,0.0,0.0,0.0,0.0,0.0,0.0,0.0,0.0,0.0,0.0,0.0,0.0,0.0,0.0,0.0,0.0,0.0,0.0,0.0,0.0,0.0,0.0,0.0,0.0,0.0,0.0,0.0,0.0,0.0,0.0,0.0,0.0,0.0,0.0,0.0,0.0,0.0,0.0,0.0,0.0,0.0,0.0,0.0,0.0,0.0,0.0,0.0,0.0,0.0,0.0,0.0,0.0,0.0,0.0,0.0,0.0,0.0,0.0,0.0,0.0,0.0,0.0,0.0,0.0,0.0,0.0,0.0,0.0,0.0,0.0,0.0,0.0,0.0,0.0,0.0,0.0,0.0,0.0,0.0,0.0,0.0,0.0,0.0,0.0,0.0,0.0,0.0,0.0,0.0,0.0,0.0,0.0,0.0,0.0,0.0,0.0,0.0,0.0,0.0,0.0,0.0,0.0,0.0,0.0,0.0,0.0,0.0,0.0,0.0,0.0,0.0,0.0,0.0,0.0,0.0,0.0,0.0,0.0,0.0,0.0,0.0,0.0,0.0,0.0,0.0,0.0,0.0,0.0,0.0,0.0,0.0,0.0,0.0,0.0,0.0,0.0,0.0,0.0,0.0,0.0,0.0,0.0,0.0,0.0,0.0,0.0,0.0,0.0,0.0,0.0,0.0,0.0,0.0,0.0,0.0,0.0,0.0,0.0,0.0,0.0,0.0,0.0,0.0,0.0,0.0,0.0,0.0,0.0,0.0,0.0,0.0,0.0,0.0,0.0,0.0,0.0,0.0,0.0,0.0,0.0,0.0,0.0,0.0,0.0,0.0,0.0,0.0,0.0,0.0,0.0,0.0,0.0,0.0,0.0,0.0,0.0,0.0,0.0,0.0,0.0,0.0,0.0,0.0,0.0,0.0,0.0,0.0,0.0,0.0,0.0,0.0,0.0,0.0,0.0,0.0,0.0,0.0,0.0,0.0,0.0,0.0,0.0,0.0,0.0,0.0,0.0,0.0,0.0,0.0,0.0,0.0,0.0,0.0,0.0,0.0,0.0,0.0,0.0,0.0,0.0,0.0,0.0,0.0,0.0,0.0,0.0,0.0,0.0,0.0,0.0,0.0,0.0,0.0,0.0,0.0,0.0,0.0,0.0,0.0,0.0,0.0,0.0,0.0,0.0,0.0,0.0,0.0,0.0,0.0,0.0,0.0,0.0,0.0,0.0,0.0,0.0,0.0,0.0,0.0,0.0,0.0,0.0,0.0,0.0,0.0,0.0,0.0,0.0,0.0,0.0,0.0,0.0,0.0,0.0,0.0,0.0,0.0,0.0,0.0,0.0,0.0,0.0,0.0,0.0,0.0,0.0,0.0,0.0,0.0,0.0,0.0,0.0,0.0,0.0,0.0,0.0,0.0,0.0,0.0,0.0,0.0,0.0,0.0,0.0,0.0,0.0,0.0,0.0,0.0,0.0,0.0,0.0,0.0,0.0,0.0,0.0,0.0,0.0,0.0,0.0,0.0,0.0,0.0,0.0,0.0,0.0,0.0,0.0,0.0,0.0,0.0,0.0,0.0,0.0,0.0,0.0,0.0,0.0,0.0,0.0,0.0,0.0,0.0,0.0,0.0,0.0,0.0,0.0,0.0,0.0,0.0,0.0,0.0,0.0,0.0,0.0,0.0,0.0,0.0,0.0,0.0,0.0,0.0,0.0,0.0,0.0,0.0,0.0,0.0,0.0,0.0,0.0,0.0,0.0,0.0,0.0,0.0,0.0,0.0,0.0,0.0,0.0,0.0,0.0,0.0,0.0,0.0,0.0,0.0,0.0,0.0,0.0,0.0,0.0,0.0,0.0,0.0,0.0,0.0,0.0,0.0,0.0,0.0,0.0,0.0,0.0,0.0,0.0,0.0,0.0,0.0,0.0,0.0,0.0,0.0,0.0,0.0,0.0,0.0,0.0,0.0,0.0,0.0,0.0,0.0,0.0,0.0,0.0,0.0,0.0,0.0,0.0,0.0,0.0,0.0,0.0,0.0,0.0,0.0,0.0,0.0,0.0,0.0,0.0,0.0,0.0,0.0,0.0,0.0,0.0,0.0,0.0,0.0,0.0,0.0,0.0,0.0,0.0,0.0,0.0,0.0,0.0,0.0,0.0,0.0,0.0,0.0,0.0,0.0,0.0,0.0,0.0,0.0,0.0,0.0,0.0,0.0,0.0,0.0,0.0,0.0,0.0,0.0,0.0,0.0,0.0,0.0,0.0,0.0,0.0,0.0,0.0,0.0,0.0,0.0,0.0,0.0,0.0,0.0,0.0,0.0,0.0,0.0,0.0,0.0,0.0,0.0,0.0,0.0,0.0,0.0,0.0,0.0,0.0,0.0,0.0,0.0,0.0,0.0,0.0,0.0,0.0,0.0,0.0,0.0,0.0,0.0,0.0,0.0,0.0,0.0,0.0,0.0,0.0,0.0,0.0,0.0,0.0,0.0,0.0,0.0,0.0,0.0,0.0,0.0,0.0,0.0,0.0,0.0,0.0,0.0,0.0,0.0,0.0,0.0,0.0,0.0,0.0,0.0,0.0,0.0,0.0,0.0,0.0,0.0,0.0,0.0,0.0,0.0,0.0,0.0,0.0,0.0,0.0,0.0,0.0,0.0,0.0,0.0,0.0,0.0,0.0,0.0,0.0,0.0,0.0,0.0,0.0,0.0,0.0,0.0,0.0,0.0,0.0,0.0,0.0,0.0,0.0,0.0,0.0,0.0,0.0,0.0,0.0,0.0,0.0,0.0,0.0,0.0,0.0,0.0,0.0,0.0,0.0,0.0,0.0,0.0,0.0,0.0,0.0,0.0,0.0,0.0,0.0,0.0,0.0,0.0,0.0,0.0,0.0,0.0,0.0,0.0,0.0,0.0,0.0,0.0,0.0,0.0,0.0,0.0,0.0,0.0,0.0,0.0,0.0,0.0,0.0,0.0,0.0,0.0,0.0,0.0,0.0,0.0,0.0,0.0,0.0,0.0,0.0,0.0,0.0,0.0,0.0,0.0,0.0,0.0,0.0,0.0,0.0,0.0,0.0,0.0,0.0,0.0,0.0,0.0,0.0,0.0,0.0,0.0,0.0,0.0,0.0,0.0,0.0,0.0,0.0,0.0,0.0,0.0,0.0,0.0,0.0,0.0,0.0,0.0,0.0,0.0,0.0,0.0,0.0,0.0,0.0,0.0,0.0,0.0,0.0,0.0,0.0,0.0,0.0,0.0,0.0,0.0,0.0,0.0,0.0,0.0,0.0,0.0,0.0,0.0,0.0,0.0,0.0,0.0,0.0,0.0,0.0,0.0,0.0,0.0,0.0,0.0,0.0,0.0,0.0,0.0,0.0,0.0,0.0,0.0,0.0,0.0,0.0,0.0,0.0,0.0,0.0,0.0,0.0,0.0,0.0,0.0,0.0,0.0,0.0,0.0,0.0,0.0,0.0,0.0,0.0,0.0,0.0,0.0,0.0,0.0,0.0,0.0,0.0,0.0,0.0,0.0,0.0,0.0,0.0,0.0,0.0,0.0,0.0,0.0,0.0,0.0,0.0,0.0,0.0,0.0,0.0,0.0,0.0,0.0,0.0,0.0,0.0,0.0,0.0,0.0,0.0,0.0,0.0,0.0,0.0,0.0,0.0,0.0,0.0,0.0,0.0,0.0,0.0,0.0,0.0,0.0,0.0,0.0,0.0,0.0,0.0,0.0,0.0,0.0,0.0,0.0,0.0,0.0,0.0,0.0,0.0,0.0,0.0,0.0,0.0,0.0,0.0,0.0,0.0,0.0,0.0,0.0,0.0,0.0,0.0,0.0,0.0,0.0,0.0,0.0,0.0,0.0,0.0,0.0,0.0,0.0,0.0,0.0,0.0,0.0,0.0,0.0,0.0,0.0,0.0,0.0,0.0,0.0,0.0,0.0,0.0,0.0,0.0,0.0,0.0,0.0,0.0,0.0,0.0,0.0,0.0,0.0,0.0,0.0,0.0,0.0,0.0,0.0,0.0,0.0,0.0,0.0,0.0,0.0,0.0,0.0,0.0,0.0,0.0,0.0,0.0,0.0,0.0,0.0,0.0,0.0,0.0,0.0,0.0,0.0,0.0,0.0,0.0,0.0,0.0,0.0,0.0,0.0,0.0,0.0,0.0,0.0,0.0,0.0,0.0,0.0,0.0,0.0,0.0,0.0,0.0,0.0,0.0,0.0,0.0,0.0,0.0,0.0,0.0,0.0,0.0,0.0,0.0,0.0,0.0,0.0,0.0,0.0,0.0,0.0,0.0,0.0,0.0,0.0,0.0,0.0,0.0,0.0,0.0,0.0,0.0,0.0,0.0,0.0,0.0,0.0,0.0,0.0,0.0,0.0,0.0,0.0,0.0,0.0,0.0,0.0,0.0,0.0,0.0,0.0,0.0,0.0,0.0,0.0,0.0,0.0,0.0,0.0,0.0,0.0,0.0,0.0,0.0,0.0,0.0,0.0,0.0,0.0,0.0,0.0,0.0,0.0,0.0,0.0,0.0,0.0,0.0,0.0,0.0,0.0,0.0,0.0,0.0,0.0,0.0,0.0,0.0,0.0,0.0,0.0,0.0,0.0,0.0,0.0,0.0,0.0,0.0,0.0,0.0,0.0,0.0,3.8165,3.8015,0.0,0.0,0.0,0.0,0.0,0.0,0.0,0.0,0.0,0.0,0.0,0.0,0.0,0.0,0.0,0.0,0.0,0.0,0.0,0.0,0.0,0.0,0.0,0.0,0.0,0.0,0.0,0.0,0.0,0.0,0.0,0.0,0.0,0.0,0.0,0.0,0.0,0.0,2.8301,2.8301,2.8301,2.8301,2.8301,2.8301,0.0,0.0,0.0,0.0,0.0,0.0,0.0,0.0,0.0,0.0,0.0,0.0,0.0,0.0,0.0,0.0,0.0,0.0,0.0,0.0,0.0,0.0,0.0,0.0,0.0,0.0,0.0,0.0,0.0,0.0,0.0,0.0,0.0,0.0,0.0,0.0,0.0,0.0,0.0,0.0,0.0,0.0,0.0,0.0,0.0,0.0,0.0,0.0,0.0,0.0,0.0,0.0,0.0,0.0,0.0,0.0,0.0,0.0,0.0,0.0,0.0,0.0,0.0,0.0,0.0,0.0,0.0,0.0,0.0,0.0,3.8944,3.8818,0.0,0.0,0.0,0.0,0.0,0.0,0.0,0.0,0.0,0.0,0.0,0.0,0.0,0.0,0.0,0.0,0.0,0.0,0.0,0.0,0.0,0.0,0.0,2.7411,2.8201,2.796,2.8147,2.8301,0.0,0.0,0.0,0.0,0.0,0.0,0.0,2.8301,2.8301,2.8301,2.8301,2.8301,2.8301,2.8301,2.8301,2.8301,2.8301,0.0,0.0,0.0,0.0,0.0,0.0,0.0,0.0,0.0,0.0,0.0,0.0,0.0,0.0,0.0,0.0,0.0,0.0,0.0,0.0,0.0,0.0,0.0,0.0,0.0,0.0,0.0,0.0,0.0,0.0,0.0,0.0,0.0,0.0,0.0,0.0,0.0,0.0,0.0,0.0,0.0,0.0,0.0,0.0,0.0,0.0,0.0,0.0,0.0,0.0,0.0,0.0,0.0,0.0,0.0,0.0,0.0,0.0,0.0,0.0,0.0,0.0,0.0,3.9336,3.9439,3.9697,3.9697,3.9697,3.9697,3.9697,3.9697,3.9697,3.9697,0.0,0.0,0.0,0.0,0.0,0.0,0.0,0.0,0.0,0.0,0.0,0.0,0.0,0.0,0.0,0.0,0.0,0.0,0.0,0.0,0.0,2.7411,2.778,2.6499,2.7565,2.8301,2.8301,0.0,0.0,0.0,0.0,0.0,2.8301,2.8301,2.8301,2.8301,2.8301,2.8301,2.8301,2.8301,2.8301,2.8301,2.8301,2.8301,2.8301,0.0,0.0,0.0,0.0,0.0,0.0,0.0,0.0,0.0,0.0,0.0,0.0,0.0,0.0,0.0,0.0,0.0,0.0,0.0,0.0,0.0,0.0,0.0,0.0,0.0,0.0,0.0,0.0,0.0,0.0,0.0,0.0,0.0,0.0,0.0,0.0,0.0,0.0,0.0,0.0,0.0,3.3799,3.3866,0.0,0.0,0.0,0.0,0.0,0.0,0.0,0.0,0.0,0.0,0.0,0.0,0.0,3.5595,3.55,3.5691,3.6445,3.7796,3.7796,3.8453,3.9697,3.9697,3.9697,3.9697,3.9697,0.0,3.9697,3.9697,0.0,0.0,0.0,0.0,0.0,0.0,0.0,0.0,0.0,0.0,0.0,0.0,0.0,0.0,0.0,0.0,0.0,0.0,0.0,0.0,0.0,2.6418,2.7699,2.6236,2.7457,2.8301,2.8301,2.8301,0.0,0.0,0.0,2.8398,2.8633,2.8652,2.8769,2.9031,2.9031,2.9031,2.9031,2.9031,2.8887,2.8652,2.8652,2.8516,2.8301,2.8301,0.0,0.0,0.0,0.0,0.0,0.0,0.0,0.0,0.0,0.0,0.0,0.0,0.0,0.0,0.0,0.0,0.0,0.0,0.0,0.0,0.0,0.0,0.0,0.0,0.0,0.0,0.0,0.0,0.0,0.0,0.0,0.0,0.0,0.0,0.0,0.0,0.0,0.0,0.0,3.1849,3.1826,3.3157,3.3827,3.4271,0.0,0.0,0.0,0.0,0.0,0.0,0.0,0.0,0.0,3.4097,3.4875,3.4902,3.4069,3.4875,3.6054,3.7503,3.7503,3.8269,3.9697,3.9697,3.9697,3.9697,3.9697,3.9697,3.9697,3.9697,3.9697,3.9697,0.0,0.0,0.0,0.0,3.9697,3.9697,0.0,0.0,0.0,0.0,0.0,0.0,0.0,0.0,0.0,0.0,0.0,0.0,2.1841,2.5348,2.731,2.5832,2.7486,2.8613,2.8613,2.8613,2.8613,0.0,2.8613,2.8769,2.9082,2.9082,2.9238,2.9598,2.9598,2.9598,2.9598,2.9598,2.9394,2.9082,2.9082,2.8789,2.8301,2.8301,2.8301,2.8301,0.0,0.0,0.0,0.0,0.0,0.0,0.0,0.0,0.0,0.0,0.0,0.0,0.0,0.0,0.0,0.0,0.0,0.0,0.0,0.0,0.0,0.0,0.0,0.0,0.0,0.0,0.0,0.0,0.0,0.0,0.0,0.0,0.0,0.0,0.0,0.0,0.0,3.0757,3.0591,3.2333,3.3182,3.379,0.0,0.0,0.0,0.0,0.0,0.0,3.4764,3.4736,3.4041,3.2587,3.3614,3.3642,3.2558,3.3614,3.5096,3.6945,3.6945,3.7926,3.9697,3.9697,3.9697,3.9697,3.9697,3.9697,3.9697,3.9697,3.9697,3.9697,3.9697,3.9697,3.9697,3.9697,3.9697,3.9697,0.0,0.0,0.0,0.0,0.0,0.0,0.0,0.0,0.0,0.0,0.0,2.1784,2.1614,2.4699,2.6203,2.472,2.7631,2.954,2.954,2.954,2.954,2.954,2.954,2.954,2.9559,2.9559,2.9579,2.9598,2.9598,2.9598,2.9598,2.9598,2.9579,2.9559,2.9559,2.9109,2.8301,2.8301,2.8301,2.8301,2.8301,0.0,0.0,0.0,0.0,0.0,0.0,0.0,0.0,0.0,0.0,0.0,0.0,0.0,0.0,0.0,0.0,0.0,0.0,0.0,0.0,0.0,0.0,0.0,0.0,0.0,0.0,0.0,0.0,0.0,0.0,0.0,0.0,0.0,0.0,0.0,0.0,0.0,0.0,3.0995,3.1063,0.0,0.0,0.0,0.0,3.3219,3.4515,3.4681,3.3304,3.3219,3.253,3.1054,3.1083,3.1083,3.0995,3.1083,3.255,3.5398,3.5398,3.6915,3.9697,3.9697,3.9697,3.9697,3.9697,3.9697,3.9697,3.9697,3.9697,3.9697,3.9697,3.9697,3.9697,3.9697,3.9697,3.9697,0.0,0.0,0.0,0.0,0.0,0.0,0.0,0.0,2.0099,2.0637,2.1568,2.2199,2.2287,2.4185,2.5232,2.48,2.6747,2.7994,2.7994,2.8991,2.9598,2.9598,2.9598,2.9715,2.9961,3.0273,3.0458,3.0458,3.0458,3.0458,3.0458,3.0458,3.0282,3.0009,3.0009,2.9676,2.9149,2.9149,2.9149,2.9149,2.9149,2.8945,0.0,0.0,0.0,0.0,0.0,0.0,0.0,0.0,0.0,0.0,0.0,0.0,0.0,0.0,0.0,0.0,0.0,0.0,0.0,0.0,0.0,0.0,0.0,0.0,0.0,0.0,0.0,0.0,0.0,0.0,0.0,0.0,0.0,0.0,0.0,0.0,0.0,3.0898,3.1738,0.0,3.0995,3.2236,3.2701,3.1767,3.215,3.2236,3.171,3.1681,3.1441,3.0928,3.0898,3.0898,3.0898,3.0898,3.1911,3.3873,3.3873,3.493,3.6888,3.6888,3.6888,3.6888,3.6888,3.6888,3.6888,3.6888,3.7979,3.9697,3.9697,3.9697,3.9697,3.9697,3.9697,3.9697,0.0,0.0,0.0,0.0,0.0,0.0,0.0,0.0,2.0197,2.0197,2.109,2.1766,2.1856,2.3732,2.5018,2.5122,2.7126,2.8391,2.8391,2.8879,2.9441,3.0019,3.0048,3.0165,3.043,3.0742,3.0898,3.0898,3.0898,3.0898,3.0898,3.0898,3.0723,3.043,3.043,3.0302,3.0048,3.0048,2.9872,2.9598,2.9598,2.9394,2.9141,0.0,0.0,0.0,0.0,0.0,0.0,0.0,0.0,0.0,0.0,0.0,0.0,0.0,0.0,0.0,0.0,0.0,0.0,0.0,0.0,0.0,0.0,0.0,0.0,0.0,0.0,0.0,0.0,0.0,0.0,0.0,0.0,0.0,0.0,3.0898,3.0898,3.0898,3.1767,3.1949,3.0995,3.1767,3.1949,3.0966,3.0898,3.0898,3.0898,3.0898,3.0898,3.0898,3.0898,3.0898,3.0898,3.0898,3.1623,3.3106,3.3106,3.3873,3.5288,3.5288,3.5288,3.5288,3.5288,3.559,3.6054,3.6054,3.7477,3.9671,3.9155,3.9258,3.9645,3.9129,3.9284,3.9697,0.0,0.0,0.0,0.0,0.0,0.0,0.0,2.0224,2.0224,2.0224,2.0224,2.0267,2.0284,2.3322,2.5426,2.5532,2.8729,3.0733,3.0674,2.9246,2.9098,3.0674,3.085,3.0898,3.082,3.085,3.0898,3.0898,3.0898,3.0898,3.0898,3.0898,3.0898,3.0898,3.0898,3.0898,3.0898,3.0898,3.0391,2.9637,2.9637,2.9637,2.9618,0.0,0.0,0.0,0.0,0.0,0.0,0.0,0.0,0.0,0.0,0.0,0.0,0.0,0.0,0.0,0.0,0.0,0.0,0.0,0.0,0.0,0.0,0.0,0.0,0.0,0.0,0.0,0.0,0.0,0.0,0.0,0.0,0.0,3.0898,3.0898,3.0898,3.0898,3.0898,3.0898,3.0898,3.0898,3.0898,3.0898,3.0898,3.0898,3.0898,3.0898,3.0898,3.0898,3.0898,3.0898,3.0898,3.0898,3.1623,3.3021,3.3021,3.3761,3.5151,3.5151,3.5151,3.5151,3.5151,3.5972,3.7293,3.7293,3.8163,3.9362,3.8084,3.8427,3.9517,3.8111,3.8477,3.9697,0.0,0.0,0.0,0.0,0.0,0.0,0.0,2.0837,2.0837,2.0837,2.0837,2.1323,2.255,2.2453,2.2806,2.404,2.6117,2.6849,2.5682,2.7361,2.808,2.7391,2.9619,3.0333,2.9098,3.0274,3.0898,3.0898,3.0898,3.0898,3.0898,3.0898,3.0898,3.0898,3.0898,3.0898,3.0898,3.0898,3.0762,3.0527,3.0527,3.0332,3.0019,0.0,0.0,0.0,0.0,0.0,0.0,0.0,0.0,0.0,0.0,0.0,0.0,0.0,0.0,0.0,0.0,0.0,0.0,0.0,0.0,0.0,0.0,0.0,0.0,0.0,0.0,0.0,0.0,0.0,0.0,0.0,3.0898,3.0898,3.0898,3.0898,3.0898,3.0898,3.0898,3.0898,3.0898,3.0898,3.0898,3.0898,3.0898,3.0898,3.0898,3.0898,3.0898,3.0898,3.0898,3.0898,3.0898,3.0898,3.1112,3.1498,3.1498,3.171,3.2113,3.2113,3.2113,3.2113,3.2113,3.235,3.2701,3.2701,3.3586,3.5183,3.8005,3.9336,3.9671,3.9233,3.9362,3.9697,0.0,0.0,0.0,0.0,0.0,0.0,0.0,2.1109,2.1109,2.1109,2.1109,2.1475,2.2435,2.231,2.2796,2.4471,2.5467,2.6197,2.6624,2.7751,2.7692,2.6076,2.8486,2.9726,2.9442,3.0392,3.0898,3.0898,3.0898,3.0898,3.0898,3.0898,3.0898,3.0898,3.0898,3.0898,3.0898,3.0898,3.0898,3.0898,3.0898,3.0723,3.0488,3.0488,3.0332,3.0146,3.0146,3.0146,3.0146,3.0146,0.0,0.0,0.0,0.0,0.0,0.0,0.0,0.0,0.0,0.0,0.0,0.0,0.0,0.0,0.0,0.0,0.0,0.0,0.0,0.0,0.0,0.0,0.0,0.0,3.0898,3.0898,3.0898,3.0898,3.0898,3.0898,3.0898,3.0898,3.0898,3.0898,3.0898,3.0898,3.0898,3.0898,3.0898,3.0898,3.0898,3.0898,3.1055,3.1152,3.1152,3.1328,3.1455,3.1455,3.1455,3.1455,3.1455,3.1455,3.1455,3.1455,3.1455,3.1791,3.2369,3.2369,3.3252,3.4716,0.0,0.0,0.0,0.0,3.7846,3.7952,0.0,0.0,0.0,0.0,0.0,0.0,0.0,2.1109,2.1109,2.1109,2.1109,2.1109,2.1109,2.2435,2.3962,2.5589,2.5893,2.7224,3.0157,2.8801,2.7134,2.5528,2.7164,2.8831,3.0333,3.0528,3.0704,3.0898,3.0898,3.0898,3.0898,3.0898,3.0898,3.0898,3.0898,3.0898,3.0898,3.0898,3.0898,3.0898,3.0898,3.0898,3.0898,3.0898,3.0898,3.0898,3.0898,3.0898,3.0898,3.0898,0.0,0.0,0.0,0.0,0.0,0.0,0.0,0.0,0.0,0.0,0.0,0.0,0.0,0.0,0.0,0.0,0.0,0.0,0.0,0.0,0.0,0.0,0.0,0.0,3.0898,3.0898,3.0898,3.0898,3.0898,3.0898,3.0898,3.0898,3.0898,3.0898,3.0918,3.0957,3.0957,3.0976,3.1035,3.1035,0.0,0.0,0.0,3.1582,3.1582,3.2003,3.2198,3.2198,3.2198,3.2198,3.2198,3.2198,3.2198,3.2198,3.2198,3.2945,3.4167,3.4167,3.4912,3.5931,3.4168,3.4276,3.5468,3.5468,3.5578,3.5858,0.0,0.0,0.0,0.0,0.0,0.0,0.0,2.1109,2.1109,2.1109,2.1109,2.1109,2.1109,2.138,2.2247,2.3931,2.5253,2.6288,2.6893,2.5422,2.3776,2.2121,2.4885,2.6621,2.6923,2.82,2.956,3.0898,3.0898,3.0898,3.0898,3.0898,3.0898,3.0898,3.0898,3.0898,3.0898,3.0898,3.0898,3.0898,3.0898,3.0898,3.0898,3.0898,3.0898,3.0898,3.0898,3.0898,3.0898,3.0898,3.0898,3.0898,3.0898,3.0898,0.0,0.0,0.0,0.0,0.0,0.0,0.0,0.0,0.0,0.0,0.0,0.0,0.0,0.0,0.0,0.0,0.0,0.0,0.0,3.0898,3.0898,3.0898,3.0898,3.0898,3.0898,3.0898,3.0898,3.0898,3.0898,3.0898,3.1035,3.1367,3.1377,3.1543,3.1925,3.1944,3.1944,3.1944,3.2022,3.2081,3.2081,3.2159,3.2198,3.2198,3.2198,0.0,3.2198,3.2198,3.2198,3.2198,3.2198,3.2361,3.2633,3.2633,3.2794,3.3235,3.5186,3.6106,3.6362,3.6362,3.7132,3.8054,0.0,0.0,0.0,0.0,0.0,0.0,0.0,2.1109,2.1109,2.1109,2.1109,2.1109,2.1109,2.1109,2.1758,2.345,2.5069,2.5314,2.3668,2.359,2.3232,2.2404,2.3931,2.5558,2.7164,2.7991,2.8813,2.9648,2.9648,2.9246,2.8456,2.8456,2.8456,2.8486,2.9294,2.9187,2.8486,2.9324,2.9187,2.8456,2.8456,2.892,2.9737,3.0587,3.0898,3.0898,3.0898,3.0898,3.0898,3.0898,3.0898,3.0898,3.0898,3.0898,3.0898,0.0,0.0,0.0,0.0,0.0,0.0,0.0,0.0,0.0,0.0,0.0,0.0,0.0,0.0,3.0898,3.0898,0.0,3.0957,3.1172,3.1211,3.1289,3.1534,3.1553,3.1445,3.123,3.1211,3.1289,3.1534,3.1553,3.1651,3.1836,3.1836,3.1934,3.2179,3.2198,3.2198,3.2198,3.2413,3.2511,3.2511,3.2695,3.2793,3.2793,3.2793,3.2793,3.2793,3.2793,3.2793,3.2793,3.2793,3.2793,3.2793,3.2793,3.2793,3.2948,3.44,3.4742,3.4404,3.4404,3.5351,3.655,0.0,0.0,0.0,0.0,0.0,0.0,0.0,2.1109,2.1109,2.1109,2.1109,2.1109,2.1109,2.1109,2.1915,2.39,2.4962,2.4548,2.2201,2.2716,2.3107,2.3107,2.3107,2.4625,2.7871,2.7632,2.7781,2.8397,2.808,2.7254,2.6015,2.6015,2.6015,2.6076,2.7344,2.7374,2.653,2.7512,2.7374,2.647,2.647,2.7224,2.8575,3.0274,3.0898,3.0898,3.0898,3.0898,3.0898,3.0898,3.0898,3.0898,3.0898,3.0898,3.0898,3.0898,3.0898,0.0,0.0,0.0,0.0,0.0,0.0,0.0,0.0,3.0898,3.0918,3.0996,3.1016,3.1035,3.1162,3.1133,3.125,3.1582,3.1641,3.1758,3.2159,3.2198,3.2101,3.1797,3.1699,3.1777,3.2159,3.2198,3.2237,3.2316,3.2316,3.2355,3.2433,3.2452,3.2452,3.2452,3.2734,3.291,3.291,3.3242,3.3386,3.3386,3.3386,3.3386,3.3386,3.3386,3.3386,3.3386,3.3386,3.3386,3.3386,3.3386,3.3386,3.3386,3.3386,3.3008,3.2452,3.2452,3.3397,3.4625,0.0,0.0,0.0,0.0,0.0,0.0,0.0,0.0,2.1109,2.1109,2.1109,2.1109,2.1109,2.1109,2.2358,2.5467,2.4594,2.4332,2.5375,2.2906,2.1393,2.1393,2.1393,2.2906,2.6197,2.487,2.5544,2.8397,2.6953,2.6197,2.6015,2.6015,2.6015,2.6015,2.6197,2.6953,2.8051,2.6802,2.6983,2.814,2.814,2.823,2.8575,3.0274,3.0898,3.0898,3.0898,3.0898,3.0898,3.0898,3.0898,3.0898,3.0898,3.0898,3.0898,3.0898,3.0898,3.0898,3.0898,3.0898,3.0898,3.0898,3.0898,3.0898,0.0,3.0898,3.0996,3.1367,3.1416,3.1562,3.1983,3.2061,3.2081,3.212,3.212,3.214,3.2198,3.2198,3.2316,3.2617,3.2324,3.214,3.2198,3.2198,3.2355,3.2695,3.2734,3.2891,3.3262,3.3281,3.3281,3.3281,3.332,3.3328,3.3328,3.3367,3.3386,3.3386,3.3386,3.3386,3.3386,3.3386,3.3386,3.3386,3.3386,3.3386,3.3386,3.3386,3.3386,3.3386,3.3386,3.3328,3.3281,3.3281,3.4253,3.5445,0.0,0.0,0.0,0.0,0.0,0.0,0.0,0.0,0.0,2.1109,2.1109,2.1109,2.1109,2.1109,2.2059,2.4409,2.3107,2.2827,2.4502,2.2389,2.1109,2.1109,2.1109,2.264,2.5924,2.5344,2.565,2.7013,2.6349,2.5008,2.3155,2.3155,2.3155,2.3248,2.5161,2.5863,2.5635,2.5893,2.5863,2.5605,2.5605,2.6183,2.7164,2.8813,3.005,3.0898,3.0898,3.0898,0.0,0.0,3.0898,3.0898,3.0898,3.0898,3.0898,3.0898,3.0898,3.0898,3.0898,3.0898,3.0898,3.0898,3.0898,3.0957,3.1191,3.125,3.1367,3.1816,3.1894,3.1983,3.2159,3.2198,3.2276,3.2531,3.257,3.2617,3.2871,3.2891,3.2969,3.3144,3.3008,3.2891,3.2891,3.2891,3.2969,3.3144,3.3164,3.3242,3.3386,3.3386,3.3386,3.3386,3.3386,3.3386,3.3386,3.3386,3.3386,3.3386,3.3386,3.3386,3.3386,3.3386,3.3386,3.3386,3.3386,3.3386,3.3386,3.3386,3.3386,3.3386,3.3386,3.3386,3.3386,3.3386,3.3839,3.432,0.0,0.0,0.0,0.0,0.0,0.0,0.0,0.0,0.0,0.0,2.1109,2.1109,2.1109,2.1109,2.1758,2.345,2.2059,2.1996,2.4116,2.2278,2.1299,2.1758,2.1362,2.264,2.5924,2.5558,2.5771,2.6651,2.6227,2.4793,2.2452,2.1996,2.2027,2.2546,2.4471,2.5177,2.4932,2.5238,2.5177,2.487,2.4456,2.5238,2.6832,2.8486,2.9844,3.0898,3.0898,3.0898,3.0898,3.0898,3.0898,3.0898,3.0898,3.0898,3.0898,3.0898,3.0976,3.1035,3.0918,3.1074,3.1211,3.1094,3.1152,3.1328,3.1621,3.1699,3.1816,3.2276,3.2374,3.2413,3.2531,3.2519,3.2648,3.293,3.2969,3.3066,3.3347,3.3386,3.3386,3.3386,3.3503,3.3594,3.3594,3.3496,3.3386,3.3386,3.3386,3.3386,3.3386,3.3386,3.3386,3.3386,3.3386,3.3386,3.3386,3.3386,3.3386,3.3386,3.3386,3.3386,3.3386,3.3386,3.3386,3.3386,3.3386,3.3386,3.3386,3.3386,3.3386,3.3386,3.3386,3.3386,3.3386,3.3386,3.3386,3.3386,0.0,0.0,0.0,0.0,0.0,0.0,0.0,0.0,0.0,0.0,0.0,0.0,0.0,2.1109,2.1758,2.345,2.2059,2.2483,2.5711,2.2906,2.1821,2.345,2.1978,2.264,2.5924,2.4471,2.5208,2.8319,2.6772,2.5954,2.5832,2.4271,2.4363,2.5802,2.4332,2.5391,2.8051,2.4962,2.5452,2.811,2.656,2.6893,2.8516,3.0186,3.0869,3.0898,3.0898,0.0,3.0898,3.0898,3.0898,3.0898,3.0898,3.0898,3.0898,3.0898,3.1191,3.1406,3.0996,3.1534,3.2061,3.1601,3.1816,3.2159,3.2179,3.2179,3.2296,3.2695,3.2773,3.291,3.3269,3.3347,3.3347,3.3367,3.3367,3.3367,3.3386,3.3386,3.3386,3.3386,3.3789,3.4095,3.4095,3.3672,3.3386,3.3386,3.3386,3.3386,3.3386,3.3386,3.3386,3.3386,3.3386,3.3386,3.3386,3.3386,3.3386,3.3386,3.3386,3.3386,3.3386,3.3386,3.3386,3.3386,3.3386,3.3386,3.3386,3.3386,3.3386,3.3386,3.3386,3.3386,3.3386,3.3386,3.3386,3.3386,0.0,0.0,0.0,0.0,0.0,0.0,0.0,0.0,0.0,0.0,0.0,0.0,0.0,0.0,0.0,0.0,2.2059,2.2483,2.5802,2.2906,2.1853,2.3543,2.201,2.264,2.5924,2.5467,2.6258,2.8397,2.7871,2.65,2.4409,2.4962,2.4901,2.4471,2.6062,2.7391,2.8259,2.6106,2.6439,2.8259,2.6651,2.6953,2.8575,3.0274,3.0898,3.0898,0.0,3.0898,3.0898,3.0898,3.0898,3.0898,3.0898,3.0898,3.0937,3.123,3.1377,3.1543,3.1699,3.1983,3.2159,3.2022,3.2101,3.2276,3.255,3.2578,3.2695,3.3125,3.3203,3.323,3.3398,3.3386,3.3386,3.3386,3.3386,3.3516,3.3809,3.3848,3.3965,3.4238,3.4394,3.4492,3.4492,3.4355,3.4277,3.4277,3.4277,3.4277,3.4277,3.4277,3.4277,3.4277,3.4277,3.4277,3.4277,3.4277,3.4277,3.4277,3.4277,3.4277,3.4277,3.4277,3.4277,3.4277,3.4277,3.4277,3.4277,3.4277,3.4277,3.4277,3.4277,3.4101,3.3848,3.3848,3.3672,3.3386,0.0,0.0,0.0,0.0,0.0,0.0,0.0,0.0,0.0,0.0,0.0,0.0,0.0,0.0,0.0,0.0,0.0,2.2483,2.5802,2.3497,2.2733,2.4378,2.2858,2.3248,2.5954,2.6015,2.7073,2.9275,2.9275,2.8218,2.623,2.6076,2.6076,2.6244,2.7151,2.7871,2.8319,2.7284,2.7104,2.7494,2.7043,2.7464,2.8575,3.0274,3.0898,0.0,3.0898,3.0898,3.0898,3.0898,3.0898,3.0898,3.0898,3.0996,3.1191,3.1621,3.1855,3.1992,3.2159,3.2413,3.2578,3.2452,3.2531,3.2695,3.2969,3.3008,3.3105,3.3359,3.3386,3.3386,3.3386,3.3386,3.3445,3.3633,3.3652,3.3809,3.4238,3.4297,3.4394,3.4668,3.4844,3.4941,3.4941,3.5078,3.5039,3.4726,3.4707,3.4707,3.4707,3.4707,3.4707,3.4707,3.4707,3.4707,3.4707,3.4707,3.4707,3.4707,3.4707,3.4707,3.4707,3.4707,3.4707,3.4707,3.4707,3.4707,3.4707,3.4707,3.4707,3.4707,3.4707,3.4531,3.4297,3.4297,3.4121,3.3828,0.0,0.0,0.0,0.0,0.0,0.0,0.0,0.0,0.0,0.0,0.0,0.0,0.0,0.0,0.0,0.0,0.0,0.0,2.568,2.4378,2.424,2.5924,2.444,2.4348,2.5954,2.6015,2.7542,3.0645,3.0733,3.0733,3.0587,2.7632,2.7871,3.0645,2.7602,2.7104,2.8516,2.8456,2.7572,2.6379,2.7811,2.8456,2.8694,3.0304,3.0898,3.0898,3.0898,3.0898,3.0898,3.0898,3.0898,3.0898,3.0898,3.1191,3.1601,3.2061,3.2492,3.2715,3.2374,3.2812,3.332,3.293,3.3125,3.3386,3.3386,3.3386,3.3386,3.3386,3.3406,3.3425,3.3425,3.3445,3.3613,3.4075,3.4134,3.429,3.4668,3.4726,3.4746,3.4766,3.5156,3.543,3.543,3.5781,3.5664,3.4824,3.4766,3.4766,3.4766,3.4766,3.4766,3.4766,3.4766,3.4766,3.4766,3.4766,3.4766,3.4766,3.4766,3.4766,3.4766,3.4766,3.4766,3.4766,3.4766,3.4766,3.4766,3.4766,3.4766,3.4766,3.4766,3.4746,3.4726,3.4726,3.4726,3.459,0.0,0.0,0.0,0.0,0.0,0.0,0.0,0.0,0.0,0.0,0.0,0.0,0.0,0.0,0.0,0.0,0.0,0.0,2.4085,2.264,2.2999,2.5893,2.444,2.4348,2.5954,2.6015,2.6409,2.7271,2.8456,2.8426,2.7284,2.889,2.9442,2.9068,2.9471,2.9873,3.0186,2.895,2.8872,2.9589,2.8724,2.9157,3.0304,3.0733,3.0898,3.0898,3.0898,3.0898,3.0898,3.0898,3.0898,3.0898,3.0898,3.1191,3.1601,3.2061,3.2492,3.2832,3.3047,3.323,3.3398,3.325,3.3308,3.3386,3.3386,3.3386,3.3386,3.3386,3.3691,3.3906,3.3906,3.416,3.4414,3.4531,3.4531,3.4687,3.5156,3.5215,3.5332,3.5644,3.5781,3.5859,3.5859,3.5923,3.5903,3.5703,3.5684,3.5684,3.5684,3.5684,3.5684,3.5684,3.5684,3.5684,3.5684,3.5684,3.5684,3.5684,3.5684,3.5684,3.5684,3.5684,3.5684,3.5684,3.5684,3.5684,3.5684,3.5684,3.5684,3.5684,3.5684,3.5488,3.5215,3.5215,3.5,3.4668,0.0,0.0,0.0,0.0,0.0,0.0,0.0,0.0,0.0,0.0,0.0,0.0,0.0,0.0,0.0,0.0,0.0,0.0,0.0,2.2716,2.3014,2.487,2.4085,2.4348,2.5954,2.6015,2.6712,2.8158,2.8337,2.7931,2.7073,2.7482,2.7572,2.7374,2.8337,2.8742,2.8772,2.9275,2.9216,0.0,0.0,2.9619,2.9873,3.0616,3.0898,3.0898,3.0898,3.0898,3.0898,3.0898,3.1016,3.1191,3.1416,3.1738,3.2168,3.2598,3.2891,3.3125,3.3328,3.3386,3.3386,3.3386,3.3386,3.3386,3.3386,3.3386,3.3476,3.3672,3.3938,3.4153,3.4349,3.4531,3.4766,3.4961,3.5,3.5156,3.5605,3.5664,3.5762,3.5962,3.5982,3.5982,3.5982,3.5982,3.5982,3.5982,3.5982,3.5982,3.5982,3.5982,3.5982,3.5982,3.5982,3.5982,3.5982,3.5982,3.5982,3.5982,3.5982,3.5982,3.5982,3.5982,3.5982,3.5982,3.5982,3.5982,3.5982,3.5982,3.5982,3.5982,3.5982,3.5879,3.5664,3.5664,3.5508,3.5273,0.0,0.0,0.0,0.0,0.0,0.0,0.0,0.0,0.0,0.0,0.0,0.0,0.0,0.0,0.0,0.0,0.0,0.0,0.0,0.0,2.3356,2.3605,2.3605,2.4271,2.565,2.5893,2.7164,2.9608,2.8575,2.808,2.8021,2.5452,2.5085,2.6651,2.6651,2.6651,2.6832,2.9678,2.9264,2.6893,2.9756,3.002,2.8872,0.0,0.0,3.0898,3.0898,3.0918,3.0976,3.0976,3.1211,3.1582,3.1983,3.2452,3.2871,3.3242,3.3347,3.3386,3.3386,3.3386,3.3386,3.3386,3.3386,3.3386,3.3386,3.3445,3.3613,3.4036,3.4192,3.4388,3.4726,3.4844,3.5,3.541,3.5488,3.5605,3.5942,3.5982,3.5982,3.5982,3.5982,3.5982,3.5982,3.5982,3.5982,3.5982,3.5982,3.5982,3.5982,3.5982,3.5982,3.5982,3.5982,3.5982,3.5982,3.5982,3.5982,3.5982,3.5982,3.5982,3.5982,3.5982,3.5982,3.5982,3.5982,3.5982,3.5982,3.5982,3.5982,3.5982,3.5982,3.5982,3.5982,3.5982,3.5982,3.5982,0.0,0.0,0.0,0.0,0.0,0.0,0.0,0.0,0.0,0.0,2.1109,2.1109,0.0,0.0,0.0,0.0,0.0,0.0,0.0,0.0,0.0,2.3543,2.3605,2.3729,2.4023,2.5314,2.4947,2.2796,2.5222,2.6409,2.6439,2.7211,2.8456,3.005,3.005,3.005,3.0079,3.0645,3.0587,3.0098,3.0674,3.0733,3.0499,0.0,0.0,0.0,3.0898,3.1113,3.1406,3.1406,3.1416,3.1494,3.1601,3.2168,3.2812,3.2871,3.3144,3.3386,3.3386,3.3386,3.3386,3.3386,3.3386,3.3386,3.3386,3.3691,3.4016,3.4095,3.4681,3.5195,3.5254,3.5566,3.5786,3.5864,3.5918,3.5937,3.5982,3.5982,3.5982,3.5982,3.5982,3.5982,3.5982,3.5982,3.5982,3.5982,3.5982,3.5982,3.5982,3.5982,3.5982,3.5982,3.5982,3.5982,3.5982,3.5982,3.5982,3.5982,3.5982,3.5982,3.5982,3.5982,3.5982,3.5982,3.5982,3.5982,3.5982,3.5982,3.5982,3.5982,3.5982,3.5982,3.5982,3.5982,3.5982,3.5982,0.0,0.0,0.0,0.0,0.0,0.0,0.0,2.1109,2.1109,2.1109,2.1109,2.1109,2.1109,2.1109,2.1109,0.0,0.0,0.0,0.0,0.0,0.0,0.0,2.231,2.2716,2.3574,2.4363,2.4378,2.3637,0.0,2.4748,2.4748,2.4655,2.5513,2.7138,2.7979,2.8831,2.9648,3.0509,3.0898,3.0898,3.0898,3.0898,0.0,0.0,0.0,0.0,3.0898,3.1152,3.1494,3.1494,3.1816,3.2187,3.2187,3.2617,3.3125,3.3125,3.3262,3.3386,3.3386,3.3386,3.3386,3.3386,3.3386,3.3445,3.3711,3.3926,3.4231,3.4668,3.5098,3.5469,3.5684,3.5879,3.5982,3.5982,3.5982,3.5982,3.5982,3.5982,3.5982,3.5982,3.623,3.6348,3.6348,3.6562,3.6601,3.6367,3.6348,3.625,3.6001,3.5982,3.5982,3.5982,3.5982,3.5982,3.5982,3.5982,3.5982,3.5982,3.5982,3.5982,3.5982,3.5982,3.5982,3.5982,3.5982,3.5982,3.5982,3.5982,3.5982,3.5982,3.5982,3.5982,3.5982,3.5982,3.5982,3.5982,0.0,0.0,0.0,0.0,0.0,0.0,0.0,2.1109,2.1109,2.1109,2.1109,2.1109,2.1109,2.1109,2.1109,0.0,0.0,0.0,0.0,0.0,0.0,0.0,0.0,0.0,2.3045,0.0,0.0,2.4947,2.4054,0.0,0.0,0.0,0.0,0.0,2.5802,2.7224,2.8516,3.0186,3.0898,0.0,0.0,3.0898,0.0,0.0,0.0,0.0,0.0,3.1289,3.168,3.1758,3.2305,3.293,3.293,3.3164,3.3386,3.3386,3.3386,3.3386,3.3386,3.3386,3.3386,3.3386,3.3386,3.3535,3.3997,3.4173,3.4466,3.5234,3.5469,3.5625,3.5923,3.5982,3.5982,3.5982,3.5982,3.5982,3.5982,3.5982,3.6055,3.6152,3.6465,3.6734,3.6832,3.7109,3.7168,3.6871,3.6851,3.6582,3.6021,3.5982,3.5982,3.5982,3.5982,3.5982,3.5982,3.5982,3.5982,3.5982,3.5982,3.5982,3.5982,3.5982,3.5982,3.5982,3.5982,3.5982,3.5982,3.5982,3.5982,3.5982,3.5982,3.5982,3.5982,3.5982,3.5982,3.5982,0.0,0.0,0.0,0.0,0.0,0.0,0.0,2.1109,2.1109,2.1109,2.1109,2.1109,2.1109,2.1109,2.1109,0.0,0.0,0.0,0.0,0.0,0.0,0.0,0.0,0.0,0.0,0.0,0.0,2.1538,2.292,0.0,0.0,0.0,0.0,0.0,0.0,2.8259,2.8516,3.0186,0.0,0.0,0.0,0.0,0.0,0.0,0.0,0.0,0.0,3.1738,3.2198,3.2559,3.2988,3.3328,3.3328,3.3367,3.3386,3.3386,3.3386,3.3386,3.3386,3.3386,3.3386,3.3386,3.3386,3.3535,3.3997,3.4375,3.4785,3.5293,3.5703,3.5976,3.5982,3.5982,3.5982,3.5982,3.5982,3.5982,3.5982,3.5982,3.6172,3.6562,3.6675,3.6851,3.7207,3.7266,3.7285,3.7246,3.7246,3.6875,3.604,3.5982,3.5982,3.5982,3.5982,3.5982,3.5982,3.5982,3.5982,3.5982,3.5982,3.5982,3.5982,3.5982,3.5982,3.5982,3.5982,3.5982,3.5982,3.5982,3.5982,3.5982,3.5982,3.5982,3.5982,3.5982,3.5982,3.5982,0.0,0.0,0.0,0.0,0.0,0.0,2.1109,2.1109,2.1109,2.1109,2.1109,2.1109,2.1109,2.1109,2.1109,2.1109,0.0,0.0,0.0,0.0,0.0,0.0,0.0,0.0,0.0,0.0,2.1758,2.1109,2.1758,0.0,0.0,0.0,0.0,0.0,0.0,2.6608,2.8397,2.808,0.0,0.0,0.0,0.0,0.0,0.0,0.0,0.0,0.0,0.0,3.2257,3.2656,3.3066,3.3386,3.3386,3.3386,3.3386,3.3386,3.3386,3.3386,3.3386,3.3386,3.3386,3.3386,3.3613,3.3926,3.4355,3.4785,3.5234,3.5684,3.5898,3.5982,3.5982,3.5982,3.5982,3.5982,3.5982,3.5982,3.5982,3.5982,3.6172,3.6656,3.6894,3.7207,3.7637,3.791,3.7949,3.7695,3.7441,3.7148,3.6816,3.6543,3.6406,3.6406,3.6152,3.5982,3.5982,3.5982,3.5982,3.5982,3.5982,3.5982,3.5982,3.5982,3.5982,3.5982,3.5982,3.5982,3.5982,3.5982,3.5982,3.5982,3.5982,3.5982,3.5982,3.5982,3.5982,3.5982,0.0,0.0,0.0,0.0,0.0,2.1109,2.1109,2.1109,2.1109,2.1109,2.1109,2.1109,2.1109,2.1109,2.1109,2.1109,2.1109,0.0,0.0,0.0,0.0,0.0,0.0,0.0,0.0,0.0,2.1109,2.1109,2.1109,2.1109,0.0,0.0,2.1727,2.2873,0.0,0.0,0.0,0.0,0.0,0.0,0.0,0.0,0.0,0.0,0.0,0.0,0.0,0.0,0.0,0.0,0.0,3.3386,3.3386,3.3386,3.3386,3.3386,3.3386,3.3386,3.3386,3.3386,3.3386,3.3386,3.375,3.4212,3.4609,3.5059,3.5508,3.5937,3.5982,3.5982,3.5982,3.5982,3.5982,3.5982,3.5982,3.5982,3.5982,3.5982,3.623,3.6832,3.7109,3.7519,3.8066,3.8398,3.8437,3.8144,3.7832,3.7676,3.7676,3.7266,3.6992,3.689,3.6562,3.6387,3.6387,3.6387,3.6387,3.6387,3.6387,3.6387,3.6387,3.6387,3.6387,3.6387,3.6387,3.6387,3.6387,3.6387,3.6387,3.6387,3.6387,3.6387,3.6387,3.6387,3.6387,3.6387,0.0,0.0,0.0,0.0,0.0,0.0,2.1109,2.1109,2.1109,2.1109,2.1109,2.1109,2.1109,2.1109,2.1109,2.1109,2.1109,0.0,0.0,0.0,0.0,0.0,0.0,0.0,0.0,0.0,2.1109,2.1109,2.1109,2.1109,2.1109,2.1109,2.1109,2.1204,0.0,0.0,0.0,0.0,0.0,0.0,0.0,0.0,0.0,0.0,0.0,0.0,0.0,0.0,0.0,0.0,0.0,0.0,0.0,3.3386,3.3386,3.3386,3.3386,3.3386,3.3386,3.3386,3.3386,3.3386,3.375,3.4212,3.4609,3.5059,3.5508,3.5937,3.5982,3.5982,3.5982,3.5982,3.5982,3.5982,3.5982,3.5982,3.5982,3.5982,3.6328,3.7187,3.7305,3.7637,3.8532,3.8611,3.8611,3.8611,3.8591,3.8591,3.8591,3.8144,3.7715,3.7305,3.7285,3.7285,3.7285,3.7285,3.7285,3.7285,3.7285,3.7285,3.7285,3.7285,3.7285,3.7285,3.7285,3.7285,3.7285,3.7285,3.7285,3.7285,3.7285,3.7285,3.7285,3.7285,3.7285,3.7226,0.0,0.0,0.0,0.0,0.0,0.0,0.0,2.1109,2.1109,2.1109,2.1109,2.1109,2.1109,2.1109,2.1109,2.1109,2.1109,0.0,0.0,0.0,0.0,0.0,0.0,0.0,0.0,0.0,2.1109,2.1109,2.1109,2.1109,2.1109,2.1109,2.1109,2.1109,2.1664,2.3435,0.0,0.0,0.0,0.0,0.0,0.0,3.0762,0.0,0.0,0.0,0.0,0.0,0.0,0.0,0.0,0.0,0.0,0.0,0.0,3.3386,3.3386,3.3386,3.3386,3.3386,3.3386,3.3386,3.3965,3.4531,3.4668,3.5273,3.5859,3.5962,3.5982,3.5982,3.5982,3.5982,3.5982,3.5982,3.5982,3.5982,3.5982,3.5982,3.6313,3.7187,3.7812,3.8317,3.8591,3.8611,3.8611,3.8611,3.8611,3.8611,3.8611,3.8437,3.8164,3.7699,3.7441,3.7305,3.7305,3.7305,3.7305,3.7305,3.7305,3.7305,3.7305,3.7305,3.7305,3.7305,3.7305,3.7305,3.7305,3.7305,3.7305,3.7305,3.7305,3.7305,3.7305,3.7305,3.7305,3.7285,0.0,0.0,0.0,0.0,0.0,0.0,0.0,2.1109,2.1109,2.1109,2.1109,2.1109,2.1109,2.1109,2.1109,2.1109,2.1109,0.0,0.0,0.0,0.0,0.0,0.0,0.0,2.1109,2.1109,2.1109,2.1109,2.1109,2.1109,2.1109,2.1109,2.1109,2.1109,2.1109,2.2577,0.0,0.0,0.0,0.0,0.0,0.0,3.0704,0.0,0.0,0.0,0.0,0.0,0.0,0.0,0.0,0.0,0.0,0.0,0.0,0.0,3.3386,3.3386,3.3386,3.3386,3.3386,3.3386,3.3945,3.4512,3.4668,3.5254,3.582,3.5996,3.5982,3.5982,3.5982,3.5982,3.5982,3.5982,3.5982,3.5982,3.5982,3.6152,3.6582,3.7441,3.8144,3.8611,3.8611,3.8611,3.8611,3.8611,3.8611,3.8611,3.8611,3.8611,3.8493,3.8184,3.791,3.7773,3.7773,3.7773,3.7773,3.7773,3.7773,3.7773,3.7773,3.7773,3.7773,3.7773,3.7773,3.7773,0.0,3.7773,3.7773,3.7773,3.7773,3.7773,3.7773,3.7773,3.7773,3.7754,0.0,0.0,0.0,0.0,0.0,0.0,0.0,2.1109,2.1109,2.1109,2.1109,2.1109,2.1109,2.1109,2.1109,2.1109,0.0,0.0,0.0,0.0,0.0,0.0,0.0,0.0,2.1109,2.1109,2.1109,2.1109,2.1109,2.1109,2.1109,2.1109,2.1109,2.1109,2.1109,2.1978,0.0,0.0,0.0,0.0,0.0,0.0,0.0,0.0,0.0,0.0,0.0,0.0,0.0,0.0,0.0,0.0,0.0,0.0,0.0,0.0,0.0,0.0,0.0,3.3386,3.3386,3.3386,3.375,3.4212,3.4609,3.5059,0.0,3.5937,3.5982,3.5982,3.5982,3.5982,3.5982,3.5982,3.5982,3.5982,3.5982,3.6426,3.7012,3.7832,3.8301,3.8611,3.8611,3.8611,3.8611,3.8611,3.8611,3.8611,3.8611,3.8611,3.8611,3.8611,3.8611,3.8611,3.8611,3.8611,3.8611,3.8611,3.8611,3.8611,3.8611,3.8611,3.8611,3.8611,3.8611,3.8611,3.8611,3.8611,3.8611,3.8611,3.8611,3.8611,3.8611,3.8611,3.8611,3.8552,0.0,0.0,0.0,0.0,0.0,0.0,0.0,0.0,0.0,0.0,2.1109,2.1109,2.1109,2.1109,2.1109,0.0,0.0,0.0,0.0,0.0,0.0,0.0,0.0,0.0,2.1109,2.1109,2.1109,2.1109,2.1109,2.1109,2.1109,2.1109,2.1109,2.1109,2.1109,2.133,0.0,0.0,0.0,0.0,0.0,0.0,0.0,0.0,0.0,0.0,3.1885,3.2198,0.0,0.0,0.0,0.0,0.0,0.0,0.0,0.0,3.3386,3.3386,3.3386,0.0,3.3386,3.3386,3.375,3.4212,0.0,3.5059,3.5508,3.5937,3.5982,3.5982,3.5982,3.5982,3.5982,3.5982,3.5982,3.5982,3.5982,3.668,3.7344,3.7816,3.8301,3.8611,3.8611,3.8611,3.8611,3.8611,3.8611,3.8611,3.8611,3.8611,3.8611,3.8611,3.8611,3.8611,3.8611,3.8611,3.8611,3.8611,3.8611,3.8611,3.8611,3.8611,3.8611,3.8611,3.8611,3.8611,3.8611,3.8611,3.8611,3.8611,3.8611,3.8611,3.8611,3.8611,3.8611,3.8591,0.0,0.0,0.0,0.0,0.0,0.0,0.0,0.0,0.0,0.0,0.0,2.1109,2.1109,2.1109,0.0,0.0,0.0,0.0,0.0,0.0,0.0,0.0,0.0,2.1109,2.1109,2.1109,2.1109,2.1109,2.1109,2.1109,2.1109,2.1109,2.1109,2.1109,2.1109,2.1109,0.0,0.0,0.0,0.0,2.3605,0.0,0.0,0.0,0.0,0.0,3.1032,3.155,0.0,3.3144,3.3386,3.3386,0.0,0.0,0.0,0.0,3.3386,3.3386,3.3386,3.3386,3.3386,3.3386,3.3594,3.3945,3.4551,3.4902,3.5254,3.5845,3.5982,3.5982,3.5982,3.5982,3.5982,3.5982,3.5982,3.6118,3.6543,3.7168,3.7754,3.8164,3.8437,3.8611,3.8611,3.8611,3.8611,3.8611,3.8611,3.8611,3.8611,3.8611,3.8611,3.8611,3.8611,3.8611,3.8611,3.8611,3.8611,3.8611,3.8611,3.8611,3.8611,3.8611,3.8611,3.8611,3.8611,3.8611,3.8611,3.8611,3.8611,3.8611,3.8611,3.8611,3.8611,3.8611,3.8611,3.8611,0.0,0.0,0.0,0.0,0.0,0.0,0.0,0.0,0.0,0.0,0.0,0.0,0.0,0.0,0.0,0.0,0.0,0.0,0.0,0.0,0.0,0.0,2.1109,2.1109,2.1109,2.1109,2.1109,2.1109,2.1109,2.1109,2.1109,2.1109,2.1109,2.1109,2.1109,2.1109,0.0,0.0,0.0,0.0,2.3201,0.0,0.0,0.0,0.0,0.0,0.0,0.0,0.0,3.2812,3.3197,3.3386,3.3386,0.0,0.0,0.0,0.0,0.0,3.3386,3.3386,3.3386,3.3386,3.3386,3.362,3.4492,3.4707,3.4961,3.584,3.5982,3.5982,3.5982,3.5982,3.5982,3.5982,3.6074,3.6426,3.7266,3.7695,3.8086,3.8552,3.8611,3.8611,3.8611,3.8611,3.8611,3.8611,3.8611,3.8611,3.8611,3.8611,3.8611,3.8611,3.8611,3.8611,3.8611,3.8611,3.8611,3.8611,3.8611,3.8611,3.8611,3.8611,3.8611,3.8611,3.8611,3.8611,3.8611,3.8611,3.8611,3.8611,3.8611,3.8611,3.8611,3.8611,3.8611,3.8611,0.0,0.0,0.0,0.0,0.0,0.0,0.0,0.0,0.0,0.0,0.0,0.0,0.0,0.0,0.0,0.0,0.0,0.0,0.0,0.0,0.0,2.1109,2.1109,2.1109,2.1109,2.1109,2.1109,2.1109,2.1109,2.1109,2.1109,2.1109,2.1109,2.1109,2.1109,2.1109,2.1109,0.0,0.0,0.0,2.1475,0.0,0.0,0.0,0.0,0.0,0.0,0.0,0.0,3.1429,3.2187,3.3386,3.3386,0.0,0.0,0.0,0.0,0.0,3.3386,3.3386,3.3386,3.3386,3.3386,3.362,3.4492,3.4707,3.4961,3.584,3.5982,3.5982,3.5982,3.5982,3.5982,3.5982,3.6328,3.6875,3.7715,3.7855,3.8086,3.8552,3.8611,3.8611,3.8611,3.8611,3.8611,3.8611,3.8611,3.8611,3.8611,3.8611,3.8611,3.8611,3.8611,3.8611,3.8611,3.8611,3.8611,3.8611,3.8611,3.8611,3.8611,3.8611,3.8611,3.8611,3.8611,3.8611,3.8611,3.8611,3.8611,3.8611,3.8611,3.8611,3.8611,3.8611,3.8611,3.8611,0.0,0.0,0.0,0.0,0.0,0.0,0.0,0.0,0.0,0.0,0.0,0.0,0.0,0.0,0.0,0.0,0.0,0.0,0.0,0.0,2.1109,2.1109,2.1109,2.1109,2.1109,2.1109,2.1109,2.1109,2.1109,2.1109,2.1109,2.1109,2.1109,2.1109,2.1109,2.1109,2.1109,2.1109,0.0,0.0,0.0,0.0,0.0,0.0,0.0,0.0,0.0,0.0,0.0,0.0,3.1176,3.3228,3.2301,0.0,0.0,0.0,0.0,0.0,3.3386,3.3386,3.3386,3.3386,3.3386,3.362,3.4492,3.4707,3.4961,3.584,3.5982,3.5982,3.5982,3.5982,3.6094,3.6328,3.6914,3.748,3.7835,3.8125,3.8359,3.8591,3.8611,3.8611,3.8611,3.8611,3.8611,3.8611,3.8611,3.8611,3.8611,3.8611,3.8611,3.8611,3.8611,3.8611,3.8611,3.8611,3.8611,3.8611,3.8611,3.8611,3.8611,3.8611,3.8611,3.8611,3.8611,3.8611,3.8611,3.8611,3.8611,3.8611,3.8611,3.8611,3.8611,3.8611,3.8611,3.8611,0.0,0.0,0.0,0.0,0.0,0.0,0.0,0.0,0.0,0.0,0.0,0.0,0.0,0.0,0.0,0.0,0.0,0.0,0.0,2.1109,2.1109,2.1109,2.1109,2.1109,2.1109,2.1109,2.1109,2.1109,2.1109,2.1109,2.1109,2.1109,2.1109,2.1109,2.1109,2.1109,2.1109,2.1109,2.1109,0.0,0.0,0.0,0.0,0.0,0.0,0.0,0.0,0.0,0.0,0.0,0.0,0.0,0.0,0.0,0.0,3.2924,3.3082,3.3386,3.3386,3.3386,3.3406,3.3555,3.3574,3.3769,3.4531,3.4785,3.5078,3.5825,3.5982,3.5982,3.5982,3.6094,3.6309,3.6792,3.7441,3.7933,3.8066,3.8359,3.8611,3.8611,3.8611,3.8611,3.8611,3.8611,3.8611,3.8611,3.8611,3.8611,3.8611,3.8611,3.8611,3.8611,3.8611,3.8611,3.8611,3.8611,3.8611,3.8611,3.8611,3.8611,3.8611,3.8611,3.8611,3.8611,3.8611,3.8611,3.8611,3.8611,3.8611,3.8611,3.8611,3.8611,3.8611,3.8611,3.8611,3.8611,0.0,0.0,0.0,0.0,0.0,0.0,0.0,0.0,0.0,0.0,0.0,0.0,0.0,0.0,0.0,0.0,0.0,0.0,0.0,2.1109,2.1109,2.1109,2.1109,2.1109,2.1109,2.1109,2.1109,2.1109,2.1109,2.1109,2.1109,2.1109,2.1109,2.1109,2.1109,2.1109,2.1109,2.1109,2.1109,2.1109,0.0,0.0,0.0,0.0,0.0,0.0,0.0,0.0,0.0,0.0,0.0,0.0,0.0,0.0,3.3082,3.1465,3.2123,3.3386,3.3386,3.3386,3.3516,3.3926,3.4055,3.4141,3.459,3.5039,3.5469,3.5903,3.5982,3.5982,3.5982,3.6348,3.6792,3.7187,3.7637,3.8066,3.8513,3.8591,3.8611,3.8611,3.8611,3.8611,3.8611,3.8611,3.8611,3.8611,3.8611,3.8611,3.8611,3.8611,3.8611,3.8611,3.8611,3.8611,3.8611,3.8611,3.8611,3.8611,3.8611,3.8611,3.8611,3.8611,3.8611,3.8611,3.8611,3.8611,3.8611,3.8611,3.8611,3.8611,3.8611,3.8611,3.8611,3.8611,3.8611,3.8611,0.0,0.0,0.0,0.0,0.0,0.0,0.0,0.0,0.0,0.0,0.0,0.0,0.0,0.0,0.0,0.0,0.0,0.0,0.0,2.1109,2.1109,2.1109,2.1109,2.1109,2.1109,2.1109,2.1109,2.1109,2.1109,2.1109,2.1109,2.1109,2.1109,2.1109,2.1109,2.1109,2.1109,2.1109,2.1109,2.1109,2.1109,0.0,0.0,0.0,0.0,0.0,0.0,0.0,0.0,0.0,2.6518,2.9735,2.7304,2.8935,3.1657,3.0997,3.2027,3.3165,3.2091,3.1771,3.1896,3.2325,3.2655,3.327,3.4788,3.5273,3.5508,3.5937,3.5982,3.6094,3.6367,3.6777,3.7207,3.7617,3.8047,3.8379,3.8591,3.8611,3.8611,3.8611,3.8611,3.8611,3.8611,3.8611,3.8611,3.8611,3.8611,3.8611,3.8611,3.8611,3.8611,3.8611,3.8611,3.8611,3.8611,3.8611,3.8611,3.8611,3.8611,3.8611,3.8611,3.8611,3.8611,3.8611,3.8611,3.8611,3.8611,3.8611,3.8611,3.8611,3.8611,3.8611,3.8611,3.8611,3.8611,3.8611,0.0,0.0,0.0,0.0,0.0,0.0,0.0,0.0,0.0,0.0,0.0,0.0,0.0,0.0,0.0,0.0,0.0,0.0,2.1109,2.1109,2.1109,2.1109,2.1109,2.1109,2.1109,2.1109,2.1109,2.1109,2.1109,2.1109,2.1109,2.1109,2.1109,2.1109,2.1109,2.1109,2.1109,2.1109,2.1109,2.1109,2.1109,2.1109,0.0,0.0,0.0,0.0,0.0,0.0,0.0,0.0,2.4982,2.7867,2.6072,2.7553,3.0092,3.0642,3.124,3.1611,3.0983,3.0473,3.0342,3.1376,3.1923,3.2826,3.5066,3.5586,3.5664,3.5923,3.6133,3.6309,3.6656,3.7129,3.7598,3.7835,3.8281,3.8611,3.8611,3.8611,3.8611,3.8611,3.8611,3.8611,3.8611,3.8611,3.8611,3.8611,3.8611,3.8611,3.8611,3.8611,3.8611,3.8611,3.8611,3.8611,3.8611,3.8611,3.8611,3.8611,3.8611,3.8611,3.8611,3.8611,3.8611,3.8611,3.8611,3.8611,3.8611,3.8611,3.8611,3.8611,3.8611,3.8611,3.8611,3.8611,3.8611,3.8611,0.0,0.0,0.0,0.0,0.0,0.0,0.0,0.0,0.0,0.0,0.0,0.0,0.0,0.0,0.0,0.0,0.0,0.0,2.1109,2.1109,2.1109,2.1109,2.1109,2.1109,2.1109,2.1109,2.1109,2.1109,2.1109,2.1109,2.1109,2.1109,2.1109,2.1109,2.1109,2.1109,2.1109,2.1109,2.1109,2.1109,2.1109,2.1109,0.0,0.0,0.0,0.0,0.0,0.0,0.0,0.0,2.4949,2.7834,2.6039,2.6706,2.8525,3.0254,2.954,2.8591,3.0319,2.9718,2.9127,3.1488,3.2252,3.3059,3.5423,3.5982,3.5982,3.6035,3.6367,3.6714,3.6714,3.7363,3.7894,3.7894,3.8301,3.8611,3.8611,3.8611,3.8611,3.8611,3.8611,3.8611,3.8611,3.8611,3.8611,3.8611,3.8611,3.8611,3.8611,3.8611,3.8611,3.8611,3.8611,3.8611,3.8611,3.8611,3.8611,3.8611,3.8611,3.8611,3.8611,3.8611,3.8611,3.8611,3.8611,3.8611,3.8611,3.8611,3.8611,3.8611,3.8611,3.8611,3.8611,3.8611,3.8611,3.8611,0.0,0.0,0.0,0.0,0.0,0.0,0.0,0.0,0.0,0.0,0.0,0.0,0.0,0.0,0.0,0.0,0.0,0.0,2.1109,2.1109,2.1109,2.1109,2.1109,2.1109,2.1109,2.1109,2.1109,2.1109,2.1109,2.1109,2.1109,2.1109,2.1109,2.1109,2.1109,2.1109,2.1109,2.1109,2.1109,2.1109,2.1109,2.1109,2.1109,0.0,0.0,0.0,0.0,0.0,0.0,0.0,0.0,0.0,2.3822,2.4892,2.6639,2.846,2.8591,2.8591,3.0319,2.8842,2.7301,2.9529,2.9328,2.9584,3.3218,3.5055,3.6079,3.6406,3.6616,3.689,3.7441,3.7718,3.8027,3.834,3.8496,3.8611,3.8611,3.8611,3.8611,3.8611,3.8611,3.8611,3.8611,3.8611,3.8611,3.8611,3.8611,3.8611,3.8611,3.8611,3.8611,3.8611,3.8611,3.8611,3.8611,3.8611,3.8611,3.8611,3.8611,3.8611,3.8611,3.8611,3.8611,3.8611,3.8611,3.8611,3.8611,3.8611,3.8611,3.8611,3.8611,3.8611,3.8611,3.8611,3.8611,3.8611,0.0,0.0,0.0,0.0,0.0,0.0,0.0,0.0,0.0,0.0,0.0,0.0,0.0,0.0,0.0,0.0,0.0,0.0,0.0,2.1109,2.1109,2.1109,2.1109,2.1109,2.1109,2.1109,2.1109,2.1109,2.1109,2.1109,2.1109,2.1109,2.1109,2.1109,2.1109,2.1109,2.1109,2.1109,2.1109,2.1109,2.1109,2.1109,2.1109,0.0,0.0,0.0,0.0,0.0,0.0,0.0,0.0,0.0,2.372,2.4196,2.4959,2.747,2.7205,2.6504,2.8395,2.7058,2.565,2.7779,2.7771,2.8257,3.2298,3.479,3.6348,3.6656,3.6934,3.7324,3.7796,3.8066,3.8262,3.8535,3.8611,3.8611,3.8611,3.8611,3.8611,3.8611,3.8611,3.8611,3.8611,3.8611,3.8611,3.8611,3.8611,3.8611,3.8611,3.8611,3.8611,3.8611,3.8611,3.8611,3.8611,3.8611,3.8611,3.8611,3.8611,3.8611,3.8611,3.8611,3.8611,3.8611,3.8611,3.8611,3.8611,3.8611,3.8611,3.8611,3.8611,3.8611,3.8611,3.8611,3.8611,3.8611,0.0,0.0,0.0,0.0,0.0,0.0,0.0,0.0,0.0,0.0,0.0,0.0,0.0,0.0,0.0,0.0,0.0,0.0,0.0,2.1109,2.1109,2.1109,2.1109,2.1109,2.1109,2.1109,2.1109,2.1109,2.1109,2.1109,2.1109,2.1109,2.1109,2.1109,2.1109,2.1109,2.1109,2.1109,2.1109,2.1109,2.1109,2.1109,2.1109,2.1109,0.0,0.0,0.0,0.0,0.0,0.0,0.0,0.0,2.4757,2.4196,2.3563,2.6939,2.5551,2.3393,2.5613,2.5043,2.432,2.6446,2.738,2.8629,3.193,3.465,3.6545,3.6719,3.7363,3.7894,3.7969,3.8301,3.8611,3.8611,3.8611,3.8611,3.8611,3.8611,3.8611,3.8611,3.8611,3.8611,3.8611,3.8611,3.8611,3.8611,3.8611,3.8611,3.8611,3.8611,3.8611,3.8611,3.8611,3.8611,3.8611,3.8611,3.8611,3.8611,3.8611,3.8611,3.8611,3.8611,3.8611,3.8611,3.8611,3.8611,3.8611,3.8611,3.8611,3.8611,3.8611,3.8611,3.8611,3.8611,3.8611,3.8611,0.0,0.0,0.0,0.0,0.0,0.0,0.0,0.0,0.0,0.0,0.0,0.0,0.0,0.0,0.0,0.0,0.0,0.0,0.0,2.1109,2.1109,2.1109,2.1109,2.1109,2.1109,2.1109,2.1109,2.1109,2.1109,2.1109,2.1109,2.1109,2.1109,2.1109,2.1109,2.1109,2.1109,2.1109,2.1109,2.1109,2.1109,2.1109,2.1109,2.1109,2.1109,0.0,0.0,0.0,0.0,0.0,0.0,0.0,2.3324,2.3201,2.3324,2.545,2.4554,2.3666,2.7095,2.5953,2.4285,2.6339,2.8277,2.9544,2.888,3.1827,3.5199,3.6832,3.7578,3.7991,3.8379,3.8552,3.8611,3.8611,3.8611,3.8611,3.8611,3.8611,3.8611,3.8611,3.8611,3.8611,3.8611,3.8611,3.8611,3.8611,3.8611,3.8611,3.8611,3.8611,3.8611,3.8611,3.8611,3.8611,3.8611,3.8611,3.8611,3.8611,3.8611,3.8611,3.8611,3.8611,3.8611,3.8611,3.8611,3.8611,3.8611,3.8611,3.8611,3.8611,3.8611,3.8611,3.8611,3.8611,3.8611,3.8611,0.0,0.0,0.0,0.0,0.0,0.0,0.0,0.0,0.0,0.0,0.0,0.0,0.0,0.0,0.0,0.0,0.0,0.0,0.0,0.0,2.1109,2.1109,2.1109,2.1109,2.1109,2.1109,2.1109,2.1109,2.1109,2.1109,2.1109,2.1109,2.1109,2.1109,2.1109,2.1109,2.1109,2.1109,2.1109,2.1109,2.1109,2.1109,2.1109,2.1109,2.1109,2.1189,2.1777,0.0,0.0,0.0,0.0,0.0,0.0,0.0,2.3222,2.4979,2.4263,2.3591,2.6683,2.5702,2.4111,2.5422,2.7356,2.8732,2.7882,3.0349,3.3494,3.5696,3.6467,3.7117,3.837,3.8611,3.8611,3.8611,3.8611,3.8611,3.8611,3.8611,3.8611,3.8611,3.8611,3.8611,3.8611,3.8611,3.8611,3.8611,3.8611,3.8611,3.8611,3.8611,3.8611,3.8611,3.8611,3.8611,3.8611,3.8611,3.8611,3.8611,3.8611,3.8611,3.8611,3.8611,3.8611,3.8611,3.8611,3.8611,3.8611,3.8611,3.8611,3.8611,3.8611,3.8611,3.8611,3.8611,3.8611,3.8611,0.0,0.0,0.0,0.0,0.0,0.0,0.0,0.0,0.0,0.0,0.0,0.0,0.0,0.0,0.0,0.0,0.0,0.0,0.0,0.0,0.0,2.1109,2.1109,2.1109,2.1109,2.1109,2.1109,2.1109,2.1109,2.1109,2.1109,2.1109,2.1109,2.1109,2.1109,2.1109,2.1109,2.1109,2.1109,2.1109,2.1109,2.1109,0.0,0.0,0.0,2.1256,2.179,2.2017,2.2138,2.2719,0.0,0.0,0.0,0.0,2.3201,2.4622,2.4249,2.3722,2.547,2.4967,2.4035,2.4479,2.6064,2.7486,2.7445,2.9208,3.1461,3.3472,3.4746,3.6146,3.8226,3.8611,3.8611,3.8611,3.8611,3.8611,3.8611,3.8611,3.8611,3.8611,3.8611,3.8611,3.8611,3.8611,3.8611,3.8611,3.8611,3.8611,3.8611,3.8611,3.8611,3.8611,3.8611,3.8611,3.8611,3.8611,3.8611,3.8611,3.8611,3.8611,3.8611,3.8611,3.8611,3.8611,3.8611,3.8611,3.8611,3.8611,3.8611,3.8611,3.8611,3.8611,3.8611,3.8611,3.8611,3.8611,0.0,0.0,0.0,0.0,0.0,0.0,0.0,0.0,0.0,0.0,0.0,0.0,0.0,0.0,0.0,0.0,0.0,0.0,0.0,0.0,0.0,2.1109,2.1109,2.1109,2.1109,2.1109,2.1109,2.1109,2.1109,2.1109,2.1109,2.1109,2.1109,2.1109,2.1109,2.1109,2.1109,2.1109,2.1109,2.1109,2.1109,0.0,0.0,0.0,0.0,0.0,2.1903,2.2151,2.2418,2.2786,2.2893,0.0,0.0,0.0,2.2962,2.3201,2.4162,2.4989,2.4321,2.4309,2.4506,2.4586,2.6064,2.7122,2.5782,2.7222,2.898,2.9639,3.2826,3.6146,3.8226,3.8611,3.8611,3.8611,3.8611,3.8611,3.8611,3.8611,3.8611,3.8611,3.8611,3.8611,3.8611,3.8611,3.8611,3.8611,3.8611,3.8611,3.8611,3.8611,3.8611,3.8611,3.8611,3.8611,3.8611,3.8611,3.8611,3.8611,3.8611,3.8611,3.8611,3.8611,3.8611,3.8611,3.8611,3.8611,3.8611,3.8611,3.8611,3.8611,3.8611,3.8611,3.8611,3.8611,3.8611,3.8611,0.0,0.0,0.0,0.0,0.0,0.0,0.0,0.0,0.0,0.0,0.0,0.0,0.0,0.0,0.0,0.0,0.0,0.0,0.0,0.0,0.0,2.1109,2.1109,2.1109,2.1109,2.1109,2.1109,2.1109,2.1109,2.1109,2.1109,2.1109,2.1109,2.1109,2.1109,2.1109,2.1109,2.1109,0.0,0.0,0.0,0.0,0.0,0.0,0.0,0.0,0.0,0.0,2.2458,2.28,2.2893,2.2893,2.2893,0.0,0.0,0.0,2.4892,2.5464,2.5295,2.5726,2.5969,2.4881,2.5249,2.5764,2.5399,2.6095,2.724,2.8904,3.0736,3.3041,3.6275,3.6848,3.7235,3.8428,3.8611,3.8611,3.8611,3.8611,3.8611,3.8611,3.8611,3.8611,3.8611,3.8611,3.8611,3.8611,3.8611,3.8611,3.8611,3.8611,3.8611,3.8611,3.8611,3.8611,3.8611,3.8611,3.8611,3.8611,3.8611,3.8611,3.8611,3.8611,3.8611,3.8611,3.8611,3.8611,3.8611,3.8611,3.8611,3.8611,3.8611,3.8611,3.8611,3.8611,3.8611,3.8611,0.0,0.0,0.0,0.0,0.0,0.0,0.0,0.0,0.0,0.0,0.0,0.0,0.0,0.0,0.0,0.0,0.0,0.0,0.0,0.0,0.0,2.1109,2.1109,2.1109,2.1109,2.1109,2.1109,2.1109,2.1109,2.1109,2.1109,2.1109,2.1109,2.1109,2.1109,2.1109,2.1109,0.0,0.0,0.0,0.0,0.0,0.0,0.0,0.0,0.0,0.0,0.0,0.0,2.2827,2.2893,2.2893,2.2893,2.2893,0.0,0.0,0.0,2.5978,2.6839,2.7605,2.7635,2.5212,2.4954,2.5349,2.5391,2.5464,2.6074,2.8105,2.8589,2.9743,3.3305,3.4788,3.6183,3.8263,3.8611,3.8611,3.8611,3.8611,3.8611,3.8611,3.8611,3.8611,3.8611,3.8611,3.8611,3.8611,3.8611,3.8611,3.8611,3.8611,3.8611,3.8611,3.8611,3.8611,3.8611,3.8611,3.8611,3.8611,3.8611,3.8611,3.8611,3.8611,3.8611,3.8611,3.8611,3.8611,3.8611,3.8611,3.8611,3.8611,3.8611,3.8611,3.8611,3.8611,3.8611,3.8611,0.0,0.0,0.0,0.0,0.0,0.0,0.0,0.0,0.0,0.0,0.0,0.0,0.0,2.1109,2.1109,2.1109,2.1109,2.1109,2.1109,2.1109,2.1109,2.1109,2.1109,0.0,2.1109,2.1109,2.1109,2.1109,2.1109,2.1109,2.1109,2.1109,2.1109,2.1109,2.1109,2.1109,2.1109,0.0,0.0,0.0,0.0,0.0,0.0,0.0,0.0,0.0,0.0,0.0,0.0,0.0,2.2893,2.2893,2.2893,2.2893,2.2928,0.0,0.0,0.0,2.8432,2.9521,2.9258,2.5529,2.6005,2.6954,2.5473,2.5317,2.5636,2.6061,2.6395,2.7187,2.9332,3.2889,3.6183,3.8263,3.8611,3.8611,3.8611,3.8611,3.8611,3.8611,3.8611,3.8611,3.8611,3.8611,3.8611,3.8611,3.8611,3.8611,3.8611,3.8611,3.8611,3.8611,3.8611,3.8611,3.8611,3.8611,3.8611,3.8611,3.8611,3.8611,3.8611,3.8611,3.8611,3.8611,3.8611,3.8611,3.8611,3.8611,3.8611,3.8611,3.8611,3.8611,3.8611,3.8611,3.8611,3.8611,0.0,0.0,0.0,0.0,0.0,0.0,0.0,0.0,0.0,0.0,0.0,0.0,0.0,2.1109,2.1109,2.1109,2.1109,2.1109,2.1109,2.1109,2.1109,2.1109,2.1109,2.1109,2.1109,2.1109,2.1109,2.1109,2.1109,2.1109,2.1109,2.1309,2.1422,2.1422,2.1189,2.1109,2.1109,2.1109,0.0,0.0,0.0,0.0,0.0,0.0,0.0,0.0,0.0,0.0,0.0,0.0,0.0,0.0,0.0,0.0,2.3359,2.5618,2.7293,2.8757,3.0411,3.1512,3.1527,2.89,2.7888,2.7413,2.7002,2.6184,2.5598,2.5931,2.6225,2.7004,2.9022,3.1689,3.4244,3.6257,3.7731,3.8611,3.8611,3.8611,3.8611,3.8611,3.8611,3.8611,3.8611,3.8611,3.8611,3.8611,3.8611,3.8611,3.8611,3.8611,3.8611,3.8611,3.8611,3.8611,3.8611,3.8611,3.8611,3.8611,3.8611,3.8611,3.8611,3.8611,3.8611,3.8611,3.8611,3.8611,3.8611,3.8611,3.8611,3.8611,3.8611,3.8611,3.8611,3.8611,3.8611,3.8611,0.0,0.0,0.0,0.0,0.0,0.0,0.0,0.0,0.0,0.0,0.0,0.0,0.0,0.0,2.1216,2.1122,2.1109,2.1109,2.1109,2.1109,2.1109,2.1109,2.1109,2.1109,2.1109,2.1109,2.1162,2.1256,2.1256,2.1309,2.1403,2.1636,2.1729,2.1716,2.1496,2.1403,0.0,0.0,2.151,2.1743,2.1836,0.0,2.2398,0.0,0.0,2.2893,2.2893,0.0,0.0,0.0,0.0,0.0,0.0,0.0,0.0,0.0,2.8776,2.9612,3.0648,3.2489,3.3378,3.0149,2.9401,2.9122,2.803,2.7027,2.6223,2.5899,2.6039,2.6699,2.8125,3.0053,3.2108,3.4169,3.6793,3.8336,3.7658,3.8153,3.8611,3.8611,3.8611,3.8611,3.8611,3.8611,3.8611,3.8611,3.8611,3.8611,3.8611,3.8611,3.8611,3.8611,3.8611,3.8611,3.8611,3.8611,3.8611,3.8611,3.8611,3.8611,3.8611,3.8611,3.8611,3.8611,3.8611,3.8611,3.8611,3.8611,3.8611,3.8611,3.8611,3.8611,3.8611,3.8611,3.8611,3.8611,0.0,0.0,0.0,0.0,0.0,0.0,0.0,0.0,0.0,2.2004,0.0,0.0,0.0,0.0,0.0,2.1162,2.1136,2.1136,2.1136,2.1136,2.1136,2.1136,2.1136,2.1136,2.1136,2.1136,2.1269,2.1596,2.1596,2.1743,2.1991,2.2024,2.2004,2.2004,2.2004,2.205,2.205,2.2024,2.1991,2.2017,2.2311,2.2418,2.2458,2.2786,2.2907,2.2907,2.2907,2.292,0.0,2.292,0.0,0.0,0.0,0.0,0.0,0.0,0.0,0.0,0.0,0.0,0.0,2.9023,3.0414,3.2176,2.8501,2.7781,2.7458,2.5881,2.5784,2.6078,2.6319,2.8022,3.0053,3.201,3.5756,3.7731,3.5775,3.7235,3.8501,3.8501,3.8574,3.8574,3.8501,3.8574,3.8611,3.8611,3.8611,3.8611,3.8611,3.8611,3.8611,3.8611,3.8611,3.8611,3.8611,3.8611,3.8611,3.8611,3.8611,3.8611,3.8611,3.8611,3.8611,3.8611,3.8611,3.8611,3.8611,3.8611,3.8611,3.8611,3.8611,3.8611,3.8611,3.8611,3.8611,3.8611,0.0,0.0,0.0,0.0,0.0,0.0,0.0,0.0,2.2572,0.0,0.0,0.0,2.2004,2.1943,2.1863,2.175,2.175,2.175,2.175,2.175,2.175,2.175,2.175,2.175,2.175,2.175,2.179,2.1903,2.1903,2.1943,2.1991,2.2205,2.2298,2.2311,2.2525,2.2653,2.2626,2.2198,2.2111,2.2311,2.2392,2.2552,2.2786,2.2867,2.3041,2.3193,2.3193,2.334,2.3549,2.3549,2.3549,2.3522,0.0,0.0,0.0,0.0,0.0,0.0,2.91,0.0,0.0,0.0,0.0,0.0,3.1544,2.9689,2.7755,2.7339,2.6565,2.6024,2.6105,2.7919,2.9099,2.8232,3.1497,3.4506,3.5385,3.5998,3.6349,3.6349,3.7695,3.8007,3.6497,3.7731,3.8611,3.8611,3.8611,3.8611,3.8611,3.8611,3.8611,3.8611,3.8611,3.8611,3.8611,3.8611,3.8611,3.8611,3.8611,3.8611,3.8611,3.8611,3.8611,3.8611,3.8611,3.8611,3.8611,3.8611,3.8611,3.8611,3.8611,3.8611,3.8611,3.8611,3.8611,3.8611,0.0,0.0,0.0,0.0,0.0,2.2893,2.2893,2.2893,2.284,0.0,0.0,0.0,2.2205,2.2164,2.2124,2.1991,2.1991,2.1991,2.1991,2.1991,2.1991,2.1991,2.1991,2.1991,2.1991,2.1991,2.2044,2.2164,2.2164,2.2231,2.2385,2.2525,2.2605,2.2605,2.2813,2.2893,2.288,2.2532,2.2479,2.2605,2.2605,2.2746,2.2907,2.3006,2.3166,2.3305,2.3474,2.3621,2.3803,2.3803,2.3803,0.0,0.0,0.0,0.0,0.0,0.0,0.0,0.0,0.0,0.0,3.0716,0.0,0.0,3.0928,2.9812,2.8498,2.7008,2.6126,2.5703,2.5957,2.7079,2.7622,2.6557,2.8413,3.0669,3.2662,3.3683,3.4264,3.4264,3.5329,3.557,3.4376,3.5329,3.6071,3.6071,3.6811,3.7695,3.8538,3.8611,3.8611,3.8611,3.8611,3.8611,3.8611,3.8611,3.8611,3.8611,3.8611,3.8611,3.8611,3.8611,3.8611,3.8611,3.8611,3.8611,3.8611,3.8611,3.8611,3.8611,3.8611,3.8611,3.8611,3.8611,3.8611,3.8611,0.0,0.0,2.2893,2.2893,2.2893,2.2893,2.2893,2.2893,2.2893,0.0,2.2893,2.28,2.2498,2.2472,2.2365,2.2111,2.2084,2.2084,2.2084,2.2084,2.2084,2.2084,2.2084,2.2084,2.2084,2.2084,2.2205,2.2472,2.2472,2.2605,2.2893,2.2893,2.2893,2.2893,0.0,0.0,2.2893,2.2893,2.2893,2.2893,2.2893,2.292,2.2974,2.322,2.3332,2.3425,2.3728,2.387,2.391,2.391,2.391,0.0,0.0,0.0,0.0,0.0,2.6405,0.0,0.0,0.0,0.0,0.0,3.0184,0.0,2.8844,2.9437,2.9731,2.664,2.586,2.5903,2.6438,2.6562,2.6607,2.6673,2.6688,2.7303,2.9138,3.0977,3.2163,3.2163,3.2353,3.2429,3.2201,3.2353,3.2505,3.2505,3.4376,3.6312,3.8153,3.8465,3.8611,3.8611,3.8611,3.8611,3.8611,3.8611,3.8611,3.8611,3.8611,3.8611,3.8611,3.8611,3.8611,3.8611,3.8611,3.8611,3.8611,3.8611,3.8611,3.8611,3.8611,3.8611,3.8611,3.8611,3.8611,3.8611,0.0,0.0,2.2893,2.2893,2.2893,2.2893,2.2893,2.2893,2.2893,2.2893,2.2893,2.288,2.2813,0.0,0.0,2.2733,2.2719,2.2719,2.2719,2.2719,2.2719,2.2719,2.2719,2.2719,2.2719,2.2719,2.276,2.2813,2.2813,2.284,2.2893,2.2893,2.2893,2.2893,2.2893,2.2893,2.2893,2.2893,2.2893,2.2893,2.2893,2.3041,2.3247,2.3265,2.3585,2.4035,2.4102,2.4262,2.4426,2.4426,2.4426,2.4422,2.4195,0.0,0.0,2.4535,0.0,0.0,0.0,0.0,0.0,0.0,2.9202,0.0,3.1895,3.2386,3.2438,3.1771,3.0585,2.9706,2.9849,3.0029,2.9769,2.8518,2.8346,2.8588,2.9288,2.9743,3.0014,3.0014,3.1475,3.1857,3.0168,3.1513,3.2505,3.2505,3.4376,3.5701,3.6072,3.7695,3.8611,3.8611,3.8611,3.8611,3.8611,3.8611,3.8611,3.8611,3.8611,3.8611,3.8611,3.8611,3.8611,3.8611,3.8611,3.8611,3.8611,3.8611,3.8611,3.8611,3.8611,3.8611,3.8611,3.8611,3.8611,3.8611,0.0,2.2893,2.2893,2.2893,2.2893,2.2893,2.2893,2.2893,2.2893,2.2893,2.2893,2.2893,2.2893,0.0,0.0,0.0,0.0,0.0,2.2893,2.2893,2.2893,2.2893,2.2893,2.2893,2.2893,2.2893,2.2893,2.2893,2.2893,2.2893,2.2893,2.2893,2.2893,2.2893,2.2893,2.2893,2.2893,2.2893,2.2987,2.31,2.31,2.3193,2.3319,2.3612,2.3955,2.4222,2.4369,2.4479,2.4599,2.4599,2.4599,2.4572,2.4426,2.4386,2.4386,0.0,2.4386,2.4412,0.0,0.0,0.0,2.5822,2.749,0.0,0.0,3.0378,3.061,3.1562,3.0368,2.9504,3.0605,3.0894,3.0775,3.0106,2.9207,2.8662,2.8864,2.8327,2.7919,2.7919,2.8842,2.906,2.7997,2.8842,2.9875,3.09,3.1879,3.2889,3.3963,3.5942,3.7032,3.7032,3.808,3.8611,3.8611,3.7566,3.7566,3.8574,3.6516,3.609,3.7032,3.7032,3.7032,3.7106,3.8153,3.8611,3.8611,3.8611,3.8611,3.8611,3.8611,3.8611,3.8611,3.8611,3.8611,3.8611,0.0,0.0,2.2893,2.2893,2.2893,2.2893,2.2893,0.0,2.2893,2.2893,2.2893,2.2893,0.0,0.0,0.0,0.0,0.0,0.0,2.2893,2.2893,2.2893,2.2893,2.2893,2.2893,2.2893,2.2893,2.2893,2.2893,2.2893,2.2893,2.2893,2.2893,2.2893,2.2893,2.2893,2.2893,2.2893,2.296,2.31,2.3305,2.3412,2.3465,2.3541,2.4022,2.4235,2.4315,2.4519,2.4599,2.4599,2.4599,2.4599,2.4599,2.4599,2.4599,2.4599,2.4599,0.0,0.0,0.0,0.0,2.4599,2.4599,2.6064,2.7505,0.0,0.0,0.0,3.0451,2.9651,2.9246,3.1422,3.1509,3.1323,3.1499,3.0055,2.8857,2.882,2.7956,2.7061,2.6291,2.6226,2.6239,2.6346,2.636,2.7083,2.8686,2.9177,3.013,3.1819,3.3813,3.5087,3.5497,3.6737,3.7805,3.8574,3.6164,3.5961,3.7951,3.4656,3.3926,3.5497,3.5924,3.6109,3.6183,3.7878,3.8611,3.8611,3.8611,3.8611,3.8611,3.8611,3.8611,3.8611,3.8611,3.8611,3.8611,2.2893,2.2893,0.0,2.2893,2.2893,2.2893,2.2893,0.0,2.2893,2.2893,2.2893,2.2893,2.2893,0.0,0.0,0.0,0.0,2.2893,2.2893,2.2893,2.2893,2.2893,2.2893,2.2893,2.2893,2.2893,2.2893,2.2893,2.2893,2.2893,2.2893,2.2893,2.2893,2.2893,2.2893,2.2893,2.292,2.3153,2.3265,2.3332,2.3888,2.4102,2.4115,2.4182,2.4369,2.4559,2.4586,2.4599,2.4599,2.4599,2.4599,2.4599,2.4599,2.4599,2.4599,2.4599,2.4599,0.0,2.4599,2.4599,2.4599,2.4599,2.6064,2.7505,2.7505,0.0,3.0522,3.2455,0.0,3.3153,3.5043,0.0,0.0,3.2789,3.1511,3.0486,3.0377,3.0534,2.9414,2.6019,2.5611,2.5718,2.6024,2.6279,2.6505,2.6728,2.8374,2.9511,2.9743,3.1727,3.3662,3.5422,3.4001,3.4918,3.8574,3.4769,3.385,3.5849,3.5385,3.5274,3.5571,3.7419,3.8263,3.8263,3.8501,3.8611,3.8611,3.8611,3.8611,3.8611,3.8611,3.8611,3.8611,3.8611,3.8611,3.8611,2.2893,2.2893,0.0,2.2893,2.2893,2.2893,2.2893,0.0,2.2893,2.2893,2.2893,2.2893,2.2893,2.2893,0.0,0.0,0.0,2.2893,2.2893,2.2893,0.0,2.2893,2.2893,2.2893,2.2893,2.2893,2.2893,2.2893,2.2893,2.2893,2.2893,2.2893,2.2893,2.2907,2.3046,2.3126,2.3153,2.346,2.3688,2.3861,2.4102,2.4302,2.4412,2.4412,2.4492,2.4599,2.4599,2.4599,2.4599,2.4599,2.4599,2.4599,2.4599,2.4599,2.4599,2.4599,2.4599,2.4599,2.4599,2.4599,2.4599,2.4599,2.5212,2.6101,2.7252,2.7237,2.7873,3.0892,0.0,0.0,0.0,0.0,0.0,0.0,2.9994,2.8883,2.8811,2.7987,2.7733,2.8701,2.8821,2.8521,2.7693,2.6754,2.6252,2.6373,2.7201,2.7645,2.7645,2.9604,3.1076,3.194,3.2299,3.3339,3.503,3.2146,3.1727,3.3737,3.1328,3.0846,3.1978,3.2852,3.3247,3.3322,3.4544,3.5719,3.6811,3.6811,3.7492,3.8611,3.8611,3.8611,3.8611,3.8611,3.8611,3.8611,2.3148,0.0,0.0,0.0,2.2893,2.2893,2.2893,2.2893,2.2893,2.2893,2.2893,2.2893,2.2893,2.2893,2.2893,0.0,2.2893,2.2893,2.2893,2.2893,2.2893,2.2893,2.2893,0.0,2.2893,2.2893,2.2893,2.2893,2.2893,2.2893,2.2893,2.2893,2.2947,2.3027,2.322,2.3332,2.3474,2.3768,2.4008,2.4209,2.4289,2.4502,2.4743,2.4626,2.4653,2.4756,2.4756,2.4773,2.4839,2.4839,2.4839,2.4839,2.4839,2.4839,2.4826,2.4746,2.4756,2.4706,2.4626,2.4599,2.4599,2.4599,2.4599,2.4954,2.6393,2.5602,2.5529,2.8864,2.8449,0.0,0.0,0.0,2.9638,3.0072,0.0,2.7641,2.8054,2.6975,2.6976,2.9152,2.9476,2.9074,2.7891,2.6688,2.6078,2.6292,2.6346,2.6386,2.6386,2.7762,2.8842,2.9371,3.0323,3.136,3.2505,2.9913,2.9604,3.1628,2.8647,2.7997,2.941,2.9975,3.0246,3.0323,3.1857,3.3322,3.4676,3.4676,3.5905,3.7768,3.7768,3.8117,3.8611,3.8611,3.8611,3.8611,2.3777,2.3295,0.0,0.0,2.2893,2.2893,2.2893,2.2893,2.2893,2.2893,2.2893,2.2893,2.2893,2.2893,2.2893,2.2893,2.2893,2.2893,2.2893,2.2893,2.2893,0.0,0.0,2.2893,0.0,2.2893,2.2893,2.2893,2.2893,2.2893,2.2893,2.2893,2.302,2.3278,2.3292,2.3487,2.3803,2.4062,2.4195,2.4222,2.4479,2.4796,2.5037,2.4706,2.481,2.5064,2.5064,2.5251,2.5478,2.5478,2.5478,2.5478,2.5478,2.5478,2.5424,2.5144,2.5064,2.4997,2.4679,2.4599,2.4599,2.4599,2.4599,2.4636,2.4673,2.4636,2.5175,2.7179,2.7542,2.8068,2.9955,2.8793,0.0,0.0,2.8482,0.0,0.0,2.9919,2.8793,2.5226,2.5103,2.5278,2.5217,2.5702,2.5998,2.6011,2.6265,2.6386,2.6386,2.6465,2.7384,2.9332,2.758,2.8491,3.2467,2.8491,2.7502,2.9487,2.9371,2.9332,2.9487,3.1475,3.2391,3.2391,3.2467,3.2543,3.2619,3.2619,3.3775,3.5589,3.5589,3.6848,3.8611,3.8611,3.8611,3.8611,0.0,0.0,0.0,0.0,2.3496,2.3496,2.3496,2.33,2.3233,2.3469,2.3287,2.3247,2.3482,2.3496,2.3496,2.3496,2.3496,2.3496,2.3496,2.3496,2.3496,2.3496,2.3496,2.3496,0.0,0.0,2.3402,2.3166,2.3402,2.3402,2.318,2.3367,2.3549,2.3634,2.3821,2.3968,2.4075,2.4369,2.4596,2.481,2.5104,2.5277,2.5331,2.5037,2.5104,2.5371,2.5371,2.5424,2.5518,2.5518,2.5518,2.5518,2.5518,2.5518,2.5491,2.5398,2.5371,2.5344,2.5237,2.5077,2.493,2.493,2.4746,2.4599,2.4599,2.4599,2.4784,2.5456,2.5566,2.5786,2.6415,2.5991,0.0,0.0,0.0,0.0,0.0,2.6452,2.6064,2.4747,2.5847,2.6747,2.6949,2.5992,2.5569,2.5971,2.6091,2.6225,2.6373,2.6386,2.6689,2.7384,2.6728,2.7044,2.8452,2.7083,2.6728,2.7423,2.7423,2.7423,2.7423,2.8154,2.8452,2.8452,2.8452,2.9216,3.0438,3.0438,3.165,3.3511,3.3511,3.4769,3.6737,3.808,3.8611,3.8611,2.4075,2.4075,2.4008,2.3843,2.3803,2.3803,2.3803,2.3607,2.3554,2.3777,2.3607,2.3554,2.379,2.3803,2.3803,2.3803,2.3803,2.3803,2.3803,2.3803,2.3803,2.3803,2.3803,2.3803,0.0,0.0,0.0,0.0,2.3674,2.371,2.3487,2.3688,2.3857,2.3928,2.4115,2.4262,2.4382,2.4639,2.4903,2.5104,2.5398,2.5571,2.5651,2.5503,2.5543,2.5678,2.5678,2.5732,2.5825,2.5825,2.5825,2.5825,2.5825,2.5825,2.5798,2.5705,2.5678,2.5651,2.5545,2.5371,2.5237,2.5237,2.509,2.4879,2.4823,2.4796,2.4733,2.4626,2.4599,2.4599,2.4599,2.4599,0.0,0.0,0.0,0.0,0.0,2.4599,2.4599,2.4599,2.5712,2.6552,2.6717,2.5744,2.5315,2.5797,2.5931,2.6118,2.6373,2.6386,2.6386,2.6386,2.6386,2.6386,2.6386,2.6386,2.6386,2.6386,2.6386,2.6386,2.6386,2.6386,2.6386,2.6386,2.6386,2.7162,2.8335,2.8335,2.9565,3.1475,3.2201,3.3285,3.4676,3.6737,3.7951,3.8611,2.4599,2.4599,2.4426,2.395,2.3843,2.3843,2.3843,2.383,2.383,2.3843,2.383,2.383,2.3843,2.3843,2.3843,2.3843,2.3843,2.3843,2.3843,2.3843,2.3843,2.3843,2.3843,2.3843,2.3843,0.0,0.0,0.0,2.3843,2.3843,2.383,2.3843,2.3968,2.4222,2.4222,2.4382,2.4639,2.4957,2.5141,2.5181,2.5438,2.5732,2.6011,2.6011,2.6011,2.6011,2.6011,2.6198,2.6386,2.6386,2.6386,2.6386,2.6386,2.6386,2.6333,2.6091,2.6011,2.5957,2.5638,2.5545,2.5531,2.5531,2.5518,2.5438,2.5157,2.5104,2.5024,2.4679,2.4626,2.4613,2.4599,2.4599,2.4599,0.0,0.0,0.0,2.4599,2.4599,2.4599,2.4599,2.4599,2.4599,2.4599,2.489,2.5184,2.5491,2.581,2.6105,2.6373,2.6386,2.6386,2.6386,2.6386,2.6386,2.6386,2.6386,2.6386,2.6386,2.6386,2.6386,2.6386,2.6386,2.6386,2.6386,2.6386,2.6386,2.6386,2.6386,2.7541,2.9449,3.1437,3.2277,3.2603,3.4714,3.6811,3.8611,2.4599,2.4599,2.4559,2.4399,2.4372,2.4372,2.4372,2.4235,2.4168,2.4382,2.4222,2.4168,2.4359,2.4372,2.4372,2.4372,2.4372,2.4372,2.4372,2.4372,2.4372,2.4372,2.4372,2.4372,2.4372,2.4372,2.4302,2.4088,0.0,2.4302,2.4102,2.4315,2.4412,2.4492,2.4492,2.4653,2.497,2.505,2.5369,2.5797,2.6052,2.6213,2.6319,2.6319,2.6319,2.6319,2.6319,2.6319,2.6386,2.6386,2.6386,2.6386,2.6386,2.6386,2.6373,2.6346,2.6319,2.6266,2.6186,2.6012,2.5877,2.5877,2.5678,2.5491,2.5424,2.5398,2.5317,2.5024,2.497,2.4903,2.4639,2.4599,2.4599,0.0,0.0,0.0,2.4599,2.4599,2.4599,2.4599,2.4599,2.4599,2.4599,2.4666,2.4919,2.5478,2.5585,2.5852,2.636,2.6386,2.6386,2.6386,2.6386,2.6386,2.6386,2.6386,2.6386,2.6386,2.6386,2.6386,2.6386,2.6386,2.6386,2.6386,2.6386,2.6386,2.6386,2.6386,2.6689,2.7227,2.7776,2.8881,3.0631,3.4206,3.683,3.8611,2.4599,2.4599,2.4639,2.481,2.4823,2.4783,2.4613,2.4466,2.4502,2.4796,2.469,2.4703,2.4946,2.4986,2.4986,2.4986,2.4986,2.4986,2.4986,2.4986,2.4986,2.4986,2.4986,2.4957,2.4836,2.4823,0.0,2.4359,0.0,2.4519,2.4396,2.4519,2.4599,2.4613,2.4733,2.493,2.5141,2.5396,2.577,2.6198,2.6319,2.6386,0.0,2.6386,2.6386,2.6386,2.6386,2.6386,2.6386,2.6386,2.6386,2.6386,2.6386,2.6386,2.6386,2.6386,2.6386,2.6386,2.6386,2.6266,2.6185,2.6185,2.6012,2.5865,2.5732,2.5705,2.5625,2.5331,2.5264,2.5184,2.4877,2.4823,2.4783,2.4626,0.0,0.0,2.4599,2.4599,2.4599,2.4599,2.4599,2.4599,2.4599,2.4599,2.4786,2.5291,2.5438,2.5718,2.6212,2.6319,2.6386,2.6386,2.6386,2.6386,2.6386,2.6386,2.6386,2.6386,2.6386,2.6386,2.6386,2.6386,2.6386,2.6386,2.6386,2.6386,2.6386,2.6386,2.6386,2.6386,2.6386,2.8193,3.1054,3.3339,3.5496,3.7235,2.4706,2.4706,2.4799,2.509,2.4904,2.4737,2.4709,2.4706,2.4813,2.5104,2.5144,2.5237,2.5478,2.5518,2.5518,2.5518,2.5518,2.5518,2.5518,2.5518,2.5518,2.5518,2.5518,2.5398,2.5144,2.5144,2.501,0.0,0.0,2.4706,2.4706,2.4706,2.4706,2.4719,2.5024,2.5195,2.5262,2.5824,2.6198,2.6386,2.6386,2.6386,2.6386,2.6386,2.6386,2.6386,2.6386,2.6386,2.6386,2.6386,2.6386,2.6386,2.6386,2.6386,2.6386,2.6386,2.6386,2.6386,2.6386,2.6386,2.6386,2.6386,2.6386,2.6319,2.6118,2.6051,2.5971,2.5625,2.5571,2.5478,2.5197,2.5104,2.4983,2.4653,2.4599,2.4599,2.4599,2.4599,2.4599,2.4599,2.4599,0.0,2.4599,2.4599,2.4756,2.5064,2.5344,2.5638,2.5984,2.6265,2.6386,2.6386,2.6386,2.6386,2.6386,2.6386,2.6386,2.6386,2.6386,2.6386,2.6386,2.6386,2.6386,2.6386,2.6386,2.6386,2.6386,2.6386,2.6386,2.6386,2.6386,2.8569,3.1705,3.1705,3.3133,3.5162,2.5358,2.5358,2.5371,2.5424,2.3946,2.3346,2.5091,2.5358,2.5371,2.5424,2.5438,2.5451,2.5504,2.5518,2.5518,2.5518,2.5518,2.5518,2.5518,2.5518,2.5518,2.5518,2.5518,2.5491,2.5438,2.5438,2.5411,0.0,2.5358,2.5358,2.5358,2.5358,2.5358,2.532,2.5411,2.5571,2.5864,2.6212,2.6346,2.6386,2.6386,2.6386,2.6386,2.6386,2.6386,2.6386,2.6386,2.6386,2.6386,2.6386,2.6386,2.6386,2.6386,2.6386,2.6386,2.6386,2.6386,2.6386,2.6386,2.6386,2.6386,2.6386,2.6386,2.6373,2.6319,2.6319,2.6265,2.5984,2.5917,2.5824,2.5491,2.5237,2.4983,2.4653,2.4599,2.4599,2.4599,2.4599,2.4599,2.4599,2.4599,2.4599,2.4599,2.4599,2.4756,2.5064,2.5344,2.5638,2.5984,2.6265,2.6386,2.6386,2.6386,2.6386,2.6386,2.6386,2.6386,2.6386,2.6386,2.6386,2.6386,2.6386,2.6386,2.6386,2.6386,2.6386,2.6386,2.6386,2.6386,2.6386,2.6386,2.6847,2.7462,2.7462,2.9836,3.3528,2.5518,2.5518,2.52,2.4211,2.4158,2.4247,2.4268,2.5244,2.5919,2.5758,2.5745,2.5798,2.5945,2.5972,2.5972,2.5972,2.5972,2.5972,2.5972,2.5972,2.5972,2.5972,2.5972,2.5892,2.5745,2.5745,2.5665,2.5518,2.5518,2.5518,2.5518,2.5518,2.5518,2.5518,2.5678,2.5944,2.6225,2.6333,2.6386,2.6386,2.6386,2.6386,2.6386,2.6386,2.6386,2.6386,2.6386,2.6386,2.6386,2.6386,2.6386,2.6386,2.6386,2.6386,2.6386,2.6386,2.6386,2.6386,2.6386,2.6386,2.6386,2.6386,2.6386,2.6386,2.6386,2.6386,2.6346,2.6252,2.6225,2.6131,2.5798,2.5422,2.5037,2.489,2.4693,2.4599,2.4599,2.4599,2.4599,2.4599,2.4599,2.4599,2.4599,2.4599,2.4653,2.4836,2.5264,2.5571,2.5718,2.6146,2.6386,2.6386,2.6386,2.6386,2.6386,2.6386,2.6386,2.6386,2.6386,2.6386,2.6386,2.6386,2.6386,2.6386,2.6386,2.6386,2.6386,2.6386,2.6386,2.6386,2.6386,2.6386,2.6544,2.758,2.9216,3.1306,2.5062,2.4984,2.4507,2.3048,2.3845,2.4535,2.396,2.4968,2.5885,2.6053,2.6091,2.6172,2.636,2.6386,2.6386,2.6386,2.6386,2.6386,2.6386,2.6386,2.6386,2.6386,2.6386,2.6279,2.6091,2.6091,2.5971,2.5705,2.5705,2.5705,2.5705,2.5705,2.5705,2.5705,2.5984,2.6212,2.6386,2.6386,2.6386,2.6386,2.6386,2.6386,2.6386,2.6386,2.6386,2.6386,2.6386,2.6386,2.6386,2.6386,2.6386,2.6386,2.6386,2.6386,2.6386,2.6386,2.6386,2.6386,2.6386,2.6386,2.6386,2.6386,2.6386,2.6386,2.6386,2.6386,2.6386,2.6386,2.6386,2.6346,2.6051,2.561,2.5288,2.5184,2.493,2.4693,2.4693,2.4639,2.4599,2.4599,2.4599,2.4599,2.4599,2.4599,2.4626,2.4693,2.5211,2.5518,2.5518,2.6066,2.6386,2.6386,2.6386,2.6386,2.6386,2.6386,2.6386,2.6386,2.6386,2.6386,2.6386,2.6386,2.6386,2.6386,2.6386,2.6386,2.6386,2.6386,2.6386,2.6386,2.6386,2.6386,2.6584,2.8179,2.9022,2.9627,2.3707,2.3309,2.3281,2.3093,2.1611,2.182,2.5837,2.4976,2.4461,2.6136,2.6346,2.636,2.6386,2.6386,2.6386,2.6386,2.6386,2.6386,2.6386,2.6386,2.6386,2.6386,2.6386,2.6373,2.6346,2.6346,2.6333,2.6306,2.6306,2.6306,2.6306,2.6306,2.6306,2.6306,2.6333,2.636,2.6386,2.6386,2.6386,2.6386,2.6386,2.6386,2.6386,2.6386,2.6386,2.6386,2.6386,2.6386,2.6386,2.6386,2.6386,2.6386,2.6386,2.6386,2.6386,2.6386,2.6386,2.6386,2.6386,2.6386,2.6386,2.6386,2.6386,2.6386,2.6386,2.6386,2.6386,2.6386,2.6386,2.6346,2.6051,2.5957,2.5824,2.5518,2.5224,2.5037,2.5037,2.481,2.4599,2.4599,2.4599,2.4599,2.4599,2.4599,2.4743,2.5024,2.5331,2.5518,2.5518,2.6066,2.6386,2.6386,2.6386,2.6386,2.6386,2.6386,2.6386,2.6386,2.6386,2.6386,2.6386,2.6386,2.6386,2.6386,2.6386,2.6386,2.6386,2.6386,2.6386,2.6386,2.6386,2.6386,2.6426,2.6623,2.7841,2.9449,2.1588,2.1415,2.1456,2.1568,2.1949,2.2897,2.4817,2.5508,2.6094,2.684,2.6961,2.6961,2.6961,2.676,2.6653,2.6653,2.6493,2.6386,2.6386,2.6386,2.6386,2.6386,2.6386,2.6386,2.6386,2.6386,2.6386,2.6386,2.6386,2.6386,2.6386,2.6386,2.6386,2.6386,2.6386,2.6386,2.6386,2.6386,2.6386,2.6386,2.6386,2.6386,2.6386,2.6386,2.6386,2.6386,2.6386,2.6386,2.6386,2.6386,2.6386,2.6386,2.6386,2.6386,2.6386,2.6386,2.6386,2.6386,2.6386,2.6386,2.6386,2.6386,2.6386,2.6386,2.6386,2.6386,2.6386,2.6386,2.6386,2.636,2.6279,2.6118,2.5957,2.5837,2.5531,2.5344,2.5344,2.5237,2.5119,2.5119,2.5119,2.5119,2.5119,2.5119,2.5211,2.5331,2.5451,2.5585,2.581,2.6172,2.6386,2.6386,2.6386,2.6386,2.6386,2.6386,2.6386,2.6386,2.6386,2.6386,2.6386,2.6386,2.6386,2.6386,2.6386,2.6386,2.6386,2.6386,2.6386,2.6386,2.6386,2.6386,2.6386,2.6386,2.6925,2.7619,1.9445,1.9893,2.0428,2.0596,2.24,2.4146,2.4975,2.6416,2.7469,2.755,2.7563,2.7496,2.7322,2.7081,2.6947,2.6947,2.676,2.6653,2.6653,2.6653,2.6653,2.6653,2.656,2.652,2.652,2.6426,2.6386,2.6386,2.6386,2.6386,2.6386,2.6386,2.6386,2.6386,2.6386,2.6386,2.6386,2.6386,2.6386,2.6386,2.6386,2.6386,2.6386,2.6386,2.6386,2.6386,2.6386,2.6386,2.6386,2.6386,2.6386,2.6386,2.6386,2.6386,2.6386,2.6386,2.6386,2.6386,2.6386,2.6386,2.6386,2.6386,2.6386,2.6386,2.6386,2.6386,2.6386,2.6386,2.6386,2.6386,2.6386,2.6265,2.6118,2.6118,2.5838,2.5638,2.5638,2.5571,2.5518,2.5518,2.5518,2.5518,2.5518,2.5518,2.5545,2.5638,2.5638,2.5732,2.5984,2.6265,2.6386,2.6386,2.6386,2.6386,2.6386,2.6386,2.6386,2.6386,2.6386,2.6386,2.6386,2.6386,2.6386,2.6386,2.6386,2.6386,2.6386,2.6386,2.6386,2.6386,2.6386,2.6386,2.6386,2.6386,2.6386,2.6386,1.7552,1.9011,2.0596,2.0596,2.2483,2.4839,2.7269,2.7696,2.7802,2.8138,2.8179,2.7951,2.7376,2.7309,2.7309,2.7309,2.7296,2.7296,2.7296,2.7296,2.7296,2.7296,2.6974,2.6814,2.6814,2.6533,2.6386,2.6386,2.6386,2.6386,2.6386,2.6386,2.6386,2.6386,2.6386,2.6386,2.6386,2.6386,2.6386,2.6386,2.6386,2.6386,2.6386,2.6386,2.6386,2.6386,2.6386,2.6386,2.6386,2.6386,2.6386,2.6386,2.6386,2.6386,2.6386,2.6386,2.6386,2.6386,2.6386,2.6386,2.6386,2.6386,2.6386,2.6386,2.6386,2.6386,2.6386,2.6386,2.6386,2.6386,2.6386,2.6386,2.6386,2.6386,2.6185,2.5998,2.5998,2.5692,2.5518,2.5518,2.5518,2.5518,2.5518,2.5518,2.5638,2.5971,2.5998,2.5998,2.5998,2.6265,2.6386,2.6386,2.6386,2.6386,2.6386,2.6386,2.6386,2.6386,2.6386,2.6386,2.6386,2.6386,2.6386,2.6386,2.6386,2.6386,2.6386,2.6386,2.6386,2.6386,2.6386,2.6386,2.6386,2.6386,2.6386,2.6386,1.53,1.5794,1.6822,1.8398,1.9293,2.0558,2.2909,2.4646,2.5713,2.5799,2.7194,2.8112,2.7924,2.7724,2.7562,2.7562,2.7416,2.7309,2.7309,2.7309,2.7309,2.7309,2.7215,2.7121,2.7121,2.7081,2.7028,2.7028,2.7028,2.7028,2.7028,2.7028,2.7028,2.7028,2.7028,2.7028,2.7028,2.7028,2.7028,2.7028,2.7028,2.7028,2.7028,2.7028,2.7028,2.7028,2.7028,2.6854,2.668,2.668,2.6547,2.6386,2.6386,2.6386,2.6386,2.6386,2.6386,2.6386,2.6386,2.6386,2.6386,2.6386,2.6386,2.6386,2.6386,2.6386,2.6386,2.6386,2.6386,2.6386,2.6386,2.6386,2.6386,2.6386,2.6319,2.6253,2.6253,2.6172,2.6106,2.6106,2.6106,2.6106,2.6106,2.6106,2.6146,2.6239,2.6253,2.6253,2.6253,2.6333,2.6386,2.6386,2.6386,2.6386,2.6386,2.6386,2.6386,2.6386,2.6386,2.6386,2.6386,2.6386,2.6386,2.6386,2.6386,2.6386,2.6386,2.6386,2.6386,2.6386,2.6386,2.6386,2.6386,2.6386,2.652,2.668,1.4278,1.4992,1.6078,1.7545,1.8497,1.9575,2.0962,2.3169,2.4691,2.4691,2.6758,2.8179,2.8179,2.8018,2.7911,2.7911,2.7737,2.763,2.763,2.763,2.763,2.763,2.7523,2.7469,2.7469,2.7362,2.7309,2.7309,2.7309,2.7309,2.7309,2.7309,2.7309,2.7309,2.7309,2.7309,2.7309,2.7309,2.7309,2.7309,2.7309,2.7309,2.7309,2.7309,2.7309,2.7309,2.7309,2.7188,2.6987,2.6987,2.68,2.6547,2.6547,2.648,2.6386,2.6386,2.6386,2.6386,2.6386,2.6386,2.6386,2.6386,2.6386,2.6386,2.6386,2.6386,2.6386,2.6386,2.6386,2.6386,2.6386,2.6386,2.6386,2.6386,2.6386,2.6386,2.6386,2.6386,2.6386,2.6386,2.6386,2.6386,2.6386,2.6386,2.6386,2.6386,2.6386,2.6386,2.6386,2.6386,2.6386,2.6386,2.6386,2.6386,2.6386,2.6386,2.6386,2.6386,2.6386,2.6386,2.6386,2.6386,2.6386,2.6386,2.6386,2.6386,2.6386,2.6386,2.6386,2.6386,2.6386,2.6386,2.64,2.6507,2.6667,2.6841,1.4299,1.6078,1.7545,1.7545,1.9324,2.0789,2.0962,2.2955,2.452,2.4691,2.6758,2.8179,2.8179,2.8179,2.8179,2.8179,2.8179,2.8179,2.8179,2.8179,2.8179,2.8179,2.7924,2.7722,2.7722,2.751,2.7362,2.7362,2.7362,2.7362,2.7362,2.7362,2.7362,2.7362,2.7362,2.7362,2.7362,2.7362,2.7362,2.7362,2.7362,2.7362,2.7362,2.7362,2.7362,2.7362,2.7362,2.7349,2.7336,2.7336,2.7094,2.6854,2.6827,2.664,2.6413,2.64,2.6386,2.6386,2.6386,2.6386,2.6386,2.6386,2.6386,2.6386,2.6386,2.6386,2.6386,2.6386,2.6386,2.6386,2.6386,2.6386,2.6386,2.6386,2.6386,2.6386,2.6386,2.6386,2.6386,2.6386,2.6386,2.6386,2.6386,2.6386,2.6386,2.6386,2.6386,2.6386,2.6386,2.6386,2.6386,2.6386,2.6386,2.6386,2.6386,2.6386,2.6386,2.6386,2.6386,2.6386,2.6386,2.6386,2.6386,2.6386,2.6386,2.6386,2.6386,2.6386,2.6386,2.6386,2.6386,2.6386,2.6426,2.6707,2.68,2.6894,1.4299,1.4734,1.5124,1.5124,1.5557,1.6553,1.8322,2.0572,2.2654,2.4477,2.6758,2.8179,2.8179,2.8179,2.8179,2.8179,2.8179,2.8179,2.8179,2.8179,2.8179,2.8179,2.8112,2.8085,2.8085,2.8018,2.7978,2.7978,2.7978,2.7978,2.7978,2.7978,2.7978,2.7978,2.7978,2.7978,2.7978,2.7978,2.7978,2.7978,2.7978,2.7978,2.7978,2.7978,2.7978,2.7978,2.7978,2.7831,2.7602,2.7602,2.7402,2.7121,2.6894,2.6774,2.668,2.6453,2.6386,2.6386,2.6386,2.6386,2.6386,2.6386,2.6386,2.6386,2.6386,2.6386,2.6386,2.6386,2.6386,2.6386,2.6386,2.6386,2.6386,2.6386,2.6386,2.6386,2.6386,2.6386,2.6386,2.6386,2.6386,2.6386,2.6386,2.6386,2.6386,2.6386,2.6386,2.6386,2.6386,2.6386,2.6386,2.6386,2.6386,2.6386,2.6386,2.6386,2.6386,2.6386,2.6386,2.6386,2.6386,2.6386,2.6386,2.6386,2.6386,2.6386,2.6386,2.6386,2.6386,2.6386,2.6386,2.6386,2.6426,2.6707,2.6961,2.7201,1.4299,1.4299,1.4299,1.4299,1.4299,1.508,1.7457,1.9749,2.2041,2.438,2.6758,2.8179,2.8179,2.8179,2.8179,2.8179,2.8179,2.8179,2.8179,2.8179,2.8179,2.8179,2.8179,2.8179,2.8179,2.8179,2.8179,2.8179,2.8179,2.8179,2.8179,2.8179,2.8179,2.8179,2.8179,2.8179,2.8179,2.8179,2.8179,2.8179,2.8179,2.8179,2.8179,2.8179,2.8179,2.8179,2.8179,2.8085,2.7938,2.7938,2.775,2.7428,2.7268,2.7041,2.6787,2.664,2.6493,2.6386,2.6386,2.6386,2.6386,2.6386,2.6386,2.6386,2.6386,2.6386,2.6386,2.6386,2.6386,2.6386,2.6386,2.6386,2.6386,2.6386,2.6386,2.6386,2.6386,2.6386,2.6386,2.6386,2.6386,2.6386,2.6386,2.6386,2.6386,2.6386,2.6386,2.6386,2.6386,2.6386,2.6386,2.6386,2.6386,2.6386,2.6386,2.6386,2.6386,2.6386,2.6386,2.6386,2.6386,2.6386,2.6386,2.6386,2.6386,2.6386,2.6386,2.6386,2.6386,2.6386,2.6386,2.6466,2.6627,2.6921,2.7215,2.755,1.4299,1.4299,1.4299,1.4299,1.4299,1.508,1.7457,1.9749,2.2041,2.438,2.6758,2.8179,2.8179,2.8179,2.8179,2.8179,2.8179,2.8179,2.8179,2.8179,2.8179,2.8179,2.8179,2.8179,2.8179,2.8179,2.8179,2.8179,2.8179,2.8179,2.8179,2.8179,2.8179,2.8179,2.8179,2.8179,2.8179,2.8179,2.8179,2.8179,2.8179,2.8179,2.8179,2.8179,2.8179,2.8179,2.8179,2.8179,2.8179,2.8179,2.8018,2.7762,2.7709,2.7321,2.6881,2.68,2.6613,2.6386,2.6386,2.6386,2.6386,2.6386,2.6386,2.6386,2.6386,2.6386,2.6386,2.6386,2.6386,2.6386,2.6386,2.6386,2.6386,2.6386,2.6386,2.6386,2.6386,2.6386,2.6386,2.6386,2.6386,2.6386,2.6386,2.6386,2.6386,2.6386,2.6386,2.6386,2.6386,2.6386,2.6386,2.6386,2.6386,2.6386,2.6386,2.6386,2.6386,2.6386,2.6386,2.6386,2.6386,2.6386,2.6386,2.6386,2.6386,2.6386,2.6386,2.6386,2.6386,2.6386,2.6386,2.656,2.6854,2.7202,2.7455,2.7749,1.4299,1.4299,1.4299,1.4299,1.4299,1.508,1.7457,1.9749,2.2041,2.438,2.6758,2.8179,2.8179,2.8179,2.8179,2.8179,2.8179,2.8179,2.8179,2.8179,2.8179,2.8179,2.8179,2.8179,2.8179,2.8179,2.8179,2.8179,2.8179,2.8179,2.8179,2.8179,2.8179,2.8179,2.8179,2.8179,2.8179,2.8179,2.8179,2.8179,2.8179,2.8179,2.8179,2.8179,2.8179,2.8179,2.8179,2.8179,2.8179,2.8179,2.8152,2.8072,2.7776,2.7468,2.7188,2.6894,2.6613,2.6386,2.6386,2.6386,2.6386,2.6386,2.6386,2.6386,2.6386,2.6386,2.6386,2.6386,2.6386,2.6386,2.6386,2.6386,2.6386,2.6386,2.6386,2.6386,2.6386,2.6386,2.6386,2.6386,2.6386,2.6386,2.6386,2.6386,2.6386,2.6386,2.6386,2.6386,2.6386,2.6386,2.6386,2.6386,2.6386,2.6386,2.6386,2.6386,2.6386,2.6386,2.6386,2.6386,2.6386,2.6386,2.6386,2.6386,2.6386,2.6386,2.6386,2.6386,2.6386,2.6386,2.6386,2.656,2.6854,2.7202,2.7455,2.7749,1.4299,1.4299,1.4299,1.4299,1.4299,1.508,1.7457,1.9749,2.2041,2.438,2.6758,2.8179,2.8179,2.8179,2.8179,2.8179,2.8179,2.8179,2.8179,2.8179,2.8179,2.8179,2.8179,2.8179,2.8179,2.8179,2.8179,2.8179,2.8179,2.8179,2.8179,2.8179,2.8179,2.8179,2.8179,2.8179,2.8179,2.8179,2.8179,2.8179,2.8179,2.8179,2.8179,2.8179,2.8179,2.8179,2.8179,2.8179,2.8179,2.8179,2.8179,2.8165,2.8018,2.767,2.7282,2.7108,2.6747,2.6386,2.6386,2.6386,2.6386,2.6386,2.6386,2.6386,2.6386,2.6386,2.6386,2.6386,2.6386,2.6386,2.6386,2.6386,2.6386,2.6386,2.6386,2.6386,2.6386,2.6386,2.6386,2.6386,2.6386,2.6386,2.6386,2.6386,2.6386,2.6386,2.6386,2.6386,2.6386,2.6386,2.6386,2.6386,2.6386,2.6386,2.6386,2.6386,2.6386,2.6386,2.6386,2.6386,2.6386,2.6386,2.6386,2.6386,2.6386,2.6386,2.6386,2.6386,2.6386,2.64,2.656,2.68,2.7094,2.7388,2.7724,2.8005,1.4299,1.4299,1.4299,1.4299,1.4299,1.508,1.7457,1.9749,2.2041,2.438,2.6758,2.8179,2.8179,2.8179,2.8179,2.8179,2.8179,2.8179,2.8179,2.8179,2.8179,2.8179,2.8179,2.8179,2.8179,2.8179,2.8179,2.8179,2.8179,2.8179,2.8179,2.8179,2.8179,2.8179,2.8179,2.8179,2.8179,2.8179,2.8179,2.8179,2.8179,2.8179,2.8179,2.8179,2.8179,2.8179,2.8179,2.8179,2.8179,2.8179,2.8179,2.8179,2.8179,2.7777,2.7309,2.7309,2.6894,2.6386,2.6386,2.6386,2.6386,2.6386,2.6386,2.6386,2.6386,2.6386,2.6386,2.6386,2.6386,2.6386,2.6386,2.6386,2.6386,2.6386,2.6386,2.6386,2.6386,2.6386,2.6386,2.6386,2.6386,2.6386,2.6386,2.6386,2.6386,2.6386,2.6386,2.6386,2.6386,2.6386,2.6386,2.6386,2.6386,2.6386,2.6386,2.6386,2.6386,2.6386,2.6386,2.6386,2.6386,2.6386,2.6386,2.6386,2.6386,2.6386,2.6386,2.6386,2.6386,2.6413,2.664,2.6947,2.7336,2.7509,2.7871,2.8179,1.4299,1.4299,1.4299,1.4299,1.4299,1.508,1.7457,1.9749,2.2041,2.438,2.6758,2.8179,2.8179,2.8179,2.8179,2.8179,2.8179,2.8179,2.8179,2.8179,2.8179,2.8179,2.8179,2.8179,2.8179,2.8179,2.8179,2.8179,2.8179,2.8179,2.8179,2.8179,2.8179,2.8179,2.8179,2.8179,2.8179,2.8179,2.8179,2.8179,2.8179,2.8179,2.8179,2.8179,2.8179,2.8179,2.8179,2.8179,2.8179,2.8179,2.8179,2.8179,2.8179,2.7777,2.7309,2.7309,2.6894,2.6386,2.6386,2.6386,2.6386,2.6386,2.6386,2.6386,2.6386,2.6386,2.6386,2.6386,2.6386,2.6386,2.6386,2.6386,2.6386,2.6386,2.6386,2.6386,2.6386,2.6386,2.6386,2.6386,2.6386,2.6386,2.6386,2.6386,2.6386,2.6386,2.6386,2.6386,2.6386,2.6386,2.6386,2.6386,2.6386,2.6386,2.6386,2.6386,2.6386,2.6386,2.6386,2.6386,2.6386,2.6386,2.6386,2.6386,2.6386,2.6386,2.6386,2.6386,2.6386,2.6386,2.6413,2.6814,2.7309,2.7336,2.7697,2.8179,1.4299,1.4299,1.4299,1.4299,1.4299,1.508,1.7457,1.9749,2.2041,2.438,2.6758,2.8179,2.8179,2.8179,2.8179,2.8179,2.8179,2.8179,2.8179,2.8179,2.8179,2.8179,2.8179,2.8179,2.8179,2.8179,2.8179,2.8179,2.8179,2.8179,2.8179,2.8179,2.8179,2.8179,2.8179,2.8179,2.8179,2.8179,2.8179,2.8179,2.8179,2.8179,2.8179,2.8179,2.8179,2.8179,2.8179,2.8179,2.8179,2.8179,2.8179,2.8179,2.8179,2.7777,2.7229,2.6867,2.656,2.6386,2.6386,2.6386,2.6386,2.6386,2.6386,2.6386,2.6386,2.6386,2.6386,2.6386,2.6386,2.6386,2.6386,2.6386,2.6386,2.6386,2.6386,2.6386,2.6386,2.6386,2.6386,2.6386,2.6386,2.6386,2.6386,2.6386,2.6386,2.6386,2.6386,2.6386,2.6386,2.6386,2.6386,2.6386,2.6386,2.6386,2.6386,2.6386,2.6386,2.6386,2.6386,2.6386,2.6386,2.6386,2.6386,2.6386,2.6386,2.6386,2.6386,2.6386,2.6386,2.6413,2.6587,2.6907,2.7322,2.751,2.7831,2.8179,1.4299,1.4299,1.4299,1.4299,1.4299,1.508,1.7457,1.9749,2.2041,2.438,2.6758,2.8179,2.8179,2.8179,2.8179,2.8179,2.8179,2.8179,2.8179,2.8179,2.8179,2.8179,2.8179,2.8179,2.8179,2.8179,2.8179,2.8179,2.8179,2.8179,2.8179,2.8179,2.8179,2.8179,2.8179,2.8179,2.8179,2.8179,2.8179,2.8179,2.8179,2.8179,2.8179,2.8179,2.8179,2.8179,2.8179,2.8179,2.8179,2.8179,2.8179,2.8179,2.8179,2.7777,2.7188,2.656,2.6386,2.6386,2.6386,2.6386,2.6386,2.6386,2.6386,2.6386,2.6386,2.6386,2.6386,2.6386,2.6386,2.6386,2.6386,2.6386,2.6386,2.6386,2.6386,2.6386,2.6386,2.6386,2.6386,2.6386,2.6386,2.6386,2.6386,2.6386,2.6386,2.6386,2.6386,2.6386,2.6386,2.6386,2.6386,2.6386,2.6386,2.6386,2.6386,2.6386,2.6386,2.6386,2.6386,2.6386,2.6386,2.6386,2.6386,2.6386,2.6386,2.6386,2.6386,2.6386,2.6386,2.6413,2.6613,2.6867,2.7161,2.7455,2.7791,2.8058,1.4299,1.4299,1.4299,1.4299,1.4299,1.508,1.7457,1.9749,2.2041,2.438,2.6758,2.8179,2.8179,2.8179,2.8179,2.8179,2.8179,2.8179,2.8179,2.8179,2.8179,2.8179,2.8179,2.8179,2.8179,2.8179,2.8179,2.8179,2.8179,2.8179,2.8179,2.8179,2.8179,2.8179,2.8179,2.8179,2.8179,2.8179,2.8179,2.8179,2.8179,2.8179,2.8179,2.8179,2.8179,2.8179,2.8179,2.8179,2.8179,2.8179,2.8179,2.8179,2.8179,2.7777,2.7188,2.656,2.6386,2.6386,2.6386,2.6386,2.6386,2.6386,2.6386,2.6386,2.6386,2.6386,2.6386,2.6386,2.6386,2.6386,2.6386,2.6386,2.6386,2.6386,2.6386,2.6386,2.6386,2.6386,2.6386,2.6386,2.6386,2.6386,2.6386,2.6386,2.6386,2.6386,2.6386,2.6386,2.6386,2.6386,2.6386,2.6386,2.6386,2.6386,2.6386,2.6386,2.6386,2.6386,2.6386,2.6386,2.6386,2.6386,2.6386,2.6386,2.6386,2.6386,2.6386,2.6386,2.6386,2.6386,2.6386,2.656,2.6854,2.7148,2.7483,2.7736,1.4299,1.4299,1.4299,1.4299,1.4299,1.508,1.7457,1.9749,2.2041,2.438,2.6758,2.8179,2.8179,2.8179,2.8179,2.8179,2.8179,2.8179,2.8179,2.8179,2.8179,2.8179,2.8179,2.8179,2.8179,2.8179,2.8179,2.8179,2.8179,2.8179,2.8179,2.8179,2.8179,2.8179,2.8179,2.8179,2.8179,2.8179,2.8179,2.8179,2.8179,2.8179,2.8179,2.8179,2.8179,2.8179,2.8179,2.8179,2.8179,2.8179,2.8179,2.8112,2.7697,2.7443,2.7188,2.656,2.6386,2.6386,2.6386,2.6386,2.6386,2.6386,2.6386,2.6386,2.6386,2.6386,2.6386,2.6386,2.6386,2.6386,2.6386,2.6386,2.6386,2.6386,2.6386,2.6386,2.6386,2.6386,2.6386,2.6386,2.6386,2.6386,2.6386,2.6386,2.6386,2.6386,2.6386,2.6386,2.6386,2.6386,2.6386,2.6386,2.6386,2.6386,2.6386,2.6386,2.6386,2.6386,2.6386,2.6386,2.6386,2.6386,2.6386,2.6386,2.6386,2.6386,2.6386,2.6386,2.6386,2.6386,2.6386,2.656,2.6787,2.6921,2.7148,2.7483,1.4299,1.4299,1.4299,1.4299,1.4299,1.4778,1.621,1.8366,2.0356,2.1782,2.4807,2.68,2.68,2.7617,2.8179,2.8179,2.8179,2.8179,2.8179,2.8179,2.8179,2.8179,2.8179,2.8179,2.8179,2.8179,2.8179,2.8179,2.8179,2.8179,2.8179,2.8179,2.8179,2.8179,2.8179,2.8179,2.8179,2.8179,2.8179,2.8179,2.8179,2.8179,2.8179,2.8179,2.8179,2.8179,2.8179,2.8179,2.8179,2.8179,2.8179,2.8085,2.7496,2.7309,2.7188,2.656,2.6386,2.6386,2.6386,2.6386,2.6386,2.6386,2.6386,2.6386,2.6386,2.6386,2.6386,2.6386,2.6386,2.6386,2.6386,2.6386,2.6386,2.6386,2.6386,2.6386,2.6386,2.6386,2.6386,2.6386,2.6386,2.6386,2.6386,2.6386,2.6386,2.6386,2.6386,2.6386,2.6386,2.6386,2.6386,2.6386,2.6386,2.6386,2.6386,2.6386,2.6386,2.6386,2.6386,2.6386,2.6386,2.6386,2.6386,2.6386,2.6386,2.6386,2.6386,2.6386,2.6386,2.6386,2.6386,2.6493,2.6667,2.6774,2.6934,2.7134,1.4299,1.4299,1.4299,1.4299,1.4299,1.4299,1.4299,1.629,1.7807,1.7807,2.1653,2.438,2.438,2.6503,2.7883,2.7883,2.8094,2.8179,2.8179,2.8179,2.8179,2.8179,2.8179,2.8179,2.8179,2.8179,2.8179,2.8179,2.8179,2.8179,2.8179,2.8179,2.8179,2.8179,2.8179,2.8179,2.8179,2.8179,2.8179,2.8179,2.8179,2.8179,2.8179,2.8179,2.8179,2.8179,2.8179,2.8179,2.8179,2.8179,2.8179,2.8085,2.7496,2.7309,2.7188,2.656,2.6386,2.6386,2.6386,2.6386,2.6386,2.6386,2.6386,2.6386,2.6386,2.6386,2.6386,2.6386,2.6386,2.6386,2.6386,2.6386,2.6386,2.6386,2.6386,2.6386,2.6386,2.6386,2.6386,2.6386,2.6386,2.6386,2.6386,2.6386,2.6386,2.6386,2.6386,2.6386,2.6386,2.6386,2.6386,2.6386,2.6386,2.6386,2.6386,2.6386,2.6386,2.6386,2.6386,2.6386,2.6386,2.6386,2.6386,2.6386,2.6386,2.6386,2.6386,2.6386,2.6386,2.6386,2.6386,2.6386,2.6426,2.668,2.6747,2.6827,1.4299,1.4299,1.4299,1.4299,1.4299,1.4299,1.4299,1.629,1.7807,1.7807,2.0226,2.1954,2.1954,2.4038,2.5458,2.5458,2.7152,2.8179,2.8179,2.8179,2.8179,2.8179,2.8179,2.8179,2.8179,2.8179,2.8179,2.8179,2.8179,2.8179,2.8179,2.8179,2.8179,2.8179,2.8179,2.8179,2.8179,2.8179,2.8179,2.8179,2.8179,2.8179,2.8179,2.8179,2.8179,2.8179,2.8179,2.8179,2.8179,2.8179,2.8179,2.8085,2.7496,2.7309,2.7188,2.656,2.6386,2.6386,2.6386,2.6386,2.6386,2.6386,2.6386,2.6386,2.6386,2.6386,2.6386,2.6386,2.6386,2.6386,2.6386,2.6386,2.6386,2.6386,2.6386,2.6386,2.6386,2.6386,2.6386,2.6386,2.6386,2.6386,2.6386,2.6386,2.6386,2.6386,2.6386,2.6386,2.6386,2.6386,2.6386,2.6386,2.6386,2.6386,2.6386,2.6386,2.6386,2.6386,2.6386,2.6386,2.6386,2.6386,2.6386,2.6386,2.6386,2.6386,2.6386,2.6386,2.6386,2.6386,2.6386,2.6386,2.64,2.6466,2.648,2.6533,1.4299,1.4299,1.4299,1.4299,1.4299,1.4299,1.4299,1.5337,1.6122,1.6122,1.8148,1.9575,1.9575,2.1653,2.347,2.4605,2.4807,2.5799,2.8052,2.7152,2.7012,2.8136,2.8179,2.8179,2.8179,2.8179,2.8179,2.8179,2.8179,2.8179,2.8179,2.8179,2.8179,2.8179,2.8179,2.8179,2.8179,2.8179,2.8179,2.8179,2.8179,2.8179,2.8179,2.8179,2.8179,2.8179,2.8179,2.8179,2.8179,2.8179,2.8179,2.8085,2.7496,2.7309,2.7188,2.656,2.6386,2.6386,2.6386,2.6386,2.6386,2.6386,2.6386,2.6386,2.6386,2.6386,2.6386,2.6386,2.6386,2.6386,2.6386,2.6386,2.6386,2.6386,2.6386,2.6386,2.6386,2.6386,2.6386,2.6386,2.6386,2.6386,2.6386,2.6386,2.6386,2.6386,2.6386,2.6386,2.6386,2.6386,2.6386,2.6386,2.6386,2.6386,2.6386,2.6386,2.6386,2.6386,2.6386,2.6386,2.6386,2.6386,2.6386,2.6386,2.6386,2.6386,2.6386,2.6386,2.6386,2.6386,2.6386,2.6386,2.6386,2.6386,2.6386,2.6426,1.4299,1.4299,1.4299,1.4299,1.4299,1.4299,1.4299,1.4299,1.4299,1.4299,1.599,1.7203,1.7203,1.9228,2.1566,2.3909,2.2299,2.2858,2.6745,2.516,2.516,2.749,2.7575,2.7799,2.8179,2.8179,2.8179,2.8179,2.8179,2.8179,2.8179,2.8179,2.8179,2.8179,2.8179,2.8179,2.8179,2.8179,2.8179,2.8179,2.8179,2.8179,2.8179,2.8179,2.8179,2.8179,2.8179,2.8179,2.8179,2.8179,2.8179,2.8085,2.7496,2.7309,2.7188,2.656,2.6386,2.6386,2.6386,2.6386,2.6386,2.6386,2.6386,2.6386,2.6386,2.6386,2.6386,2.6386,2.6386,2.6386,2.6386,2.6386,2.6386,2.6386,2.6386,2.6386,2.6386,2.6386,2.6386,2.6386,2.6386,2.6386,2.6386,2.6386,2.6386,2.6386,2.6386,2.6386,2.6386,2.6386,2.6386,2.6386,2.6386,2.6386,2.6386,2.6386,2.6386,2.6386,2.6386,2.6386,2.6386,2.6386,2.6386,2.6386,2.6386,2.6386,2.6386,2.6386,2.6386,2.6386,2.6386,2.6386,2.6386,2.6386,2.6386,2.6426,1.4299,1.4299,1.4299,1.4299,1.4299,1.4299,1.4299,1.4299,1.4299,1.4299,1.4557,1.4778,1.4778,1.6852,1.9193,2.148,2.1394,2.148,2.2127,2.1868,2.2729,2.5075,2.516,2.6109,2.8136,2.8179,2.8179,2.8179,2.8179,2.8179,2.8179,2.8179,2.8179,2.8179,2.8179,2.8179,2.8179,2.8179,2.8179,2.8179,2.8179,2.8179,2.8179,2.8179,2.8179,2.8179,2.8179,2.8179,2.8179,2.8179,2.8179,2.8085,2.7496,2.7309,2.7188,2.656,2.6386,2.6386,2.6386,2.6386,2.6386,2.6386,2.6386,2.6386,2.6386,2.6386,2.6386,2.6386,2.6386,2.6386,2.6386,2.6386,2.6386,2.6386,2.6386,2.6386,2.6386,2.6386,2.6386,2.6386,2.6386,2.6386,2.6386,2.6386,2.6386,2.6386,2.6386,2.6386,2.6386,2.6386,2.6386,2.6386,2.6386,2.6386,2.6386,2.6386,2.6386,2.6386,2.6386,2.6386,2.6386,2.6386,2.6386,2.6386,2.6386,2.6386,2.6386,2.6386,2.6386,2.6386,2.6386,2.6386,2.6386,2.6386,2.6386,2.64,1.4299,1.4299,1.4299,1.4299,1.4299,1.4299,1.4299,1.4299,1.4299,1.4299,1.4299,1.4299,1.4299,1.5212,1.6773,1.9106,1.8113,1.8462,2.1048,2.0009,2.0919,2.4563,2.4691,2.5811,2.8136,2.8179,2.8179,2.8179,2.8179,2.8179,2.8179,2.8179,2.8179,2.8179,2.8179,2.8179,2.8179,2.8179,2.8179,2.8179,2.8179,2.8179,2.8179,2.8179,2.8179,2.8179,2.8179,2.8179,2.8179,2.8179,2.8179,2.8085,2.7496,2.7309,2.7188,2.656,2.6386,2.6386,2.6386,2.6386,2.6386,2.6386,2.6386,2.6386,2.6386,2.6386,2.6386,2.6386,2.6386,2.6386,2.6386,2.6386,2.6386,2.6386,2.6386,2.6386,2.6386,2.6386,2.6386,2.6386,2.6386,2.6386,2.6386,2.6386,2.6386,2.6386,2.6386,2.6386,2.6386,2.6386,2.6386,2.6386,2.6386,2.6386,2.6386,2.6386,2.6386,2.6386,2.656,2.6627,2.6627,2.6627,2.672,2.6921,2.6921,2.6787,2.6627,2.6627,2.6533,2.6386,2.6386,2.6386,2.6386,2.6386,2.6386,2.6386]},{"header":{"parameterUnit":"m.s-1","parameterCategory":1,"la1":30.6,"la2":28.766,"lo1":-90.7593,"lo2":-88.6598,"dy":0.0162,"dx":0.0183,"nx":116,"ny":114,"refTime":"2023-04-20T06:00:00:Z","depth":0,"parameterNumber":3,"parameterNumberName":"V-component_of_WINDS"},"data":[0.0,0.0,0.0,0.0,0.0,0.0,0.0,0.0,0.0,0.0,0.0,0.0,0.0,0.0,0.0,0.0,0.0,0.0,0.0,0.0,0.0,0.0,0.0,0.0,0.0,0.0,0.0,0.0,0.0,0.0,0.0,0.0,0.0,0.0,0.0,0.0,0.0,0.0,0.0,0.0,0.0,0.0,0.0,0.0,0.0,0.0,0.0,0.0,0.0,0.0,0.0,0.0,0.0,0.0,0.0,0.0,0.0,0.0,0.0,0.0,0.0,0.0,0.0,0.0,0.0,0.0,0.0,0.0,0.0,0.0,0.0,0.0,0.0,0.0,0.0,0.0,0.0,0.0,0.0,0.0,0.0,0.0,0.0,0.0,0.0,0.0,0.0,0.0,0.0,0.0,0.0,0.0,0.0,0.0,0.0,0.0,0.0,0.0,0.0,0.0,0.0,0.0,0.0,0.0,0.0,0.0,0.0,0.0,0.0,0.0,0.0,0.0,0.0,0.0,0.0,0.0,0.0,0.0,0.0,0.0,0.0,0.0,0.0,0.0,0.0,0.0,0.0,0.0,0.0,0.0,0.0,0.0,0.0,0.0,0.0,0.0,0.0,0.0,0.0,0.0,0.0,0.0,0.0,0.0,0.0,0.0,0.0,0.0,0.0,0.0,0.0,0.0,0.0,0.0,0.0,0.0,0.0,0.0,0.0,0.0,0.0,0.0,0.0,0.0,0.0,0.0,0.0,0.0,0.0,0.0,0.0,0.0,0.0,0.0,0.0,0.0,0.0,0.0,0.0,0.0,0.0,0.0,0.0,0.0,0.0,0.0,0.0,0.0,0.0,0.0,0.0,0.0,0.0,0.0,0.0,0.0,0.0,0.0,0.0,0.0,0.0,0.0,0.0,0.0,0.0,0.0,0.0,0.0,0.0,0.0,0.0,0.0,0.0,0.0,0.0,0.0,0.0,0.0,0.0,0.0,0.0,0.0,0.0,0.0,0.0,0.0,0.0,0.0,0.0,0.0,0.0,0.0,0.0,0.0,0.0,0.0,0.0,0.0,0.0,0.0,0.0,0.0,0.0,0.0,0.0,0.0,0.0,0.0,0.0,0.0,0.0,0.0,0.0,0.0,0.0,0.0,0.0,0.0,0.0,0.0,0.0,0.0,0.0,0.0,0.0,0.0,0.0,0.0,0.0,0.0,0.0,0.0,0.0,0.0,0.0,0.0,0.0,0.0,0.0,0.0,0.0,0.0,0.0,0.0,0.0,0.0,0.0,0.0,0.0,0.0,0.0,0.0,0.0,0.0,0.0,0.0,0.0,0.0,0.0,0.0,0.0,0.0,0.0,0.0,0.0,0.0,0.0,0.0,0.0,0.0,0.0,0.0,0.0,0.0,0.0,0.0,0.0,0.0,0.0,0.0,0.0,0.0,0.0,0.0,0.0,0.0,0.0,0.0,0.0,0.0,0.0,0.0,0.0,0.0,0.0,0.0,0.0,0.0,0.0,0.0,0.0,0.0,0.0,0.0,0.0,0.0,0.0,0.0,0.0,0.0,0.0,0.0,0.0,0.0,0.0,0.0,0.0,0.0,0.0,0.0,0.0,0.0,0.0,0.0,0.0,0.0,0.0,0.0,0.0,0.0,0.0,0.0,0.0,0.0,0.0,0.0,0.0,0.0,0.0,0.0,0.0,0.0,0.0,0.0,0.0,0.0,0.0,0.0,0.0,0.0,0.0,0.0,0.0,0.0,0.0,0.0,0.0,0.0,0.0,0.0,0.0,0.0,0.0,0.0,0.0,0.0,0.0,0.0,0.0,0.0,0.0,0.0,0.0,0.0,0.0,0.0,0.0,0.0,0.0,0.0,0.0,0.0,0.0,0.0,0.0,0.0,0.0,0.0,0.0,0.0,0.0,0.0,0.0,0.0,0.0,0.0,0.0,0.0,0.0,0.0,0.0,0.0,0.0,0.0,0.0,0.0,0.0,0.0,0.0,0.0,0.0,0.0,0.0,0.0,0.0,0.0,0.0,0.0,0.0,0.0,0.0,0.0,0.0,0.0,0.0,0.0,0.0,0.0,0.0,0.0,0.0,0.0,0.0,0.0,0.0,0.0,0.0,0.0,0.0,0.0,0.0,0.0,0.0,0.0,0.0,0.0,0.0,0.0,0.0,0.0,0.0,0.0,0.0,0.0,0.0,0.0,0.0,0.0,0.0,0.0,0.0,0.0,0.0,0.0,0.0,0.0,0.0,0.0,0.0,0.0,0.0,0.0,0.0,0.0,0.0,0.0,0.0,0.0,0.0,0.0,0.0,0.0,0.0,0.0,0.0,0.0,0.0,0.0,0.0,0.0,0.0,0.0,0.0,0.0,0.0,0.0,0.0,0.0,0.0,0.0,0.0,0.0,0.0,0.0,0.0,0.0,0.0,0.0,0.0,0.0,0.0,0.0,0.0,0.0,0.0,0.0,0.0,0.0,0.0,0.0,0.0,0.0,0.0,0.0,0.0,0.0,0.0,0.0,0.0,0.0,0.0,0.0,0.0,0.0,0.0,0.0,0.0,0.0,0.0,0.0,0.0,0.0,0.0,0.0,0.0,0.0,0.0,0.0,0.0,0.0,0.0,0.0,0.0,0.0,0.0,0.0,0.0,0.0,0.0,0.0,0.0,0.0,0.0,0.0,0.0,0.0,0.0,0.0,0.0,0.0,0.0,0.0,0.0,0.0,0.0,0.0,0.0,0.0,0.0,0.0,0.0,0.0,0.0,0.0,0.0,0.0,0.0,0.0,0.0,0.0,0.0,0.0,0.0,0.0,0.0,0.0,0.0,0.0,0.0,0.0,0.0,0.0,0.0,0.0,0.0,0.0,0.0,0.0,0.0,0.0,0.0,0.0,0.0,0.0,0.0,0.0,0.0,0.0,0.0,0.0,0.0,0.0,0.0,0.0,0.0,0.0,0.0,0.0,0.0,0.0,0.0,0.0,0.0,0.0,0.0,0.0,0.0,0.0,0.0,0.0,0.0,0.0,0.0,0.0,0.0,0.0,0.0,0.0,0.0,0.0,0.0,0.0,0.0,0.0,0.0,0.0,0.0,0.0,0.0,0.0,0.0,0.0,0.0,0.0,0.0,0.0,0.0,0.0,0.0,0.0,0.0,0.0,0.0,0.0,0.0,0.0,0.0,0.0,0.0,0.0,0.0,0.0,0.0,0.0,0.0,0.0,0.0,0.0,0.0,0.0,0.0,0.0,0.0,0.0,0.0,0.0,0.0,0.0,0.0,0.0,0.0,0.0,0.0,0.0,0.0,0.0,0.0,0.0,0.0,0.0,0.0,0.0,0.0,0.0,0.0,0.0,0.0,0.0,0.0,0.0,0.0,0.0,0.0,0.0,0.0,0.0,0.0,0.0,0.0,0.0,0.0,0.0,0.0,0.0,0.0,0.0,0.0,0.0,0.0,0.0,0.0,0.0,0.0,0.0,0.0,0.0,0.0,0.0,0.0,0.0,0.0,0.0,0.0,0.0,0.0,0.0,0.0,0.0,0.0,0.0,0.0,0.0,0.0,0.0,0.0,0.0,0.0,0.0,0.0,0.0,0.0,0.0,0.0,0.0,0.0,0.0,0.0,0.0,0.0,0.0,0.0,0.0,0.0,0.0,0.0,0.0,0.0,0.0,0.0,0.0,0.0,0.0,0.0,0.0,0.0,0.0,0.0,0.0,0.0,0.0,0.0,0.0,0.0,0.0,0.0,0.0,0.0,0.0,0.0,0.0,0.0,0.0,0.0,0.0,0.0,0.0,0.0,0.0,0.0,0.0,0.0,0.0,0.0,0.0,0.0,0.0,0.0,0.0,0.0,0.0,0.0,0.0,0.0,0.0,0.0,0.0,0.0,0.0,0.0,0.0,0.0,0.0,0.0,0.0,0.0,0.0,0.0,0.0,0.0,0.0,0.0,0.0,0.0,0.0,0.0,0.0,0.0,0.0,0.0,0.0,0.0,0.0,0.0,0.0,0.0,0.0,0.0,0.0,0.0,0.0,0.0,0.0,0.0,0.0,0.0,0.0,0.0,0.0,0.0,0.0,0.0,0.0,0.0,0.0,0.0,0.0,0.0,0.0,0.0,0.0,0.0,0.0,0.0,0.0,0.0,0.0,0.0,0.0,0.0,0.0,0.0,0.0,0.0,0.0,0.0,0.0,0.0,0.0,0.0,0.0,0.0,0.0,0.0,0.0,0.0,0.0,0.0,0.0,0.0,0.0,0.0,0.0,0.0,0.0,0.0,0.0,0.0,0.0,0.0,0.0,0.0,0.0,0.0,0.0,0.0,0.0,0.0,0.0,0.0,0.0,0.0,0.0,0.0,0.0,0.0,0.0,0.0,0.0,0.0,0.0,0.0,0.0,0.0,0.0,0.0,0.0,0.0,0.0,0.0,0.0,0.0,0.0,0.0,0.0,0.0,0.0,0.0,0.0,0.0,0.0,0.0,0.0,0.0,0.0,0.0,0.0,0.0,0.0,0.0,0.0,0.0,0.0,0.0,0.0,0.0,0.0,0.0,0.0,0.0,0.0,0.0,0.0,0.0,0.0,0.0,0.0,0.0,0.0,0.0,0.0,0.0,0.0,0.0,0.0,0.0,0.0,0.0,0.0,0.0,0.0,0.0,0.0,0.0,0.0,0.0,0.0,0.0,0.0,0.0,0.0,0.0,0.0,0.0,0.0,0.0,0.0,0.0,0.0,0.0,0.0,0.0,0.0,0.0,0.0,0.0,0.0,0.0,0.0,0.0,0.0,0.0,0.0,0.0,0.0,0.0,0.0,0.0,0.0,0.0,0.0,0.0,0.0,0.0,0.0,0.0,0.0,0.0,0.0,0.0,0.0,0.0,0.0,0.0,0.0,0.0,0.0,0.0,0.0,0.0,0.0,0.0,0.0,0.0,0.0,0.0,0.0,0.0,0.0,0.0,0.0,0.0,0.0,0.0,0.0,0.0,0.0,0.0,0.0,0.0,0.0,0.0,0.0,0.0,0.0,0.0,0.0,0.0,0.0,0.0,0.0,0.0,0.0,0.0,0.0,0.0,0.0,0.0,0.0,0.0,0.0,0.0,0.0,0.0,0.0,0.0,0.0,0.0,0.0,0.0,0.0,0.0,0.0,0.0,0.0,0.0,0.0,0.0,0.0,0.0,0.0,0.0,0.0,0.0,0.0,0.0,0.0,0.0,0.0,0.0,0.0,0.0,0.0,0.0,0.0,0.0,0.0,0.0,0.0,0.0,0.0,0.0,0.0,0.0,0.0,0.0,0.0,0.0,0.0,0.0,0.0,0.0,0.0,0.0,0.0,0.0,0.0,0.0,0.0,0.0,0.0,0.0,0.0,0.0,0.0,0.0,0.0,0.0,0.0,0.0,0.0,0.0,0.0,0.0,0.0,0.0,0.0,0.0,0.0,0.0,0.0,0.0,0.0,0.0,0.0,0.0,0.0,0.0,0.0,0.0,0.0,0.0,0.0,0.0,0.0,0.0,0.0,0.0,0.0,0.0,0.0,0.0,0.0,0.0,0.0,0.0,0.0,0.0,0.0,0.0,0.0,0.0,0.0,0.0,0.0,0.0,0.0,0.0,0.0,0.0,0.0,0.0,0.0,0.0,0.0,0.0,0.0,0.0,0.0,0.0,0.0,0.0,0.0,0.0,0.0,0.0,0.0,0.0,0.0,0.0,0.0,0.0,0.0,0.0,0.0,0.0,0.0,0.0,0.0,0.0,0.0,0.0,0.0,0.0,0.0,0.0,0.0,0.0,0.0,0.0,0.0,0.0,0.0,0.0,0.0,0.0,0.0,0.0,0.0,0.0,0.0,0.0,0.0,0.0,0.0,0.0,0.0,0.0,0.0,0.0,0.0,0.0,0.0,0.0,0.0,0.0,0.0,0.0,0.0,0.0,0.0,0.0,0.0,0.0,0.0,0.0,0.0,0.0,0.0,0.0,0.0,0.0,0.0,0.0,0.0,0.0,0.0,0.0,0.0,0.0,0.0,0.0,0.0,0.0,0.0,0.0,0.0,0.0,0.0,0.0,0.0,0.0,0.0,0.0,0.0,0.0,0.0,0.0,0.0,0.0,0.0,4.5484,4.5304,0.0,0.0,0.0,0.0,0.0,0.0,0.0,0.0,0.0,0.0,0.0,0.0,0.0,0.0,0.0,0.0,0.0,0.0,0.0,0.0,0.0,0.0,0.0,0.0,0.0,0.0,0.0,0.0,0.0,0.0,0.0,0.0,0.0,0.0,0.0,0.0,0.0,0.0,4.9018,4.9018,4.9018,4.9018,4.9018,4.9018,0.0,0.0,0.0,0.0,0.0,0.0,0.0,0.0,0.0,0.0,0.0,0.0,0.0,0.0,0.0,0.0,0.0,0.0,0.0,0.0,0.0,0.0,0.0,0.0,0.0,0.0,0.0,0.0,0.0,0.0,0.0,0.0,0.0,0.0,0.0,0.0,0.0,0.0,0.0,0.0,0.0,0.0,0.0,0.0,0.0,0.0,0.0,0.0,0.0,0.0,0.0,0.0,0.0,0.0,0.0,0.0,0.0,0.0,0.0,0.0,0.0,0.0,0.0,0.0,0.0,0.0,0.0,0.0,0.0,0.0,4.6411,4.6262,0.0,0.0,0.0,0.0,0.0,0.0,0.0,0.0,0.0,0.0,0.0,0.0,0.0,0.0,0.0,0.0,0.0,0.0,0.0,0.0,0.0,0.0,0.0,4.9387,4.9031,4.9168,4.9061,4.9018,0.0,0.0,0.0,0.0,0.0,0.0,0.0,4.9018,4.9018,4.9018,4.9018,4.9018,4.9018,4.9018,4.9018,4.9018,4.9018,0.0,0.0,0.0,0.0,0.0,0.0,0.0,0.0,0.0,0.0,0.0,0.0,0.0,0.0,0.0,0.0,0.0,0.0,0.0,0.0,0.0,0.0,0.0,0.0,0.0,0.0,0.0,0.0,0.0,0.0,0.0,0.0,0.0,0.0,0.0,0.0,0.0,0.0,0.0,0.0,0.0,0.0,0.0,0.0,0.0,0.0,0.0,0.0,0.0,0.0,0.0,0.0,0.0,0.0,0.0,0.0,0.0,0.0,0.0,0.0,0.0,0.0,0.0,4.7559,4.7473,4.7309,4.7309,4.7309,4.7309,4.7309,4.7309,4.7309,4.7309,0.0,0.0,0.0,0.0,0.0,0.0,0.0,0.0,0.0,0.0,0.0,0.0,0.0,0.0,0.0,0.0,0.0,0.0,0.0,0.0,0.0,4.9387,4.9226,4.9838,4.9346,4.9018,4.9018,0.0,0.0,0.0,0.0,0.0,4.9018,4.9018,4.9018,4.9018,4.9018,4.9018,4.9018,4.9018,4.9018,4.9018,4.9018,4.9018,4.9018,0.0,0.0,0.0,0.0,0.0,0.0,0.0,0.0,0.0,0.0,0.0,0.0,0.0,0.0,0.0,0.0,0.0,0.0,0.0,0.0,0.0,0.0,0.0,0.0,0.0,0.0,0.0,0.0,0.0,0.0,0.0,0.0,0.0,0.0,0.0,0.0,0.0,0.0,0.0,0.0,0.0,4.8102,4.8198,0.0,0.0,0.0,0.0,0.0,0.0,0.0,0.0,0.0,0.0,0.0,0.0,0.0,4.9845,5.0057,4.9921,4.9421,4.8594,4.8594,4.8126,4.7309,4.7309,4.7309,4.7309,4.7309,0.0,4.7309,4.7309,0.0,0.0,0.0,0.0,0.0,0.0,0.0,0.0,0.0,0.0,0.0,0.0,0.0,0.0,0.0,0.0,0.0,0.0,0.0,0.0,0.0,4.9881,4.9271,4.9933,4.9406,4.9018,4.9018,4.9018,0.0,0.0,0.0,4.9187,4.9593,4.9627,4.983,5.022,5.022,5.022,5.022,5.022,5.0033,4.9627,4.9627,4.939,4.9018,4.9018,0.0,0.0,0.0,0.0,0.0,0.0,0.0,0.0,0.0,0.0,0.0,0.0,0.0,0.0,0.0,0.0,0.0,0.0,0.0,0.0,0.0,0.0,0.0,0.0,0.0,0.0,0.0,0.0,0.0,0.0,0.0,0.0,0.0,0.0,0.0,0.0,0.0,0.0,0.0,4.9693,5.0078,5.0334,4.9508,4.9058,0.0,0.0,0.0,0.0,0.0,0.0,0.0,0.0,0.0,5.1211,5.0684,5.0665,5.1229,5.0684,4.9852,4.882,4.882,4.8272,4.7309,4.7309,4.7309,4.7309,4.7309,4.7309,4.7309,4.7309,4.7309,4.7309,0.0,0.0,0.0,0.0,4.7309,4.7309,0.0,0.0,0.0,0.0,0.0,0.0,0.0,0.0,0.0,0.0,0.0,0.0,5.2006,5.0564,4.9844,5.0494,4.9971,4.956,4.956,4.956,4.956,0.0,4.956,4.983,5.0371,5.0371,5.0642,5.1201,5.1201,5.1201,5.1201,5.1201,5.0913,5.0371,5.0371,4.9864,4.9018,4.9018,4.9018,4.9018,0.0,0.0,0.0,0.0,0.0,0.0,0.0,0.0,0.0,0.0,0.0,0.0,0.0,0.0,0.0,0.0,0.0,0.0,0.0,0.0,0.0,0.0,0.0,0.0,0.0,0.0,0.0,0.0,0.0,0.0,0.0,0.0,0.0,0.0,0.0,0.0,0.0,5.1699,5.1933,5.225,5.1157,5.057,0.0,0.0,0.0,0.0,0.0,0.0,5.076,5.0779,5.1248,5.2277,5.1576,5.1557,5.2294,5.1576,5.0531,4.9195,4.9195,4.8543,4.7309,4.7309,4.7309,4.7309,4.7309,4.7309,4.7309,4.7309,4.7309,4.7309,4.7309,4.7309,4.7309,4.7309,4.7309,4.7309,0.0,0.0,0.0,0.0,0.0,0.0,0.0,0.0,0.0,0.0,0.0,5.203,5.2101,5.1492,5.1358,5.2045,5.1492,5.11,5.11,5.11,5.11,5.11,5.11,5.11,5.1133,5.1133,5.1167,5.1201,5.1201,5.1201,5.1201,5.1201,5.1167,5.1133,5.1133,5.0356,4.9018,4.9018,4.9018,4.9018,4.9018,0.0,0.0,0.0,0.0,0.0,0.0,0.0,0.0,0.0,0.0,0.0,0.0,0.0,0.0,0.0,0.0,0.0,0.0,0.0,0.0,0.0,0.0,0.0,0.0,0.0,0.0,0.0,0.0,0.0,0.0,0.0,0.0,0.0,0.0,0.0,0.0,0.0,0.0,5.3416,5.3332,0.0,0.0,0.0,0.0,5.1831,5.093,5.0817,5.1776,5.1831,5.2312,5.3382,5.3365,5.3365,5.3416,5.3365,5.2345,5.032,5.032,4.9267,4.7309,4.7309,4.7309,4.7309,4.7309,4.7309,4.7309,4.7309,4.7309,4.7309,4.7309,4.7309,4.7309,4.7309,4.7309,4.7309,0.0,0.0,0.0,0.0,0.0,0.0,0.0,0.0,5.4664,5.438,5.3975,5.3676,5.364,5.3069,5.2752,5.2957,5.2352,5.1963,5.1963,5.1503,5.1201,5.1201,5.1201,5.1404,5.1894,5.2435,5.2689,5.2689,5.2689,5.2689,5.2689,5.2689,5.2385,5.1911,5.1911,5.1336,5.0423,5.0423,5.0423,5.0423,5.0423,5.0135,0.0,0.0,0.0,0.0,0.0,0.0,0.0,0.0,0.0,0.0,0.0,0.0,0.0,0.0,0.0,0.0,0.0,0.0,0.0,0.0,0.0,0.0,0.0,0.0,0.0,0.0,0.0,0.0,0.0,0.0,0.0,0.0,0.0,0.0,0.0,0.0,0.0,5.3518,5.2887,0.0,5.3416,5.254,5.2205,5.287,5.2592,5.254,5.2904,5.2922,5.311,5.3501,5.3518,5.3518,5.3518,5.3518,5.2783,5.1359,5.1359,5.0646,4.9287,4.9287,4.9287,4.9287,4.9287,4.9287,4.9287,4.9287,4.8501,4.7309,4.7309,4.7309,4.7309,4.7309,4.7309,4.7309,0.0,0.0,0.0,0.0,0.0,0.0,0.0,0.0,5.5585,5.5585,5.5211,5.4905,5.487,5.4255,5.3804,5.3798,5.3167,5.2769,5.2769,5.2504,5.2235,5.1995,5.1979,5.2182,5.2706,5.3247,5.3518,5.3518,5.3518,5.3518,5.3518,5.3518,5.3213,5.2706,5.2706,5.2418,5.1979,5.1979,5.1674,5.1201,5.1201,5.0913,5.0473,0.0,0.0,0.0,0.0,0.0,0.0,0.0,0.0,0.0,0.0,0.0,0.0,0.0,0.0,0.0,0.0,0.0,0.0,0.0,0.0,0.0,0.0,0.0,0.0,0.0,0.0,0.0,0.0,0.0,0.0,0.0,0.0,0.0,0.0,5.3518,5.3518,5.3518,5.287,5.2715,5.3416,5.287,5.2715,5.3433,5.3518,5.3518,5.3518,5.3518,5.3518,5.3518,5.3518,5.3518,5.3518,5.3518,5.2956,5.1903,5.1903,5.1359,5.0397,5.0397,5.0397,5.0397,5.0397,5.0184,4.9852,4.9852,4.8841,4.7331,4.7658,4.7624,4.7352,4.7679,4.7602,4.7309,0.0,0.0,0.0,0.0,0.0,0.0,0.0,5.5658,5.5658,5.5658,5.5658,5.5684,5.5636,5.5027,5.4605,5.4598,5.3961,5.3568,5.3601,5.4216,5.4296,5.3601,5.3501,5.3518,5.3517,5.3501,5.3518,5.3518,5.3518,5.3518,5.3518,5.3518,5.3518,5.3518,5.3518,5.3518,5.3518,5.3518,5.2638,5.1269,5.1269,5.1269,5.1235,0.0,0.0,0.0,0.0,0.0,0.0,0.0,0.0,0.0,0.0,0.0,0.0,0.0,0.0,0.0,0.0,0.0,0.0,0.0,0.0,0.0,0.0,0.0,0.0,0.0,0.0,0.0,0.0,0.0,0.0,0.0,0.0,0.0,5.3518,5.3518,5.3518,5.3518,5.3518,5.3518,5.3518,5.3518,5.3518,5.3518,5.3518,5.3518,5.3518,5.3518,5.3518,5.3518,5.3518,5.3518,5.3518,5.3518,5.2956,5.1957,5.1957,5.1433,5.0493,5.0493,5.0493,5.0493,5.0493,4.9911,4.8932,4.8932,4.8356,4.7538,4.8418,4.8147,4.7409,4.8397,4.8157,4.7309,0.0,0.0,0.0,0.0,0.0,0.0,0.0,5.7347,5.7347,5.7347,5.7347,5.7127,5.6612,5.6818,5.6804,5.6293,5.5532,5.5355,5.595,5.5104,5.4741,5.5089,5.4058,5.375,5.4296,5.3783,5.3518,5.3518,5.3518,5.3518,5.3518,5.3518,5.3518,5.3518,5.3518,5.3518,5.3518,5.3518,5.3281,5.2875,5.2875,5.2536,5.1995,0.0,0.0,0.0,0.0,0.0,0.0,0.0,0.0,0.0,0.0,0.0,0.0,0.0,0.0,0.0,0.0,0.0,0.0,0.0,0.0,0.0,0.0,0.0,0.0,0.0,0.0,0.0,0.0,0.0,0.0,0.0,5.3518,5.3518,5.3518,5.3518,5.3518,5.3518,5.3518,5.3518,5.3518,5.3518,5.3518,5.3518,5.3518,5.3518,5.3518,5.3518,5.3518,5.3518,5.3518,5.3518,5.3518,5.3518,5.3348,5.3076,5.3076,5.2904,5.2661,5.2661,5.2661,5.2661,5.2661,5.2469,5.2205,5.2205,5.1594,5.0423,4.848,4.7559,4.7331,4.7593,4.7538,4.7309,0.0,0.0,0.0,0.0,0.0,0.0,0.0,5.7997,5.7997,5.7997,5.7997,5.7821,5.7413,5.7462,5.7228,5.6447,5.5962,5.5624,5.5507,5.4909,5.4939,5.5681,5.4575,5.4044,5.4155,5.3717,5.3518,5.3518,5.3518,5.3518,5.3518,5.3518,5.3518,5.3518,5.3518,5.3518,5.3518,5.3518,5.3518,5.3518,5.3518,5.3213,5.2807,5.2807,5.2536,5.2148,5.2148,5.2148,5.2148,5.2148,0.0,0.0,0.0,0.0,0.0,0.0,0.0,0.0,0.0,0.0,0.0,0.0,0.0,0.0,0.0,0.0,0.0,0.0,0.0,0.0,0.0,0.0,0.0,0.0,5.3518,5.3518,5.3518,5.3518,5.3518,5.3518,5.3518,5.3518,5.3518,5.3518,5.3518,5.3518,5.3518,5.3518,5.3518,5.3518,5.3518,5.3518,5.3788,5.3957,5.3957,5.4262,5.4414,5.4414,5.4414,5.4414,5.4414,5.4414,5.4414,5.4414,5.4414,5.4173,5.3738,5.3738,5.315,5.2018,0.0,0.0,0.0,0.0,4.8605,4.8522,0.0,0.0,0.0,0.0,0.0,0.0,0.0,5.7997,5.7997,5.7997,5.7997,5.7997,5.7997,5.7413,5.6708,5.5906,5.5766,5.5129,5.3849,5.4454,5.5173,5.5934,5.5158,5.4438,5.375,5.3685,5.3584,5.3518,5.3518,5.3518,5.3518,5.3518,5.3518,5.3518,5.3518,5.3518,5.3518,5.3518,5.3518,5.3518,5.3518,5.3518,5.3518,5.3518,5.3518,5.3518,5.3518,5.3518,5.3518,5.3518,0.0,0.0,0.0,0.0,0.0,0.0,0.0,0.0,0.0,0.0,0.0,0.0,0.0,0.0,0.0,0.0,0.0,0.0,0.0,0.0,0.0,0.0,0.0,0.0,5.3518,5.3518,5.3518,5.3518,5.3518,5.3518,5.3518,5.3518,5.3518,5.3518,5.3551,5.3619,5.3619,5.3653,5.3754,5.3754,0.0,0.0,0.0,5.4702,5.4702,5.5361,5.5699,5.5699,5.5699,5.5699,5.5699,5.5699,5.5699,5.5699,5.5699,5.517,5.4283,5.4283,5.376,5.2896,5.224,5.142,5.0653,5.0653,5.0575,5.0329,0.0,0.0,0.0,0.0,0.0,0.0,0.0,5.7997,5.7997,5.7997,5.7997,5.7997,5.7997,5.7856,5.7486,5.6721,5.6059,5.5581,5.5291,5.6025,5.6786,5.7534,5.6223,5.5422,5.5276,5.468,5.409,5.3518,5.3518,5.3518,5.3518,5.3518,5.3518,5.3518,5.3518,5.3518,5.3518,5.3518,5.3518,5.3518,5.3518,5.3518,5.3518,5.3518,5.3518,5.3518,5.3518,5.3518,5.3518,5.3518,5.3518,5.3518,5.3518,5.3518,0.0,0.0,0.0,0.0,0.0,0.0,0.0,0.0,0.0,0.0,0.0,0.0,0.0,0.0,0.0,0.0,0.0,0.0,0.0,5.3518,5.3518,5.3518,5.3518,5.3518,5.3518,5.3518,5.3518,5.3518,5.3518,5.3518,5.3754,5.4329,5.4414,5.4634,5.5225,5.5259,5.5259,5.5259,5.5395,5.5496,5.5496,5.5631,5.5699,5.5699,5.5699,0.0,5.5699,5.5699,5.5699,5.5699,5.5699,5.5559,5.54,5.54,5.5259,5.4904,5.316,5.235,5.2172,5.2172,5.1579,5.0903,0.0,0.0,0.0,0.0,0.0,0.0,0.0,5.7997,5.7997,5.7997,5.7997,5.7997,5.7997,5.7997,5.7714,5.6964,5.6141,5.6031,5.6789,5.6863,5.7053,5.7425,5.6721,5.592,5.5158,5.4787,5.4404,5.4042,5.4042,5.4216,5.4591,5.4591,5.4591,5.4575,5.4235,5.4248,5.4575,5.4219,5.4248,5.4591,5.4591,5.4391,5.3993,5.3651,5.3518,5.3518,5.3518,5.3518,5.3518,5.3518,5.3518,5.3518,5.3518,5.3518,5.3518,0.0,0.0,0.0,0.0,0.0,0.0,0.0,0.0,0.0,0.0,0.0,0.0,0.0,0.0,5.3518,5.3518,0.0,5.3619,5.3991,5.4059,5.4194,5.4549,5.4583,5.4465,5.4093,5.4059,5.4194,5.4549,5.4583,5.4752,5.5141,5.5141,5.531,5.5665,5.5699,5.5699,5.5699,5.6071,5.624,5.624,5.663,5.6799,5.6799,5.6799,5.6799,5.6799,5.6799,5.6799,5.6799,5.6799,5.6799,5.6799,5.6799,5.6799,5.6709,5.5657,5.4797,5.4133,5.4133,5.3473,5.2565,0.0,0.0,0.0,0.0,0.0,0.0,0.0,5.7997,5.7997,5.7997,5.7997,5.7997,5.7997,5.7997,5.7655,5.6734,5.6232,5.6371,5.7462,5.7302,5.7103,5.7103,5.7103,5.638,5.4848,5.4969,5.4894,5.4622,5.4741,5.5114,5.5709,5.5709,5.5709,5.5681,5.5069,5.5054,5.5466,5.5029,5.5054,5.5495,5.5495,5.5129,5.4529,5.3783,5.3518,5.3518,5.3518,5.3518,5.3518,5.3518,5.3518,5.3518,5.3518,5.3518,5.3518,5.3518,5.3518,0.0,0.0,0.0,0.0,0.0,0.0,0.0,0.0,5.3518,5.3551,5.3687,5.3721,5.3754,5.3906,5.3923,5.4126,5.4702,5.4803,5.5006,5.5631,5.5699,5.553,5.5074,5.4905,5.504,5.5631,5.5699,5.5767,5.5902,5.5902,5.5969,5.6105,5.6139,5.6139,5.6139,5.6697,5.7002,5.7002,5.7577,5.79,5.79,5.79,5.79,5.79,5.79,5.79,5.79,5.79,5.79,5.79,5.79,5.79,5.79,5.79,5.7171,5.6139,5.6139,5.5445,5.4548,0.0,0.0,0.0,0.0,0.0,0.0,0.0,0.0,5.7997,5.7997,5.7997,5.7997,5.7997,5.7997,5.7401,5.5962,5.6394,5.655,5.6004,5.7142,5.7892,5.7892,5.7892,5.7142,5.5624,5.6272,5.597,5.4622,5.5262,5.5624,5.5709,5.5709,5.5709,5.5709,5.5624,5.5262,5.4757,5.5335,5.5247,5.4711,5.4711,5.4665,5.4529,5.3783,5.3518,5.3518,5.3518,5.3518,5.3518,5.3518,5.3518,5.3518,5.3518,5.3518,5.3518,5.3518,5.3518,5.3518,5.3518,5.3518,5.3518,5.3518,5.3518,5.3518,0.0,5.3518,5.3687,5.4329,5.4482,5.4668,5.5327,5.5462,5.5496,5.5564,5.5564,5.5597,5.5699,5.5699,5.5902,5.6494,5.5987,5.5597,5.5699,5.5699,5.5969,5.663,5.6697,5.6968,5.7611,5.7645,5.7645,5.7645,5.7712,5.7798,5.7798,5.7866,5.79,5.79,5.79,5.79,5.79,5.79,5.79,5.79,5.79,5.79,5.79,5.79,5.79,5.79,5.79,5.7798,5.7645,5.7645,5.6936,5.6109,0.0,0.0,0.0,0.0,0.0,0.0,0.0,0.0,0.0,5.7997,5.7997,5.7997,5.7997,5.7997,5.7558,5.6474,5.7103,5.7216,5.6434,5.7389,5.7997,5.7997,5.7997,5.729,5.5752,5.6018,5.5879,5.5232,5.5552,5.6169,5.7042,5.7042,5.7042,5.7004,5.61,5.578,5.5928,5.5766,5.578,5.5942,5.5942,5.5674,5.5158,5.4404,5.3864,5.3518,5.3518,5.3518,0.0,0.0,5.3518,5.3518,5.3518,5.3518,5.3518,5.3518,5.3518,5.3518,5.3518,5.3518,5.3518,5.3518,5.3518,5.3619,5.4025,5.4126,5.4329,5.5108,5.5243,5.5327,5.5631,5.5699,5.5834,5.6274,5.6341,5.6494,5.6934,5.6968,5.7103,5.7408,5.7171,5.6968,5.6968,5.6968,5.7103,5.7408,5.7442,5.7577,5.79,5.79,5.79,5.79,5.79,5.79,5.79,5.79,5.79,5.79,5.79,5.79,5.79,5.79,5.79,5.79,5.79,5.79,5.79,5.79,5.79,5.79,5.79,5.79,5.79,5.79,5.7591,5.726,0.0,0.0,0.0,0.0,0.0,0.0,0.0,0.0,0.0,0.0,5.7997,5.7997,5.7997,5.7997,5.7714,5.6964,5.7558,5.7582,5.6642,5.7474,5.7927,5.7714,5.7904,5.729,5.5752,5.592,5.5822,5.5408,5.561,5.6264,5.7364,5.7582,5.757,5.7327,5.6447,5.6136,5.6245,5.6108,5.6136,5.6272,5.6496,5.6108,5.532,5.4575,5.3979,5.3518,5.3518,5.3518,5.3518,5.3518,5.3518,5.3518,5.3518,5.3518,5.3518,5.3518,5.3653,5.3754,5.3551,5.3822,5.4059,5.3856,5.3957,5.4262,5.4769,5.4905,5.5108,5.5834,5.6003,5.6071,5.6274,5.6325,5.6477,5.7036,5.7103,5.7273,5.7832,5.79,5.79,5.79,5.8103,5.8186,5.8186,5.8017,5.79,5.79,5.79,5.79,5.79,5.79,5.79,5.79,5.79,5.79,5.79,5.79,5.79,5.79,5.79,5.79,5.79,5.79,5.79,5.79,5.79,5.79,5.79,5.79,5.79,5.79,5.79,5.79,5.79,5.79,5.79,5.79,0.0,0.0,0.0,0.0,0.0,0.0,0.0,0.0,0.0,0.0,0.0,0.0,0.0,5.7997,5.7714,5.6964,5.7558,5.7352,5.5851,5.7142,5.7691,5.6964,5.7631,5.729,5.5752,5.6447,5.6122,5.4618,5.535,5.5738,5.5794,5.6576,5.6536,5.5808,5.655,5.6039,5.4757,5.6232,5.6012,5.4726,5.5451,5.5291,5.456,5.3833,5.3534,5.3518,5.3518,0.0,5.3518,5.3518,5.3518,5.3518,5.3518,5.3518,5.3518,5.3518,5.4025,5.4397,5.3687,5.4549,5.5462,5.4735,5.5108,5.5631,5.5665,5.5665,5.5868,5.663,5.6765,5.7002,5.7697,5.7832,5.7832,5.7866,5.7866,5.7866,5.79,5.79,5.79,5.79,5.8524,5.8979,5.8979,5.8321,5.79,5.79,5.79,5.79,5.79,5.79,5.79,5.79,5.79,5.79,5.79,5.79,5.79,5.79,5.79,5.79,5.79,5.79,5.79,5.79,5.79,5.79,5.79,5.79,5.79,5.79,5.79,5.79,5.79,5.79,5.79,5.79,0.0,0.0,0.0,0.0,0.0,0.0,0.0,0.0,0.0,0.0,0.0,0.0,0.0,0.0,0.0,0.0,5.7558,5.7352,5.5808,5.7142,5.7679,5.6925,5.7619,5.729,5.5752,5.5962,5.5595,5.4622,5.4848,5.548,5.6474,5.6232,5.6259,5.6447,5.5731,5.5089,5.4649,5.5667,5.5509,5.4649,5.5408,5.5262,5.4529,5.3783,5.3518,5.3518,0.0,5.3518,5.3518,5.3518,5.3518,5.3518,5.3518,5.3518,5.3585,5.4093,5.4414,5.4634,5.4905,5.5327,5.5631,5.5395,5.553,5.5834,5.6308,5.6427,5.663,5.7374,5.7509,5.7629,5.7848,5.79,5.79,5.79,5.79,5.8051,5.8558,5.8626,5.8829,5.9302,5.9573,5.9742,5.9742,5.9505,5.937,5.937,5.937,5.937,5.937,5.937,5.937,5.937,5.937,5.937,5.937,5.937,5.937,5.937,5.937,5.937,5.937,5.937,5.937,5.937,5.937,5.937,5.937,5.937,5.937,5.937,5.937,5.9066,5.8626,5.8626,5.8321,5.79,0.0,0.0,0.0,0.0,0.0,0.0,0.0,0.0,0.0,0.0,0.0,0.0,0.0,0.0,0.0,0.0,0.0,5.7352,5.5808,5.6902,5.7253,5.6487,5.7204,5.7004,5.5738,5.5709,5.5203,5.42,5.42,5.4715,5.5695,5.5681,5.5681,5.5645,5.5208,5.4848,5.4618,5.5099,5.5188,5.4994,5.5217,5.5009,5.4529,5.3783,5.3518,0.0,5.3518,5.3518,5.3518,5.3518,5.3518,5.3518,5.3518,5.3687,5.4025,5.4769,5.5175,5.5412,5.5631,5.6071,5.6427,5.6139,5.6274,5.663,5.7103,5.7171,5.734,5.778,5.79,5.79,5.79,5.79,5.8001,5.8254,5.8287,5.8558,5.9302,5.9404,5.9573,6.0047,6.0351,6.052,6.052,6.0757,6.0689,6.0148,6.0114,6.0114,6.0114,6.0114,6.0114,6.0114,6.0114,6.0114,6.0114,6.0114,6.0114,6.0114,6.0114,6.0114,6.0114,6.0114,6.0114,6.0114,6.0114,6.0114,6.0114,6.0114,6.0114,6.0114,6.0114,5.981,5.9404,5.9404,5.9099,5.8592,0.0,0.0,0.0,0.0,0.0,0.0,0.0,0.0,0.0,0.0,0.0,0.0,0.0,0.0,0.0,0.0,0.0,0.0,5.5865,5.6487,5.6589,5.5752,5.6461,5.6501,5.5738,5.5709,5.5014,5.3618,5.3568,5.3568,5.3651,5.4969,5.4848,5.3618,5.4984,5.5188,5.456,5.4591,5.4999,5.5538,5.4878,5.4591,5.4466,5.3767,5.3518,5.3518,5.3518,5.3518,5.3518,5.3518,5.3518,5.3518,5.3518,5.4025,5.4735,5.5462,5.6206,5.6664,5.6003,5.6833,5.7712,5.7036,5.7374,5.79,5.79,5.79,5.79,5.79,5.7934,5.7967,5.7967,5.8001,5.822,5.8945,5.9047,5.9317,6.0047,6.0148,6.0182,6.0216,6.0892,6.1366,6.1366,6.1975,6.1772,6.0317,6.0216,6.0216,6.0216,6.0216,6.0216,6.0216,6.0216,6.0216,6.0216,6.0216,6.0216,6.0216,6.0216,6.0216,6.0216,6.0216,6.0216,6.0216,6.0216,6.0216,6.0216,6.0216,6.0216,6.0216,6.0216,6.0182,6.0148,6.0148,6.0148,5.9911,0.0,0.0,0.0,0.0,0.0,0.0,0.0,0.0,0.0,0.0,0.0,0.0,0.0,0.0,0.0,0.0,0.0,0.0,5.6655,5.729,5.7105,5.5766,5.6461,5.6501,5.5738,5.5709,5.5524,5.5149,5.4591,5.4606,5.5099,5.4407,5.4155,5.4312,5.4139,5.3962,5.3833,5.4375,5.4372,5.4074,5.4451,5.4264,5.3767,5.3568,5.3518,5.3518,5.3518,5.3518,5.3518,5.3518,5.3518,5.3518,5.3518,5.4025,5.4735,5.5462,5.6206,5.6867,5.7239,5.7629,5.7848,5.7663,5.7764,5.79,5.79,5.79,5.79,5.79,5.8355,5.8727,5.8727,5.9167,5.9607,5.981,5.981,6.008,6.0892,6.0994,6.1197,6.1738,6.1975,6.211,6.211,6.2299,6.2265,6.1839,6.1806,6.1806,6.1806,6.1806,6.1806,6.1806,6.1806,6.1806,6.1806,6.1806,6.1806,6.1806,6.1806,6.1806,6.1806,6.1806,6.1806,6.1806,6.1806,6.1806,6.1806,6.1806,6.1806,6.1806,6.1806,6.1467,6.0994,6.0994,6.0622,6.0047,0.0,0.0,0.0,0.0,0.0,0.0,0.0,0.0,0.0,0.0,0.0,0.0,0.0,0.0,0.0,0.0,0.0,0.0,0.0,5.7302,5.7141,5.6272,5.6655,5.6501,5.5738,5.5709,5.5379,5.4745,5.4653,5.4818,5.5203,5.5044,5.4999,5.5054,5.4653,5.4485,5.4469,5.42,5.4232,0.0,0.0,5.4058,5.3962,5.3635,5.3518,5.3518,5.3518,5.3518,5.3518,5.3518,5.3721,5.4025,5.4346,5.4972,5.5716,5.6461,5.6968,5.7374,5.7798,5.79,5.79,5.79,5.79,5.79,5.79,5.79,5.7983,5.8321,5.8709,5.9081,5.9419,5.981,6.0216,6.0554,6.0622,6.0892,6.167,6.1772,6.1941,6.2367,6.24,6.24,6.24,6.24,6.24,6.24,6.24,6.24,6.24,6.24,6.24,6.24,6.24,6.24,6.24,6.24,6.24,6.24,6.24,6.24,6.24,6.24,6.24,6.24,6.24,6.24,6.24,6.24,6.24,6.24,6.24,6.2144,6.1772,6.1772,6.1501,6.1095,0.0,0.0,0.0,0.0,0.0,0.0,0.0,0.0,0.0,0.0,0.0,0.0,0.0,0.0,0.0,0.0,0.0,0.0,0.0,0.0,5.7002,5.6899,5.6899,5.6576,5.5879,5.5766,5.5158,5.4108,5.4529,5.4741,5.4772,5.6012,5.6177,5.5408,5.5408,5.5408,5.532,5.4026,5.4251,5.5291,5.4027,5.3881,5.4372,0.0,0.0,5.3518,5.3518,5.3551,5.3653,5.3653,5.4059,5.4702,5.5327,5.6139,5.6934,5.7577,5.7832,5.79,5.79,5.79,5.79,5.79,5.79,5.79,5.79,5.8001,5.822,5.8878,5.9148,5.9487,6.0148,6.0351,6.0622,6.1332,6.1467,6.167,6.2333,6.24,6.24,6.24,6.24,6.24,6.24,6.24,6.24,6.24,6.24,6.24,6.24,6.24,6.24,6.24,6.24,6.24,6.24,6.24,6.24,6.24,6.24,6.24,6.24,6.24,6.24,6.24,6.24,6.24,6.24,6.24,6.24,6.24,6.24,6.24,6.24,6.24,6.24,6.24,0.0,0.0,0.0,0.0,0.0,0.0,0.0,0.0,0.0,0.0,5.7997,5.7997,0.0,0.0,0.0,0.0,0.0,0.0,0.0,0.0,0.0,5.6925,5.6899,5.6848,5.6682,5.6031,5.6196,5.7228,5.6073,5.5524,5.5509,5.5179,5.4591,5.3864,5.3864,5.3864,5.3848,5.3618,5.3651,5.3882,5.3601,5.3568,5.3701,0.0,0.0,0.0,5.3518,5.389,5.4397,5.4397,5.4482,5.4617,5.4735,5.5716,5.6833,5.6934,5.7408,5.79,5.79,5.79,5.79,5.79,5.79,5.79,5.79,5.8355,5.8844,5.8979,5.9994,6.096,6.1061,6.1603,6.2062,6.2197,6.2212,6.2245,6.24,6.24,6.24,6.24,6.24,6.24,6.24,6.24,6.24,6.24,6.24,6.24,6.24,6.24,6.24,6.24,6.24,6.24,6.24,6.24,6.24,6.24,6.24,6.24,6.24,6.24,6.24,6.24,6.24,6.24,6.24,6.24,6.24,6.24,6.24,6.24,6.24,6.24,6.24,6.24,0.0,0.0,0.0,0.0,0.0,0.0,0.0,5.7997,5.7997,5.7997,5.7997,5.7997,5.7997,5.7997,5.7997,0.0,0.0,0.0,0.0,0.0,0.0,0.0,5.7462,5.7302,5.6912,5.6536,5.6487,5.6802,0.0,5.6326,5.6326,5.6367,5.5984,5.5258,5.4837,5.4438,5.4042,5.3651,5.3518,5.3518,5.3518,5.3518,0.0,0.0,0.0,0.0,5.3518,5.3957,5.4617,5.4617,5.5108,5.575,5.575,5.6494,5.7374,5.7374,5.7611,5.79,5.79,5.79,5.79,5.79,5.79,5.8001,5.8389,5.8761,5.9216,6.0047,6.0791,6.1434,6.1806,6.2144,6.24,6.24,6.24,6.24,6.24,6.24,6.24,6.24,6.2753,6.2956,6.2956,6.3328,6.3396,6.299,6.2956,6.2787,6.2434,6.24,6.24,6.24,6.24,6.24,6.24,6.24,6.24,6.24,6.24,6.24,6.24,6.24,6.24,6.24,6.24,6.24,6.24,6.24,6.24,6.24,6.24,6.24,6.24,6.24,6.24,6.24,0.0,0.0,0.0,0.0,0.0,0.0,0.0,5.7997,5.7997,5.7997,5.7997,5.7997,5.7997,5.7997,5.7997,0.0,0.0,0.0,0.0,0.0,0.0,0.0,0.0,0.0,5.7128,0.0,0.0,5.6196,5.6668,0.0,0.0,0.0,0.0,0.0,5.5808,5.5129,5.456,5.3833,5.3518,0.0,0.0,5.3518,0.0,0.0,0.0,0.0,0.0,5.4194,5.4871,5.5006,5.5953,5.7036,5.7036,5.7442,5.79,5.79,5.79,5.79,5.79,5.79,5.79,5.79,5.79,5.8084,5.881,5.9115,5.9622,6.1028,6.1434,6.1704,6.2299,6.24,6.24,6.24,6.24,6.24,6.24,6.24,6.2448,6.2618,6.3159,6.3545,6.3714,6.4275,6.4377,6.3781,6.3748,6.3362,6.2468,6.24,6.24,6.24,6.24,6.24,6.24,6.24,6.24,6.24,6.24,6.24,6.24,6.24,6.24,6.24,6.24,6.24,6.24,6.24,6.24,6.24,6.24,6.24,6.24,6.24,6.24,6.24,0.0,0.0,0.0,0.0,0.0,0.0,0.0,5.7997,5.7997,5.7997,5.7997,5.7997,5.7997,5.7997,5.7997,0.0,0.0,0.0,0.0,0.0,0.0,0.0,0.0,0.0,0.0,0.0,0.0,5.7797,5.7179,0.0,0.0,0.0,0.0,0.0,0.0,5.4649,5.456,5.3833,0.0,0.0,0.0,0.0,0.0,0.0,0.0,0.0,0.0,5.4972,5.5699,5.6393,5.7137,5.7798,5.7798,5.7866,5.79,5.79,5.79,5.79,5.79,5.79,5.79,5.79,5.79,5.8084,5.881,5.9539,6.025,6.1129,6.1839,6.2313,6.24,6.24,6.24,6.24,6.24,6.24,6.24,6.24,6.2651,6.3328,6.3443,6.3748,6.4444,6.4546,6.458,6.4512,6.4512,6.3869,6.2502,6.24,6.24,6.24,6.24,6.24,6.24,6.24,6.24,6.24,6.24,6.24,6.24,6.24,6.24,6.24,6.24,6.24,6.24,6.24,6.24,6.24,6.24,6.24,6.24,6.24,6.24,6.24,0.0,0.0,0.0,0.0,0.0,0.0,5.7997,5.7997,5.7997,5.7997,5.7997,5.7997,5.7997,5.7997,5.7997,5.7997,0.0,0.0,0.0,0.0,0.0,0.0,0.0,0.0,0.0,0.0,5.7714,5.7997,5.7714,0.0,0.0,0.0,0.0,0.0,0.0,5.5472,5.4622,5.4741,0.0,0.0,0.0,0.0,0.0,0.0,0.0,0.0,0.0,0.0,5.58,5.6562,5.7273,5.79,5.79,5.79,5.79,5.79,5.79,5.79,5.79,5.79,5.79,5.79,5.822,5.8761,5.9505,6.025,6.1028,6.1806,6.2178,6.24,6.24,6.24,6.24,6.24,6.24,6.24,6.24,6.24,6.2651,6.3409,6.3903,6.4444,6.5189,6.5662,6.573,6.529,6.485,6.4343,6.3768,6.3294,6.3057,6.3057,6.2618,6.24,6.24,6.24,6.24,6.24,6.24,6.24,6.24,6.24,6.24,6.24,6.24,6.24,6.24,6.24,6.24,6.24,6.24,6.24,6.24,6.24,6.24,6.24,0.0,0.0,0.0,0.0,0.0,5.7997,5.7997,5.7997,5.7997,5.7997,5.7997,5.7997,5.7997,5.7997,5.7997,5.7997,5.7997,0.0,0.0,0.0,0.0,0.0,0.0,0.0,0.0,0.0,5.7997,5.7997,5.7997,5.7997,0.0,0.0,5.7726,5.724,0.0,0.0,0.0,0.0,0.0,0.0,0.0,0.0,0.0,0.0,0.0,0.0,0.0,0.0,0.0,0.0,0.0,5.79,5.79,5.79,5.79,5.79,5.79,5.79,5.79,5.79,5.79,5.79,5.8457,5.9182,5.9945,6.0723,6.1501,6.2245,6.24,6.24,6.24,6.24,6.24,6.24,6.24,6.24,6.24,6.24,6.2753,6.3714,6.4275,6.4986,6.5933,6.6508,6.6576,6.6068,6.5527,6.5256,6.5256,6.4546,6.4072,6.3815,6.3328,6.3024,6.3024,6.3024,6.3024,6.3024,6.3024,6.3024,6.3024,6.3024,6.3024,6.3024,6.3024,6.3024,6.3024,6.3024,6.3024,6.3024,6.3024,6.3024,6.3024,6.3024,6.3024,6.3024,0.0,0.0,0.0,0.0,0.0,0.0,5.7997,5.7997,5.7997,5.7997,5.7997,5.7997,5.7997,5.7997,5.7997,5.7997,5.7997,0.0,0.0,0.0,0.0,0.0,0.0,0.0,0.0,0.0,5.7997,5.7997,5.7997,5.7997,5.7997,5.7997,5.7997,5.7962,0.0,0.0,0.0,0.0,0.0,0.0,0.0,0.0,0.0,0.0,0.0,0.0,0.0,0.0,0.0,0.0,0.0,0.0,0.0,5.79,5.79,5.79,5.79,5.79,5.79,5.79,5.79,5.79,5.8457,5.9182,5.9945,6.0723,6.1501,6.2245,6.24,6.24,6.24,6.24,6.24,6.24,6.24,6.24,6.24,6.24,6.2922,6.441,6.4613,6.5189,6.6656,6.6791,6.6791,6.6791,6.6757,6.6757,6.6757,6.6068,6.5324,6.4613,6.458,6.458,6.458,6.458,6.458,6.458,6.458,6.458,6.458,6.458,6.458,6.458,6.458,6.458,6.458,6.458,6.458,6.458,6.458,6.458,6.458,6.458,6.458,6.4478,0.0,0.0,0.0,0.0,0.0,0.0,0.0,5.7997,5.7997,5.7997,5.7997,5.7997,5.7997,5.7997,5.7997,5.7997,5.7997,0.0,0.0,0.0,0.0,0.0,0.0,0.0,0.0,0.0,5.7997,5.7997,5.7997,5.7997,5.7997,5.7997,5.7997,5.7997,5.775,5.6927,0.0,0.0,0.0,0.0,0.0,0.0,5.3551,0.0,0.0,0.0,0.0,0.0,0.0,0.0,0.0,0.0,0.0,0.0,0.0,5.79,5.79,5.79,5.79,5.79,5.79,5.79,5.8829,5.981,6.0047,6.1095,6.211,6.2367,6.24,6.24,6.24,6.24,6.24,6.24,6.24,6.24,6.24,6.24,6.2976,6.441,6.5493,6.6284,6.6757,6.6791,6.6791,6.6791,6.6791,6.6791,6.6791,6.6576,6.6102,6.5378,6.485,6.4613,6.4613,6.4613,6.4613,6.4613,6.4613,6.4613,6.4613,6.4613,6.4613,6.4613,6.4613,6.4613,6.4613,6.4613,6.4613,6.4613,6.4613,6.4613,6.4613,6.4613,6.4613,6.458,0.0,0.0,0.0,0.0,0.0,0.0,0.0,5.7997,5.7997,5.7997,5.7997,5.7997,5.7997,5.7997,5.7997,5.7997,5.7997,0.0,0.0,0.0,0.0,0.0,0.0,0.0,5.7997,5.7997,5.7997,5.7997,5.7997,5.7997,5.7997,5.7997,5.7997,5.7997,5.7997,5.7315,0.0,0.0,0.0,0.0,0.0,0.0,5.3584,0.0,0.0,0.0,0.0,0.0,0.0,0.0,0.0,0.0,0.0,0.0,0.0,0.0,5.79,5.79,5.79,5.79,5.79,5.79,5.8795,5.9776,6.0047,6.1061,6.2042,6.2347,6.24,6.24,6.24,6.24,6.24,6.24,6.24,6.24,6.24,6.2618,6.3362,6.485,6.6068,6.6791,6.6791,6.6791,6.6791,6.6791,6.6791,6.6791,6.6791,6.6791,6.6588,6.6136,6.5662,6.5425,6.5425,6.5425,6.5425,6.5425,6.5425,6.5425,6.5425,6.5425,6.5425,6.5425,6.5425,6.5425,0.0,6.5425,6.5425,6.5425,6.5425,6.5425,6.5425,6.5425,6.5425,6.5392,0.0,0.0,0.0,0.0,0.0,0.0,0.0,5.7997,5.7997,5.7997,5.7997,5.7997,5.7997,5.7997,5.7997,5.7997,0.0,0.0,0.0,0.0,0.0,0.0,0.0,0.0,5.7997,5.7997,5.7997,5.7997,5.7997,5.7997,5.7997,5.7997,5.7997,5.7997,5.7997,5.7631,0.0,0.0,0.0,0.0,0.0,0.0,0.0,0.0,0.0,0.0,0.0,0.0,0.0,0.0,0.0,0.0,0.0,0.0,0.0,0.0,0.0,0.0,0.0,5.79,5.79,5.79,5.8457,5.9182,5.9945,6.0723,0.0,6.2245,6.24,6.24,6.24,6.24,6.24,6.24,6.24,6.24,6.24,6.3091,6.4106,6.5527,6.6339,6.6791,6.6791,6.6791,6.6791,6.6791,6.6791,6.6791,6.6791,6.6791,6.6791,6.6791,6.6791,6.6791,6.6791,6.6791,6.6791,6.6791,6.6791,6.6791,6.6791,6.6791,6.6791,6.6791,6.6791,6.6791,6.6791,6.6791,6.6791,6.6791,6.6791,6.6791,6.6791,6.6791,6.6791,6.669,0.0,0.0,0.0,0.0,0.0,0.0,0.0,0.0,0.0,0.0,5.7997,5.7997,5.7997,5.7997,5.7997,0.0,0.0,0.0,0.0,0.0,0.0,0.0,0.0,0.0,5.7997,5.7997,5.7997,5.7997,5.7997,5.7997,5.7997,5.7997,5.7997,5.7997,5.7997,5.7916,0.0,0.0,0.0,0.0,0.0,0.0,0.0,0.0,0.0,0.0,5.5158,5.5699,0.0,0.0,0.0,0.0,0.0,0.0,0.0,0.0,5.79,5.79,5.79,0.0,5.79,5.79,5.8457,5.9182,0.0,6.0723,6.1501,6.2245,6.24,6.24,6.24,6.24,6.24,6.24,6.24,6.24,6.24,6.3531,6.4681,6.5581,6.6339,6.6791,6.6791,6.6791,6.6791,6.6791,6.6791,6.6791,6.6791,6.6791,6.6791,6.6791,6.6791,6.6791,6.6791,6.6791,6.6791,6.6791,6.6791,6.6791,6.6791,6.6791,6.6791,6.6791,6.6791,6.6791,6.6791,6.6791,6.6791,6.6791,6.6791,6.6791,6.6791,6.6791,6.6791,6.6757,0.0,0.0,0.0,0.0,0.0,0.0,0.0,0.0,0.0,0.0,0.0,5.7997,5.7997,5.7997,0.0,0.0,0.0,0.0,0.0,0.0,0.0,0.0,0.0,5.7997,5.7997,5.7997,5.7997,5.7997,5.7997,5.7997,5.7997,5.7997,5.7997,5.7997,5.7997,5.7997,0.0,0.0,0.0,0.0,5.6899,0.0,0.0,0.0,0.0,0.0,5.5553,5.5979,0.0,5.7408,5.79,5.79,0.0,0.0,0.0,0.0,5.79,5.79,5.79,5.79,5.79,5.79,5.8186,5.8795,5.9844,6.0452,6.1061,6.2164,6.24,6.24,6.24,6.24,6.24,6.24,6.24,6.2637,6.3294,6.4377,6.5392,6.6102,6.6576,6.6791,6.6791,6.6791,6.6791,6.6791,6.6791,6.6791,6.6791,6.6791,6.6791,6.6791,6.6791,6.6791,6.6791,6.6791,6.6791,6.6791,6.6791,6.6791,6.6791,6.6791,6.6791,6.6791,6.6791,6.6791,6.6791,6.6791,6.6791,6.6791,6.6791,6.6791,6.6791,6.6791,6.6791,6.6791,0.0,0.0,0.0,0.0,0.0,0.0,0.0,0.0,0.0,0.0,0.0,0.0,0.0,0.0,0.0,0.0,0.0,0.0,0.0,0.0,0.0,0.0,5.7997,5.7997,5.7997,5.7997,5.7997,5.7997,5.7997,5.7997,5.7997,5.7997,5.7997,5.7997,5.7997,5.7997,0.0,0.0,0.0,0.0,5.7065,0.0,0.0,0.0,0.0,0.0,0.0,0.0,0.0,5.7554,5.8009,5.79,5.79,0.0,0.0,0.0,0.0,0.0,5.79,5.79,5.79,5.79,5.79,5.8306,5.9742,6.0114,6.0554,6.2076,6.24,6.24,6.24,6.24,6.24,6.24,6.2482,6.3091,6.4546,6.529,6.5967,6.669,6.6791,6.6791,6.6791,6.6791,6.6791,6.6791,6.6791,6.6791,6.6791,6.6791,6.6791,6.6791,6.6791,6.6791,6.6791,6.6791,6.6791,6.6791,6.6791,6.6791,6.6791,6.6791,6.6791,6.6791,6.6791,6.6791,6.6791,6.6791,6.6791,6.6791,6.6791,6.6791,6.6791,6.6791,6.6791,6.6791,0.0,0.0,0.0,0.0,0.0,0.0,0.0,0.0,0.0,0.0,0.0,0.0,0.0,0.0,0.0,0.0,0.0,0.0,0.0,0.0,0.0,5.7997,5.7997,5.7997,5.7997,5.7997,5.7997,5.7997,5.7997,5.7997,5.7997,5.7997,5.7997,5.7997,5.7997,5.7997,5.7997,0.0,0.0,0.0,5.7821,0.0,0.0,0.0,0.0,0.0,0.0,0.0,0.0,5.8187,5.8441,5.79,5.79,0.0,0.0,0.0,0.0,0.0,5.79,5.79,5.79,5.79,5.79,5.8306,5.9742,6.0114,6.0554,6.2076,6.24,6.24,6.24,6.24,6.24,6.24,6.2922,6.3869,6.5324,6.5649,6.5967,6.669,6.6791,6.6791,6.6791,6.6791,6.6791,6.6791,6.6791,6.6791,6.6791,6.6791,6.6791,6.6791,6.6791,6.6791,6.6791,6.6791,6.6791,6.6791,6.6791,6.6791,6.6791,6.6791,6.6791,6.6791,6.6791,6.6791,6.6791,6.6791,6.6791,6.6791,6.6791,6.6791,6.6791,6.6791,6.6791,6.6791,0.0,0.0,0.0,0.0,0.0,0.0,0.0,0.0,0.0,0.0,0.0,0.0,0.0,0.0,0.0,0.0,0.0,0.0,0.0,0.0,5.7997,5.7997,5.7997,5.7997,5.7997,5.7997,5.7997,5.7997,5.7997,5.7997,5.7997,5.7997,5.7997,5.7997,5.7997,5.7997,5.7997,5.7997,0.0,0.0,0.0,0.0,0.0,0.0,0.0,0.0,0.0,0.0,0.0,0.0,5.8943,5.7991,5.8423,0.0,0.0,0.0,0.0,0.0,5.79,5.79,5.79,5.79,5.79,5.8306,5.9742,6.0114,6.0554,6.2076,6.24,6.24,6.24,6.24,6.2516,6.2922,6.3937,6.4918,6.5615,6.6034,6.644,6.6757,6.6791,6.6791,6.6791,6.6791,6.6791,6.6791,6.6791,6.6791,6.6791,6.6791,6.6791,6.6791,6.6791,6.6791,6.6791,6.6791,6.6791,6.6791,6.6791,6.6791,6.6791,6.6791,6.6791,6.6791,6.6791,6.6791,6.6791,6.6791,6.6791,6.6791,6.6791,6.6791,6.6791,6.6791,6.6791,6.6791,0.0,0.0,0.0,0.0,0.0,0.0,0.0,0.0,0.0,0.0,0.0,0.0,0.0,0.0,0.0,0.0,0.0,0.0,0.0,5.7997,5.7997,5.7997,5.7997,5.7997,5.7997,5.7997,5.7997,5.7997,5.7997,5.7997,5.7997,5.7997,5.7997,5.7997,5.7997,5.7997,5.7997,5.7997,5.7997,0.0,0.0,0.0,0.0,0.0,0.0,0.0,0.0,0.0,0.0,0.0,0.0,0.0,0.0,0.0,0.0,5.8119,5.8029,5.79,5.79,5.79,5.7934,5.8118,5.8152,5.849,5.981,6.025,6.0757,6.213,6.24,6.24,6.24,6.2516,6.2888,6.3646,6.485,6.5784,6.5933,6.644,6.6791,6.6791,6.6791,6.6791,6.6791,6.6791,6.6791,6.6791,6.6791,6.6791,6.6791,6.6791,6.6791,6.6791,6.6791,6.6791,6.6791,6.6791,6.6791,6.6791,6.6791,6.6791,6.6791,6.6791,6.6791,6.6791,6.6791,6.6791,6.6791,6.6791,6.6791,6.6791,6.6791,6.6791,6.6791,6.6791,6.6791,6.6791,0.0,0.0,0.0,0.0,0.0,0.0,0.0,0.0,0.0,0.0,0.0,0.0,0.0,0.0,0.0,0.0,0.0,0.0,0.0,5.7997,5.7997,5.7997,5.7997,5.7997,5.7997,5.7997,5.7997,5.7997,5.7997,5.7997,5.7997,5.7997,5.7997,5.7997,5.7997,5.7997,5.7997,5.7997,5.7997,5.7997,0.0,0.0,0.0,0.0,0.0,0.0,0.0,0.0,0.0,0.0,0.0,0.0,0.0,0.0,5.8029,5.8789,5.8476,5.79,5.79,5.79,5.8051,5.8761,5.8912,5.9133,5.9911,6.0689,6.1434,6.2265,6.24,6.24,6.24,6.2956,6.3646,6.441,6.5189,6.5933,6.6622,6.6757,6.6791,6.6791,6.6791,6.6791,6.6791,6.6791,6.6791,6.6791,6.6791,6.6791,6.6791,6.6791,6.6791,6.6791,6.6791,6.6791,6.6791,6.6791,6.6791,6.6791,6.6791,6.6791,6.6791,6.6791,6.6791,6.6791,6.6791,6.6791,6.6791,6.6791,6.6791,6.6791,6.6791,6.6791,6.6791,6.6791,6.6791,6.6791,0.0,0.0,0.0,0.0,0.0,0.0,0.0,0.0,0.0,0.0,0.0,0.0,0.0,0.0,0.0,0.0,0.0,0.0,0.0,5.7997,5.7997,5.7997,5.7997,5.7997,5.7997,5.7997,5.7997,5.7997,5.7997,5.7997,5.7997,5.7997,5.7997,5.7997,5.7997,5.7997,5.7997,5.7997,5.7997,5.7997,5.7997,0.0,0.0,0.0,0.0,0.0,0.0,0.0,0.0,0.0,6.0626,5.9639,6.079,5.9988,5.8686,5.8993,5.8529,5.8027,5.8494,5.8668,5.8822,5.9612,6.0144,6.0565,6.0789,6.1095,6.1501,6.2245,6.24,6.2516,6.299,6.37,6.4444,6.5155,6.5899,6.6474,6.6757,6.6791,6.6791,6.6791,6.6791,6.6791,6.6791,6.6791,6.6791,6.6791,6.6791,6.6791,6.6791,6.6791,6.6791,6.6791,6.6791,6.6791,6.6791,6.6791,6.6791,6.6791,6.6791,6.6791,6.6791,6.6791,6.6791,6.6791,6.6791,6.6791,6.6791,6.6791,6.6791,6.6791,6.6791,6.6791,6.6791,6.6791,6.6791,6.6791,0.0,0.0,0.0,0.0,0.0,0.0,0.0,0.0,0.0,0.0,0.0,0.0,0.0,0.0,0.0,0.0,0.0,0.0,5.7997,5.7997,5.7997,5.7997,5.7997,5.7997,5.7997,5.7997,5.7997,5.7997,5.7997,5.7997,5.7997,5.7997,5.7997,5.7997,5.7997,5.7997,5.7997,5.7997,5.7997,5.7997,5.7997,5.7997,0.0,0.0,0.0,0.0,0.0,0.0,0.0,0.0,6.1064,6.0534,6.1329,6.0635,5.9459,5.9178,5.8909,5.8755,5.9044,5.9485,6.0034,6.0514,6.1242,6.1737,6.1664,6.1637,6.1772,6.2299,6.2584,6.2888,6.3409,6.4309,6.5121,6.5615,6.6305,6.6791,6.6791,6.6791,6.6791,6.6791,6.6791,6.6791,6.6791,6.6791,6.6791,6.6791,6.6791,6.6791,6.6791,6.6791,6.6791,6.6791,6.6791,6.6791,6.6791,6.6791,6.6791,6.6791,6.6791,6.6791,6.6791,6.6791,6.6791,6.6791,6.6791,6.6791,6.6791,6.6791,6.6791,6.6791,6.6791,6.6791,6.6791,6.6791,6.6791,6.6791,0.0,0.0,0.0,0.0,0.0,0.0,0.0,0.0,0.0,0.0,0.0,0.0,0.0,0.0,0.0,0.0,0.0,0.0,5.7997,5.7997,5.7997,5.7997,5.7997,5.7997,5.7997,5.7997,5.7997,5.7997,5.7997,5.7997,5.7997,5.7997,5.7997,5.7997,5.7997,5.7997,5.7997,5.7997,5.7997,5.7997,5.7997,5.7997,0.0,0.0,0.0,0.0,0.0,0.0,0.0,0.0,6.1077,6.0549,6.1343,6.1055,6.0227,5.9377,5.9736,6.0196,5.9344,6.0345,6.1584,6.1466,6.2039,6.2586,6.245,6.24,6.24,6.2415,6.299,6.3511,6.3511,6.4715,6.5717,6.5717,6.6339,6.6791,6.6791,6.6791,6.6791,6.6791,6.6791,6.6791,6.6791,6.6791,6.6791,6.6791,6.6791,6.6791,6.6791,6.6791,6.6791,6.6791,6.6791,6.6791,6.6791,6.6791,6.6791,6.6791,6.6791,6.6791,6.6791,6.6791,6.6791,6.6791,6.6791,6.6791,6.6791,6.6791,6.6791,6.6791,6.6791,6.6791,6.6791,6.6791,6.6791,6.6791,0.0,0.0,0.0,0.0,0.0,0.0,0.0,0.0,0.0,0.0,0.0,0.0,0.0,0.0,0.0,0.0,0.0,0.0,5.7997,5.7997,5.7997,5.7997,5.7997,5.7997,5.7997,5.7997,5.7997,5.7997,5.7997,5.7997,5.7997,5.7997,5.7997,5.7997,5.7997,5.7997,5.7997,5.7997,5.7997,5.7997,5.7997,5.7997,5.7997,0.0,0.0,0.0,0.0,0.0,0.0,0.0,0.0,0.0,6.2363,6.1901,6.1084,6.0258,6.0196,6.0196,5.9344,6.0725,6.2415,6.2345,6.3345,6.4173,6.3474,6.2836,6.257,6.3057,6.3342,6.3815,6.485,6.5412,6.5865,6.6406,6.6677,6.6791,6.6791,6.6791,6.6791,6.6791,6.6791,6.6791,6.6791,6.6791,6.6791,6.6791,6.6791,6.6791,6.6791,6.6791,6.6791,6.6791,6.6791,6.6791,6.6791,6.6791,6.6791,6.6791,6.6791,6.6791,6.6791,6.6791,6.6791,6.6791,6.6791,6.6791,6.6791,6.6791,6.6791,6.6791,6.6791,6.6791,6.6791,6.6791,6.6791,6.6791,0.0,0.0,0.0,0.0,0.0,0.0,0.0,0.0,0.0,0.0,0.0,0.0,0.0,0.0,0.0,0.0,0.0,0.0,0.0,5.7997,5.7997,5.7997,5.7997,5.7997,5.7997,5.7997,5.7997,5.7997,5.7997,5.7997,5.7997,5.7997,5.7997,5.7997,5.7997,5.7997,5.7997,5.7997,5.7997,5.7997,5.7997,5.7997,5.7997,0.0,0.0,0.0,0.0,0.0,0.0,0.0,0.0,0.0,6.2402,6.2219,6.1874,6.0715,6.0835,6.1228,6.072,6.2137,6.3786,6.3698,6.4638,6.5279,6.3991,6.3251,6.2956,6.3409,6.3971,6.4647,6.5547,6.5933,6.6271,6.6745,6.6791,6.6791,6.6791,6.6791,6.6791,6.6791,6.6791,6.6791,6.6791,6.6791,6.6791,6.6791,6.6791,6.6791,6.6791,6.6791,6.6791,6.6791,6.6791,6.6791,6.6791,6.6791,6.6791,6.6791,6.6791,6.6791,6.6791,6.6791,6.6791,6.6791,6.6791,6.6791,6.6791,6.6791,6.6791,6.6791,6.6791,6.6791,6.6791,6.6791,6.6791,6.6791,0.0,0.0,0.0,0.0,0.0,0.0,0.0,0.0,0.0,0.0,0.0,0.0,0.0,0.0,0.0,0.0,0.0,0.0,0.0,5.7997,5.7997,5.7997,5.7997,5.7997,5.7997,5.7997,5.7997,5.7997,5.7997,5.7997,5.7997,5.7997,5.7997,5.7997,5.7997,5.7997,5.7997,5.7997,5.7997,5.7997,5.7997,5.7997,5.7997,5.7997,0.0,0.0,0.0,0.0,0.0,0.0,0.0,0.0,6.1955,6.2219,6.2503,6.0953,6.159,6.2775,6.2705,6.3985,6.5264,6.5149,6.5695,6.5842,6.4306,6.3817,6.3698,6.3599,6.4715,6.5717,6.5764,6.6339,6.6791,6.6791,6.6791,6.6791,6.6791,6.6791,6.6791,6.6791,6.6791,6.6791,6.6791,6.6791,6.6791,6.6791,6.6791,6.6791,6.6791,6.6791,6.6791,6.6791,6.6791,6.6791,6.6791,6.6791,6.6791,6.6791,6.6791,6.6791,6.6791,6.6791,6.6791,6.6791,6.6791,6.6791,6.6791,6.6791,6.6791,6.6791,6.6791,6.6791,6.6791,6.6791,6.6791,6.6791,0.0,0.0,0.0,0.0,0.0,0.0,0.0,0.0,0.0,0.0,0.0,0.0,0.0,0.0,0.0,0.0,0.0,0.0,0.0,5.7997,5.7997,5.7997,5.7997,5.7997,5.7997,5.7997,5.7997,5.7997,5.7997,5.7997,5.7997,5.7997,5.7997,5.7997,5.7997,5.7997,5.7997,5.7997,5.7997,5.7997,5.7997,5.7997,5.7997,5.7997,5.7997,0.0,0.0,0.0,0.0,0.0,0.0,0.0,6.2592,6.2679,6.2592,6.1632,6.2036,6.2672,6.2036,6.3536,6.5277,6.5192,6.5228,6.5394,6.5732,6.5618,6.5252,6.4524,6.5087,6.5886,6.6474,6.669,6.6791,6.6791,6.6791,6.6791,6.6791,6.6791,6.6791,6.6791,6.6791,6.6791,6.6791,6.6791,6.6791,6.6791,6.6791,6.6791,6.6791,6.6791,6.6791,6.6791,6.6791,6.6791,6.6791,6.6791,6.6791,6.6791,6.6791,6.6791,6.6791,6.6791,6.6791,6.6791,6.6791,6.6791,6.6791,6.6791,6.6791,6.6791,6.6791,6.6791,6.6791,6.6791,6.6791,6.6791,0.0,0.0,0.0,0.0,0.0,0.0,0.0,0.0,0.0,0.0,0.0,0.0,0.0,0.0,0.0,0.0,0.0,0.0,0.0,0.0,5.7997,5.7997,5.7997,5.7997,5.7997,5.7997,5.7997,5.7997,5.7997,5.7997,5.7997,5.7997,5.7997,5.7997,5.7997,5.7997,5.7997,5.7997,5.7997,5.7997,5.7997,5.7997,5.7997,5.7997,5.7997,5.8217,5.9832,0.0,0.0,0.0,0.0,0.0,0.0,0.0,6.263,6.1824,6.2192,6.2784,6.2767,6.4017,6.5467,6.6226,6.6043,6.5882,6.6797,6.6787,6.645,6.5916,6.6385,6.6874,6.6795,6.6791,6.6791,6.6791,6.6791,6.6791,6.6791,6.6791,6.6791,6.6791,6.6791,6.6791,6.6791,6.6791,6.6791,6.6791,6.6791,6.6791,6.6791,6.6791,6.6791,6.6791,6.6791,6.6791,6.6791,6.6791,6.6791,6.6791,6.6791,6.6791,6.6791,6.6791,6.6791,6.6791,6.6791,6.6791,6.6791,6.6791,6.6791,6.6791,6.6791,6.6791,6.6791,6.6791,6.6791,6.6791,0.0,0.0,0.0,0.0,0.0,0.0,0.0,0.0,0.0,0.0,0.0,0.0,0.0,0.0,0.0,0.0,0.0,0.0,0.0,0.0,0.0,5.7997,5.7997,5.7997,5.7997,5.7997,5.7997,5.7997,5.7997,5.7997,5.7997,5.7997,5.7997,5.7997,5.7997,5.7997,5.7997,5.7997,5.7997,5.7997,5.7997,5.7997,0.0,0.0,0.0,5.84,5.9869,6.0493,6.0823,6.2316,0.0,0.0,0.0,0.0,6.2679,6.2009,6.2156,6.2819,6.3942,6.4936,6.6035,6.737,6.7024,6.6665,6.761,6.7677,6.7565,6.7596,6.7917,6.7891,6.6967,6.6791,6.6791,6.6791,6.6791,6.6791,6.6791,6.6791,6.6791,6.6791,6.6791,6.6791,6.6791,6.6791,6.6791,6.6791,6.6791,6.6791,6.6791,6.6791,6.6791,6.6791,6.6791,6.6791,6.6791,6.6791,6.6791,6.6791,6.6791,6.6791,6.6791,6.6791,6.6791,6.6791,6.6791,6.6791,6.6791,6.6791,6.6791,6.6791,6.6791,6.6791,6.6791,6.6791,6.6791,6.6791,0.0,0.0,0.0,0.0,0.0,0.0,0.0,0.0,0.0,0.0,0.0,0.0,0.0,0.0,0.0,0.0,0.0,0.0,0.0,0.0,0.0,5.7997,5.7997,5.7997,5.7997,5.7997,5.7997,5.7997,5.7997,5.7997,5.7997,5.7997,5.7997,5.7997,5.7997,5.7997,5.7997,5.7997,5.7997,5.7997,5.7997,0.0,0.0,0.0,0.0,0.0,6.0077,6.086,6.1594,6.2499,6.2793,0.0,0.0,0.0,6.2768,6.2679,6.2232,6.2241,6.4513,6.6226,6.7444,6.7664,6.7024,6.6814,6.8387,6.8668,6.8793,6.9405,6.8822,6.7891,6.6967,6.6791,6.6791,6.6791,6.6791,6.6791,6.6791,6.6791,6.6791,6.6791,6.6791,6.6791,6.6791,6.6791,6.6791,6.6791,6.6791,6.6791,6.6791,6.6791,6.6791,6.6791,6.6791,6.6791,6.6791,6.6791,6.6791,6.6791,6.6791,6.6791,6.6791,6.6791,6.6791,6.6791,6.6791,6.6791,6.6791,6.6791,6.6791,6.6791,6.6791,6.6791,6.6791,6.6791,6.6791,6.6791,0.0,0.0,0.0,0.0,0.0,0.0,0.0,0.0,0.0,0.0,0.0,0.0,0.0,0.0,0.0,0.0,0.0,0.0,0.0,0.0,0.0,5.7997,5.7997,5.7997,5.7997,5.7997,5.7997,5.7997,5.7997,5.7997,5.7997,5.7997,5.7997,5.7997,5.7997,5.7997,5.7997,5.7997,0.0,0.0,0.0,0.0,0.0,0.0,0.0,0.0,0.0,0.0,6.1704,6.2536,6.2793,6.2793,6.2793,0.0,0.0,0.0,6.1901,6.2048,6.4011,6.5731,6.7103,6.7556,6.7419,6.7558,6.9196,6.9563,6.971,7.0432,7.0165,6.9369,6.7866,6.7602,6.7434,6.6896,6.6791,6.6791,6.6791,6.6791,6.6791,6.6791,6.6791,6.6791,6.6791,6.6791,6.6791,6.6791,6.6791,6.6791,6.6791,6.6791,6.6791,6.6791,6.6791,6.6791,6.6791,6.6791,6.6791,6.6791,6.6791,6.6791,6.6791,6.6791,6.6791,6.6791,6.6791,6.6791,6.6791,6.6791,6.6791,6.6791,6.6791,6.6791,6.6791,6.6791,6.6791,6.6791,0.0,0.0,0.0,0.0,0.0,0.0,0.0,0.0,0.0,0.0,0.0,0.0,0.0,0.0,0.0,0.0,0.0,0.0,0.0,0.0,0.0,5.7997,5.7997,5.7997,5.7997,5.7997,5.7997,5.7997,5.7997,5.7997,5.7997,5.7997,5.7997,5.7997,5.7997,5.7997,5.7997,0.0,0.0,0.0,0.0,0.0,0.0,0.0,0.0,0.0,0.0,0.0,0.0,6.2609,6.2793,6.2793,6.2793,6.2793,0.0,0.0,0.0,6.2428,6.3422,6.4837,6.6307,6.7433,6.7529,6.7799,6.9408,6.9963,7.0322,7.1007,7.1319,7.093,6.9242,6.8553,6.7871,6.6946,6.6791,6.6791,6.6791,6.6791,6.6791,6.6791,6.6791,6.6791,6.6791,6.6791,6.6791,6.6791,6.6791,6.6791,6.6791,6.6791,6.6791,6.6791,6.6791,6.6791,6.6791,6.6791,6.6791,6.6791,6.6791,6.6791,6.6791,6.6791,6.6791,6.6791,6.6791,6.6791,6.6791,6.6791,6.6791,6.6791,6.6791,6.6791,6.6791,6.6791,6.6791,6.6791,0.0,0.0,0.0,0.0,0.0,0.0,0.0,0.0,0.0,0.0,0.0,0.0,0.0,5.7997,5.7997,5.7997,5.7997,5.7997,5.7997,5.7997,5.7997,5.7997,5.7997,0.0,5.7997,5.7997,5.7997,5.7997,5.7997,5.7997,5.7997,5.7997,5.7997,5.7997,5.7997,5.7997,5.7997,0.0,0.0,0.0,0.0,0.0,0.0,0.0,0.0,0.0,0.0,0.0,0.0,0.0,6.2793,6.2793,6.2793,6.2793,6.278,0.0,0.0,0.0,6.3024,6.3944,6.5522,6.7272,6.7089,6.6924,6.8586,6.9559,7.0316,7.1118,7.191,7.2116,7.1143,6.9441,6.7871,6.6946,6.6791,6.6791,6.6791,6.6791,6.6791,6.6791,6.6791,6.6791,6.6791,6.6791,6.6791,6.6791,6.6791,6.6791,6.6791,6.6791,6.6791,6.6791,6.6791,6.6791,6.6791,6.6791,6.6791,6.6791,6.6791,6.6791,6.6791,6.6791,6.6791,6.6791,6.6791,6.6791,6.6791,6.6791,6.6791,6.6791,6.6791,6.6791,6.6791,6.6791,6.6791,6.6791,0.0,0.0,0.0,0.0,0.0,0.0,0.0,0.0,0.0,0.0,0.0,0.0,0.0,5.7997,5.7997,5.7997,5.7997,5.7997,5.7997,5.7997,5.7997,5.7997,5.7997,5.7997,5.7997,5.7997,5.7997,5.7997,5.7997,5.7997,5.7997,5.8547,5.8756,5.8756,5.8217,5.7997,5.7997,5.7997,0.0,0.0,0.0,0.0,0.0,0.0,0.0,0.0,0.0,0.0,0.0,0.0,0.0,0.0,0.0,0.0,6.2579,6.1562,6.212,6.2919,6.218,6.303,6.4461,6.5681,6.6201,6.6695,6.7789,6.9112,7.033,7.1123,7.1931,7.2226,7.1271,7.004,6.887,6.7921,6.7202,6.6791,6.6791,6.6791,6.6791,6.6791,6.6791,6.6791,6.6791,6.6791,6.6791,6.6791,6.6791,6.6791,6.6791,6.6791,6.6791,6.6791,6.6791,6.6791,6.6791,6.6791,6.6791,6.6791,6.6791,6.6791,6.6791,6.6791,6.6791,6.6791,6.6791,6.6791,6.6791,6.6791,6.6791,6.6791,6.6791,6.6791,6.6791,6.6791,6.6791,6.6791,0.0,0.0,0.0,0.0,0.0,0.0,0.0,0.0,0.0,0.0,0.0,0.0,0.0,0.0,5.829,5.8033,5.7997,5.7997,5.7997,5.7997,5.7997,5.7997,5.7997,5.7997,5.7997,5.7997,5.8143,5.84,5.84,5.8547,5.8804,5.9343,5.96,5.9563,5.9061,5.8804,0.0,0.0,5.9098,5.9636,5.9893,0.0,6.1643,0.0,0.0,6.2793,6.2793,0.0,0.0,0.0,0.0,0.0,0.0,0.0,0.0,0.0,6.1447,6.2521,6.2064,6.2577,6.361,6.5117,6.5458,6.5796,6.6947,6.8283,6.9557,7.0677,7.1541,7.2006,7.1629,7.08,6.9848,6.8908,6.7676,6.6904,6.7243,6.7009,6.6791,6.6791,6.6791,6.6791,6.6791,6.6791,6.6791,6.6791,6.6791,6.6791,6.6791,6.6791,6.6791,6.6791,6.6791,6.6791,6.6791,6.6791,6.6791,6.6791,6.6791,6.6791,6.6791,6.6791,6.6791,6.6791,6.6791,6.6791,6.6791,6.6791,6.6791,6.6791,6.6791,6.6791,6.6791,6.6791,6.6791,6.6791,0.0,0.0,0.0,0.0,0.0,0.0,0.0,0.0,0.0,6.0456,0.0,0.0,0.0,0.0,0.0,5.8143,5.807,5.807,5.807,5.807,5.807,5.807,5.807,5.807,5.807,5.807,5.8437,5.9233,5.9233,5.9636,6.0419,6.0407,6.0456,6.0456,6.0456,6.0481,6.0481,6.0407,6.0419,6.0493,6.13,6.1594,6.1704,6.2499,6.2829,6.2829,6.2829,6.2866,0.0,6.2866,0.0,0.0,0.0,0.0,0.0,0.0,0.0,0.0,0.0,0.0,0.0,6.5669,6.5037,6.4183,6.594,6.6966,6.8069,6.9685,7.072,7.1527,7.2312,7.1711,7.08,6.9936,6.8141,6.7202,6.8087,6.7434,6.6854,6.6854,6.6812,6.6812,6.6854,6.6812,6.6791,6.6791,6.6791,6.6791,6.6791,6.6791,6.6791,6.6791,6.6791,6.6791,6.6791,6.6791,6.6791,6.6791,6.6791,6.6791,6.6791,6.6791,6.6791,6.6791,6.6791,6.6791,6.6791,6.6791,6.6791,6.6791,6.6791,6.6791,6.6791,6.6791,6.6791,6.6791,0.0,0.0,0.0,0.0,0.0,0.0,0.0,0.0,6.1912,0.0,0.0,0.0,6.0456,6.0187,5.9967,5.9758,5.9758,5.9758,5.9758,5.9758,5.9758,5.9758,5.9758,5.9758,5.9758,5.9758,5.9869,6.0077,6.0077,6.0187,6.0419,6.1006,6.1263,6.13,6.1887,6.2132,6.2059,6.0884,6.075,6.13,6.152,6.1961,6.2499,6.2719,6.3196,6.3723,6.3723,6.4127,6.4591,6.4591,6.4591,6.4517,0.0,0.0,0.0,0.0,0.0,0.0,6.3579,0.0,0.0,0.0,0.0,0.0,6.4496,6.6099,6.7737,6.8201,6.9887,7.138,7.16,7.1332,7.1239,7.1671,7.0126,6.8739,6.8247,6.797,6.7827,6.7827,6.7223,6.7092,6.7747,6.7202,6.6791,6.6791,6.6791,6.6791,6.6791,6.6791,6.6791,6.6791,6.6791,6.6791,6.6791,6.6791,6.6791,6.6791,6.6791,6.6791,6.6791,6.6791,6.6791,6.6791,6.6791,6.6791,6.6791,6.6791,6.6791,6.6791,6.6791,6.6791,6.6791,6.6791,6.6791,6.6791,0.0,0.0,0.0,0.0,0.0,6.2793,6.2793,6.2793,6.2646,0.0,0.0,0.0,6.1006,6.0896,6.0786,6.0419,6.0419,6.0419,6.0419,6.0419,6.0419,6.0419,6.0419,6.0419,6.0419,6.0419,6.0566,6.0896,6.0896,6.108,6.1398,6.1887,6.2108,6.2108,6.2572,6.2793,6.2756,6.1802,6.1655,6.2108,6.2108,6.2389,6.2829,6.3209,6.3649,6.4139,6.4494,6.4897,6.5288,6.5288,6.5288,0.0,0.0,0.0,0.0,0.0,0.0,0.0,0.0,0.0,0.0,6.4851,0.0,0.0,6.4751,6.5701,6.6834,6.7912,6.9301,7.0499,7.1197,7.1238,7.149,7.235,7.1557,7.0535,6.9548,6.906,6.8817,6.8817,6.832,6.8239,6.876,6.832,6.8019,6.8019,6.7622,6.7223,6.6833,6.6791,6.6791,6.6791,6.6791,6.6791,6.6791,6.6791,6.6791,6.6791,6.6791,6.6791,6.6791,6.6791,6.6791,6.6791,6.6791,6.6791,6.6791,6.6791,6.6791,6.6791,6.6791,6.6791,6.6791,6.6791,6.6791,6.6791,0.0,0.0,6.2793,6.2793,6.2793,6.2793,6.2793,6.2793,6.2793,0.0,6.2793,6.2536,6.1814,6.1741,6.1447,6.075,6.0676,6.0676,6.0676,6.0676,6.0676,6.0676,6.0676,6.0676,6.0676,6.0676,6.1006,6.1741,6.1741,6.2108,6.2793,6.2793,6.2793,6.2793,0.0,0.0,6.2793,6.2793,6.2793,6.2793,6.2793,6.2866,6.3013,6.3796,6.4213,6.447,6.5191,6.5472,6.5582,6.5582,6.5582,0.0,0.0,0.0,0.0,0.0,6.4744,0.0,0.0,0.0,0.0,0.0,6.5101,0.0,6.5748,6.5442,6.5523,6.7848,6.8483,6.9051,7.0478,7.0807,7.1165,7.2058,7.2219,7.1947,7.1223,7.04,6.9866,6.9866,6.9778,6.9743,6.9849,6.9778,6.9708,6.9708,6.876,6.7847,6.7009,6.6875,6.6791,6.6791,6.6791,6.6791,6.6791,6.6791,6.6791,6.6791,6.6791,6.6791,6.6791,6.6791,6.6791,6.6791,6.6791,6.6791,6.6791,6.6791,6.6791,6.6791,6.6791,6.6791,6.6791,6.6791,6.6791,6.6791,0.0,0.0,6.2793,6.2793,6.2793,6.2793,6.2793,6.2793,6.2793,6.2793,6.2793,6.2756,6.2572,0.0,0.0,6.2352,6.2316,6.2316,6.2316,6.2316,6.2316,6.2316,6.2316,6.2316,6.2316,6.2316,6.2426,6.2572,6.2572,6.2646,6.2793,6.2793,6.2793,6.2793,6.2793,6.2793,6.2793,6.2793,6.2793,6.2793,6.2793,6.3196,6.387,6.4029,6.491,6.6035,6.6219,6.6659,6.7223,6.7223,6.7223,6.71,6.6476,0.0,0.0,6.606,0.0,0.0,0.0,0.0,0.0,0.0,6.559,0.0,6.4323,6.4078,6.4095,6.4602,6.5776,6.6819,6.714,6.7744,6.8669,7.0253,7.0491,7.0646,7.1035,7.093,7.0816,7.0816,7.0179,7.0006,7.075,7.0162,6.9708,6.9708,6.876,6.8126,6.7931,6.7223,6.6791,6.6791,6.6791,6.6791,6.6791,6.6791,6.6791,6.6791,6.6791,6.6791,6.6791,6.6791,6.6791,6.6791,6.6791,6.6791,6.6791,6.6791,6.6791,6.6791,6.6791,6.6791,6.6791,6.6791,6.6791,6.6791,0.0,6.2793,6.2793,6.2793,6.2793,6.2793,6.2793,6.2793,6.2793,6.2793,6.2793,6.2793,6.2793,0.0,0.0,0.0,0.0,0.0,6.2793,6.2793,6.2793,6.2793,6.2793,6.2793,6.2793,6.2793,6.2793,6.2793,6.2793,6.2793,6.2793,6.2793,6.2793,6.2793,6.2793,6.2793,6.2793,6.2793,6.305,6.3466,6.3466,6.3723,6.4176,6.4984,6.5815,6.6549,6.6953,6.737,6.77,6.77,6.77,6.7627,6.7223,6.7113,6.7113,0.0,6.7113,6.7187,0.0,0.0,0.0,6.716,6.6368,0.0,0.0,6.5053,6.4902,6.4444,6.5403,6.6268,6.6197,6.6537,6.7237,6.8522,6.9122,6.9518,6.99,7.1003,7.1794,7.1794,7.1386,7.1255,7.1763,7.1386,7.0917,7.0434,6.9953,6.9441,6.8965,6.8044,6.7501,6.7501,6.705,6.6791,6.6791,6.725,6.725,6.6812,6.7782,6.7965,6.7501,6.7501,6.7501,6.7461,6.7009,6.6791,6.6791,6.6791,6.6791,6.6791,6.6791,6.6791,6.6791,6.6791,6.6791,6.6791,0.0,0.0,6.2793,6.2793,6.2793,6.2793,6.2793,0.0,6.2793,6.2793,6.2793,6.2793,0.0,0.0,0.0,0.0,0.0,0.0,6.2793,6.2793,6.2793,6.2793,6.2793,6.2793,6.2793,6.2793,6.2793,6.2793,6.2793,6.2793,6.2793,6.2793,6.2793,6.2793,6.2793,6.2793,6.2793,6.2976,6.3466,6.4139,6.4433,6.458,6.4677,6.5999,6.6586,6.6806,6.748,6.77,6.77,6.77,6.77,6.77,6.77,6.77,6.77,6.77,0.0,0.0,0.0,0.0,6.77,6.77,6.7024,6.6404,0.0,0.0,0.0,6.4933,6.5345,6.5784,6.551,6.5598,6.5947,6.6598,6.7604,6.8294,6.831,7.0184,7.1662,7.199,7.2055,7.2092,7.2261,7.2422,7.2197,7.1448,7.1207,7.0767,7.0023,6.9039,6.8401,6.8189,6.7662,6.7161,6.6812,6.7926,6.799,6.7078,6.8664,6.8984,6.8189,6.8009,6.7911,6.7871,6.712,6.6791,6.6791,6.6791,6.6791,6.6791,6.6791,6.6791,6.6791,6.6791,6.6791,6.6791,6.2793,6.2793,0.0,6.2793,6.2793,6.2793,6.2793,0.0,6.2793,6.2793,6.2793,6.2793,6.2793,0.0,0.0,0.0,0.0,6.2793,6.2793,6.2793,6.2793,6.2793,6.2793,6.2793,6.2793,6.2793,6.2793,6.2793,6.2793,6.2793,6.2793,6.2793,6.2793,6.2793,6.2793,6.2793,6.2866,6.3613,6.4029,6.4213,6.5632,6.6219,6.6256,6.6439,6.6953,6.759,6.7664,6.77,6.77,6.77,6.77,6.77,6.77,6.77,6.77,6.77,6.77,0.0,6.77,6.77,6.77,6.77,6.7024,6.6404,6.6404,0.0,6.49,6.4042,0.0,6.3772,6.2977,0.0,0.0,6.4179,6.5511,6.651,6.656,6.739,6.8566,7.0175,7.0367,7.066,7.138,7.2078,7.2452,7.2329,7.1573,7.1027,7.093,7.0022,6.9113,6.8227,6.8947,6.8531,6.6812,6.8607,6.9021,6.8048,6.8247,6.8305,6.815,6.7332,6.6946,6.6946,6.6854,6.6791,6.6791,6.6791,6.6791,6.6791,6.6791,6.6791,6.6791,6.6791,6.6791,6.6791,6.2793,6.2793,0.0,6.2793,6.2793,6.2793,6.2793,0.0,6.2793,6.2793,6.2793,6.2793,6.2793,6.2793,0.0,0.0,0.0,6.2793,6.2793,6.2793,0.0,6.2793,6.2793,6.2793,6.2793,6.2793,6.2793,6.2793,6.2793,6.2793,6.2793,6.2793,6.2793,6.2829,6.3319,6.3539,6.3613,6.4457,6.5081,6.5558,6.6219,6.6769,6.7187,6.7187,6.7407,6.77,6.77,6.77,6.77,6.77,6.77,6.77,6.77,6.77,6.77,6.77,6.77,6.77,6.77,6.77,6.77,6.77,6.7433,6.701,6.6508,6.6472,6.6165,6.4767,0.0,0.0,0.0,0.0,0.0,0.0,6.5532,6.6328,6.6359,6.7049,6.7788,6.8444,6.8521,6.9069,7.0414,7.1319,7.2004,7.2459,7.2152,7.19,7.19,7.1031,7.0314,6.9883,6.9761,6.9313,6.8474,6.9831,7.0022,6.9076,7.0159,7.0415,6.9865,6.9459,6.9314,6.9277,6.872,6.8161,6.7622,6.7622,6.7291,6.6791,6.6791,6.6791,6.6791,6.6791,6.6791,6.6791,6.349,0.0,0.0,0.0,6.2793,6.2793,6.2793,6.2793,6.2793,6.2793,6.2793,6.2793,6.2793,6.2793,6.2793,0.0,6.2793,6.2793,6.2793,6.2793,6.2793,6.2793,6.2793,0.0,6.2793,6.2793,6.2793,6.2793,6.2793,6.2793,6.2793,6.2793,6.2939,6.316,6.3796,6.4213,6.4494,6.5301,6.5962,6.6512,6.6733,6.732,6.7981,6.7774,6.7847,6.8017,6.8017,6.8178,6.8361,6.8361,6.8361,6.8361,6.8361,6.8361,6.8325,6.8104,6.8017,6.7994,6.7774,6.77,6.77,6.77,6.77,6.7529,6.6896,6.7244,6.7272,6.5696,6.592,0.0,0.0,0.0,6.5222,6.4765,0.0,6.622,6.5792,6.6452,6.7084,6.7446,6.7689,6.8287,6.9579,7.0676,7.1527,7.2114,7.2386,7.2496,7.2496,7.1854,7.1386,7.1127,7.0684,7.023,6.9708,7.0901,7.1031,7.011,7.1464,7.1763,7.1111,7.0832,7.0717,7.0684,7.0006,6.9277,6.861,6.861,6.8063,6.7182,6.7182,6.7029,6.6791,6.6791,6.6791,6.6791,6.5215,6.3894,0.0,0.0,6.2793,6.2793,6.2793,6.2793,6.2793,6.2793,6.2793,6.2793,6.2793,6.2793,6.2793,6.2793,6.2793,6.2793,6.2793,6.2793,6.2793,0.0,0.0,6.2793,0.0,6.2793,6.2793,6.2793,6.2793,6.2793,6.2793,6.2793,6.3246,6.4066,6.4103,6.453,6.5288,6.6109,6.6476,6.6549,6.737,6.8128,6.8788,6.7994,6.8164,6.8862,6.8862,6.9376,7.0,7.0,7.0,7.0,7.0,7.0,6.9853,6.9082,6.8862,6.8678,6.7921,6.77,6.77,6.77,6.77,6.7687,6.7674,6.7687,6.7447,6.6538,6.6389,6.6125,6.5163,6.5728,0.0,0.0,6.5309,0.0,0.0,6.4621,6.5728,6.747,6.839,6.8866,6.8931,7.0375,7.1307,7.1344,7.2041,7.2496,7.2496,7.2467,7.2041,7.1143,7.1966,7.1526,6.9725,7.1526,7.1996,7.1079,7.1127,7.1143,7.1079,7.0179,6.9761,6.9761,6.9725,6.969,6.9654,6.9654,6.9058,6.8185,6.8185,6.7602,6.6791,6.6791,6.6791,6.6791,0.0,0.0,0.0,0.0,6.4444,6.4444,6.4444,6.4016,6.3833,6.4371,6.398,6.387,6.4407,6.4444,6.4444,6.4444,6.4444,6.4444,6.4444,6.4444,6.4444,6.4444,6.4444,6.4444,0.0,0.0,6.4187,6.3649,6.4187,6.4187,6.3686,6.42,6.4591,6.4934,6.5448,6.5852,6.6145,6.6953,6.7577,6.8164,6.8972,6.9449,6.9596,6.8788,6.8972,6.9706,6.9706,6.9853,7.011,7.011,7.011,7.011,7.011,7.011,7.0036,6.9779,6.9706,6.9633,6.9339,6.8898,6.8495,6.8495,6.8104,6.77,6.77,6.77,6.7633,6.73,6.7258,6.7174,6.6845,6.7053,0.0,0.0,0.0,0.0,0.0,6.662,6.7024,6.7647,6.7443,6.747,6.7978,6.9059,7.0132,7.1233,7.1564,7.1931,7.2459,7.2496,7.2343,7.2041,7.2329,7.2211,7.1542,7.2197,7.2329,7.2026,7.2026,7.2026,7.2026,7.1702,7.1542,7.1542,7.1542,7.1191,7.0635,7.0635,7.0057,6.9186,6.9186,6.8607,6.7662,6.705,6.6791,6.6791,6.6145,6.6145,6.5962,6.5398,6.5288,6.5288,6.5288,6.4861,6.4714,6.5215,6.4861,6.4714,6.5251,6.5288,6.5288,6.5288,6.5288,6.5288,6.5288,6.5288,6.5288,6.5288,6.5288,6.5288,0.0,0.0,0.0,0.0,6.5044,6.5031,6.453,6.5081,6.5435,6.5742,6.6256,6.6659,6.699,6.7811,6.8421,6.8972,6.9779,7.0257,7.0477,6.9949,7.0059,7.055,7.055,7.0697,7.0954,7.0954,7.0954,7.0954,7.0954,7.0954,7.0881,7.0624,7.055,7.0477,7.0183,6.9706,6.9339,6.9339,6.8935,6.8471,6.8201,6.8128,6.8068,6.7774,6.77,6.77,6.77,6.77,0.0,0.0,0.0,0.0,0.0,6.77,6.77,6.77,6.7202,6.7085,6.7608,6.8401,6.9435,7.0756,7.1123,7.1637,7.2459,7.2496,7.2496,7.2496,7.2496,7.2496,7.2496,7.2496,7.2496,7.2496,7.2496,7.2496,7.2496,7.2496,7.2496,7.2496,7.2496,7.2167,7.1588,7.1588,7.1047,7.0179,6.9849,6.9296,6.861,6.7662,6.7078,6.6791,6.77,6.77,6.7223,6.5692,6.5398,6.5398,6.5398,6.5362,6.5362,6.5398,6.5362,6.5362,6.5398,6.5398,6.5398,6.5398,6.5398,6.5398,6.5398,6.5398,6.5398,6.5398,6.5398,6.5398,6.5398,0.0,0.0,0.0,6.5398,6.5398,6.5362,6.5398,6.5852,6.6549,6.6549,6.699,6.7811,6.8568,6.8958,6.9068,6.9889,7.0697,7.1344,7.1344,7.1344,7.1344,7.1344,7.1857,7.2496,7.2496,7.2496,7.2496,7.2496,7.2496,7.2349,7.1564,7.1344,7.1197,7.044,7.0183,7.0146,7.0146,7.011,6.9889,6.9119,6.8972,6.8752,6.7921,6.7774,6.7737,6.77,6.77,6.77,0.0,0.0,0.0,6.77,6.77,6.77,6.77,6.77,6.77,6.77,6.8385,6.9192,7.0036,7.0793,7.16,7.2459,7.2496,7.2496,7.2496,7.2496,7.2496,7.2496,7.2496,7.2496,7.2496,7.2496,7.2496,7.2496,7.2496,7.2496,7.2496,7.2496,7.2496,7.2496,7.2496,7.1981,7.1095,7.0196,6.9814,6.9619,6.8591,6.7622,6.6791,6.77,6.77,6.759,6.715,6.7076,6.7076,6.7076,6.6586,6.6402,6.699,6.6549,6.6402,6.704,6.7076,6.7076,6.7076,6.7076,6.7076,6.7076,6.7076,6.7076,6.7076,6.7076,6.7076,6.7076,6.7076,6.6769,6.6182,0.0,6.6769,6.6219,6.6806,6.7187,6.7407,6.7407,6.7847,6.8605,6.8825,6.9582,7.0756,7.1578,7.2018,7.2188,7.2188,7.2188,7.2188,7.2188,7.2312,7.2496,7.2496,7.2496,7.2496,7.2496,7.2496,7.2459,7.2261,7.2188,7.2165,7.1945,7.1468,7.0977,7.0977,7.055,7.0036,6.9853,6.9779,6.9559,6.8752,6.8605,6.8421,6.7811,6.77,6.77,0.0,0.0,0.0,6.77,6.77,6.77,6.77,6.77,6.77,6.77,6.7884,6.8582,7.0,7.0293,7.1027,7.2422,7.2496,7.2496,7.2496,7.2496,7.2496,7.2496,7.2496,7.2496,7.2496,7.2496,7.2496,7.2496,7.2496,7.2496,7.2496,7.2496,7.2496,7.2496,7.2496,7.2343,7.2101,7.1891,7.137,7.0551,6.8889,6.7656,6.6791,6.77,6.77,6.7811,6.8164,6.8201,6.8091,6.7737,6.7333,6.732,6.8128,6.7834,6.7871,6.8655,6.8765,6.8765,6.8765,6.8765,6.8765,6.8765,6.8765,6.8765,6.8765,6.8765,6.8568,6.8238,6.8201,0.0,6.704,0.0,6.748,6.7026,6.748,6.77,6.7737,6.8068,6.8495,6.8958,6.9655,7.0683,7.1857,7.2312,7.2496,0.0,7.2496,7.2496,7.2496,7.2496,7.2496,7.2496,7.2496,7.2496,7.2496,7.2496,7.2496,7.2496,7.2496,7.2496,7.2496,7.2496,7.2165,7.1821,7.1821,7.1468,7.1064,7.0697,7.0624,7.0403,6.9596,6.9412,6.9192,6.8348,6.8201,6.8091,6.7774,0.0,0.0,6.77,6.77,6.77,6.77,6.77,6.77,6.77,6.77,6.8214,6.9486,6.9889,7.066,7.1894,7.2312,7.2496,7.2496,7.2496,7.2496,7.2496,7.2496,7.2496,7.2496,7.2496,7.2496,7.2496,7.2496,7.2496,7.2496,7.2496,7.2496,7.2496,7.2496,7.2496,7.2496,7.2496,7.1686,7.0366,6.9313,6.8277,6.7434,6.7994,6.7994,6.8251,6.8935,6.9127,6.8897,6.8118,6.7994,6.8288,6.8972,6.9082,6.9339,7.0,7.011,7.011,7.011,7.011,7.011,7.011,7.011,7.011,7.011,7.011,6.9779,6.9082,6.9082,6.8715,0.0,0.0,6.7994,6.7994,6.7994,6.7994,6.8031,6.8752,6.9105,6.9288,7.083,7.1857,7.2496,7.2496,7.2496,7.2496,7.2496,7.2496,7.2496,7.2496,7.2496,7.2496,7.2496,7.2496,7.2496,7.2496,7.2496,7.2496,7.2496,7.2496,7.2496,7.2496,7.2496,7.2496,7.2496,7.2496,7.2312,7.1637,7.1454,7.1233,7.0403,7.0257,7.0,6.9229,6.8972,6.8641,6.7847,6.77,6.77,6.77,6.77,6.77,6.77,6.77,0.0,6.77,6.77,6.8017,6.8862,6.9633,7.044,7.127,7.2041,7.2496,7.2496,7.2496,7.2496,7.2496,7.2496,7.2496,7.2496,7.2496,7.2496,7.2496,7.2496,7.2496,7.2496,7.2496,7.2496,7.2496,7.2496,7.2496,7.2496,7.2496,7.1495,7.0075,7.0075,6.9368,6.8362,6.9669,6.9669,6.9706,6.9853,7.0291,7.041,6.9766,6.9669,6.9706,6.9853,6.9889,6.9926,7.0073,7.011,7.011,7.011,7.011,7.011,7.011,7.011,7.011,7.011,7.011,7.0036,6.9889,6.9889,6.9816,0.0,6.9669,6.9669,6.9669,6.9669,6.9669,6.9683,6.9816,7.0257,7.094,7.1894,7.2386,7.2496,7.2496,7.2496,7.2496,7.2496,7.2496,7.2496,7.2496,7.2496,7.2496,7.2496,7.2496,7.2496,7.2496,7.2496,7.2496,7.2496,7.2496,7.2496,7.2496,7.2496,7.2496,7.2496,7.2496,7.2459,7.2312,7.2312,7.2041,7.127,7.1087,7.083,7.0036,6.9339,6.8641,6.7847,6.77,6.77,6.77,6.77,6.77,6.77,6.77,6.77,6.77,6.77,6.8017,6.8862,6.9633,7.044,7.127,7.2041,7.2496,7.2496,7.2496,7.2496,7.2496,7.2496,7.2496,7.2496,7.2496,7.2496,7.2496,7.2496,7.2496,7.2496,7.2496,7.2496,7.2496,7.2496,7.2496,7.2496,7.2496,7.2285,7.2011,7.2011,7.0934,6.9221,7.011,7.011,7.0308,7.1067,7.1168,7.1302,7.1749,7.1536,7.1211,7.077,7.0734,7.0881,7.1284,7.1358,7.1358,7.1358,7.1358,7.1358,7.1358,7.1358,7.1358,7.1358,7.1358,7.1138,7.0734,7.0734,7.0513,7.011,7.011,7.011,7.011,7.011,7.011,7.011,7.055,7.116,7.1931,7.2349,7.2496,7.2496,7.2496,7.2496,7.2496,7.2496,7.2496,7.2496,7.2496,7.2496,7.2496,7.2496,7.2496,7.2496,7.2496,7.2496,7.2496,7.2496,7.2496,7.2496,7.2496,7.2496,7.2496,7.2496,7.2496,7.2496,7.2496,7.2496,7.2386,7.2004,7.1931,7.1674,7.0881,6.9729,6.8788,6.8385,6.7958,6.77,6.77,6.77,6.77,6.77,6.77,6.77,6.77,6.77,6.7847,6.8238,6.9412,7.0257,7.066,7.1835,7.2496,7.2496,7.2496,7.2496,7.2496,7.2496,7.2496,7.2496,7.2496,7.2496,7.2496,7.2496,7.2496,7.2496,7.2496,7.2496,7.2496,7.2496,7.2496,7.2496,7.2496,7.2496,7.2438,7.1966,7.1191,7.0212,7.0772,7.0799,7.1172,7.2273,7.2179,7.2277,7.3333,7.3161,7.2593,7.1702,7.1564,7.1784,7.2422,7.2496,7.2496,7.2496,7.2496,7.2496,7.2496,7.2496,7.2496,7.2496,7.2496,7.2202,7.1564,7.1564,7.1233,7.0624,7.0624,7.0624,7.0624,7.0624,7.0624,7.0624,7.127,7.1894,7.2496,7.2496,7.2496,7.2496,7.2496,7.2496,7.2496,7.2496,7.2496,7.2496,7.2496,7.2496,7.2496,7.2496,7.2496,7.2496,7.2496,7.2496,7.2496,7.2496,7.2496,7.2496,7.2496,7.2496,7.2496,7.2496,7.2496,7.2496,7.2496,7.2496,7.2496,7.2496,7.2496,7.2261,7.1454,7.0243,6.9362,6.9192,6.8495,6.7958,6.7958,6.7811,6.77,6.77,6.77,6.77,6.77,6.77,6.7774,6.7958,6.9265,7.011,7.011,7.1615,7.2496,7.2496,7.2496,7.2496,7.2496,7.2496,7.2496,7.2496,7.2496,7.2496,7.2496,7.2496,7.2496,7.2496,7.2496,7.2496,7.2496,7.2496,7.2496,7.2496,7.2496,7.2496,7.2423,7.165,7.1271,7.0979,7.2964,7.3092,7.3142,7.3242,7.3693,7.3958,7.3729,7.4107,7.3909,7.2545,7.2386,7.2422,7.2496,7.2496,7.2496,7.2496,7.2496,7.2496,7.2496,7.2496,7.2496,7.2496,7.2496,7.2459,7.2386,7.2386,7.2349,7.2275,7.2275,7.2275,7.2275,7.2275,7.2275,7.2275,7.2349,7.2422,7.2496,7.2496,7.2496,7.2496,7.2496,7.2496,7.2496,7.2496,7.2496,7.2496,7.2496,7.2496,7.2496,7.2496,7.2496,7.2496,7.2496,7.2496,7.2496,7.2496,7.2496,7.2496,7.2496,7.2496,7.2496,7.2496,7.2496,7.2496,7.2496,7.2496,7.2496,7.2496,7.2496,7.2261,7.1454,7.1197,7.083,7.011,6.9302,6.8788,6.8788,6.8164,6.77,6.77,6.77,6.77,6.77,6.77,6.7981,6.8752,6.9596,7.011,7.011,7.1615,7.2496,7.2496,7.2496,7.2496,7.2496,7.2496,7.2496,7.2496,7.2496,7.2496,7.2496,7.2496,7.2496,7.2496,7.2496,7.2496,7.2496,7.2496,7.2496,7.2496,7.2496,7.2496,7.2481,7.2409,7.1824,7.1095,7.5286,7.5457,7.5446,7.5373,7.5304,7.5184,7.4984,7.4876,7.4591,7.3993,7.3949,7.3949,7.3949,7.3523,7.323,7.323,7.2789,7.2496,7.2496,7.2496,7.2496,7.2496,7.2496,7.2496,7.2496,7.2496,7.2496,7.2496,7.2496,7.2496,7.2496,7.2496,7.2496,7.2496,7.2496,7.2496,7.2496,7.2496,7.2496,7.2496,7.2496,7.2496,7.2496,7.2496,7.2496,7.2496,7.2496,7.2496,7.2496,7.2496,7.2496,7.2496,7.2496,7.2496,7.2496,7.2496,7.2496,7.2496,7.2496,7.2496,7.2496,7.2496,7.2496,7.2496,7.2496,7.2496,7.2496,7.2496,7.2496,7.2422,7.2078,7.1637,7.1197,7.0866,7.0146,6.9633,6.9633,6.9339,6.9132,6.9132,6.9132,6.9132,6.9132,6.9132,6.9265,6.9596,6.9926,7.0293,7.0793,7.1908,7.2496,7.2496,7.2496,7.2496,7.2496,7.2496,7.2496,7.2496,7.2496,7.2496,7.2496,7.2496,7.2496,7.2496,7.2496,7.2496,7.2496,7.2496,7.2496,7.2496,7.2496,7.2496,7.2496,7.2496,7.2255,7.1951,7.6916,7.6922,7.6741,7.6697,7.623,7.5859,7.5878,7.5513,7.5344,7.5564,7.5601,7.5417,7.494,7.4404,7.4037,7.4037,7.3523,7.323,7.323,7.323,7.323,7.323,7.2973,7.2863,7.2863,7.2606,7.2496,7.2496,7.2496,7.2496,7.2496,7.2496,7.2496,7.2496,7.2496,7.2496,7.2496,7.2496,7.2496,7.2496,7.2496,7.2496,7.2496,7.2496,7.2496,7.2496,7.2496,7.2496,7.2496,7.2496,7.2496,7.2496,7.2496,7.2496,7.2496,7.2496,7.2496,7.2496,7.2496,7.2496,7.2496,7.2496,7.2496,7.2496,7.2496,7.2496,7.2496,7.2496,7.2496,7.2496,7.2496,7.2041,7.1637,7.1637,7.0991,7.044,7.044,7.0257,7.011,7.011,7.011,7.011,7.011,7.011,7.0183,7.044,7.044,7.0697,7.127,7.2041,7.2496,7.2496,7.2496,7.2496,7.2496,7.2496,7.2496,7.2496,7.2496,7.2496,7.2496,7.2496,7.2496,7.2496,7.2496,7.2496,7.2496,7.2496,7.2496,7.2496,7.2496,7.2496,7.2496,7.2496,7.2496,7.2496,7.757,7.7145,7.6697,7.6697,7.6206,7.5882,7.6081,7.6093,7.6387,7.7179,7.7289,7.6665,7.5087,7.4903,7.4903,7.4903,7.4867,7.4867,7.4867,7.4867,7.4867,7.4867,7.4111,7.367,7.367,7.2899,7.2496,7.2496,7.2496,7.2496,7.2496,7.2496,7.2496,7.2496,7.2496,7.2496,7.2496,7.2496,7.2496,7.2496,7.2496,7.2496,7.2496,7.2496,7.2496,7.2496,7.2496,7.2496,7.2496,7.2496,7.2496,7.2496,7.2496,7.2496,7.2496,7.2496,7.2496,7.2496,7.2496,7.2496,7.2496,7.2496,7.2496,7.2496,7.2496,7.2496,7.2496,7.2496,7.2496,7.2496,7.2496,7.2496,7.2496,7.2496,7.1821,7.1307,7.1307,7.0587,7.011,7.011,7.011,7.011,7.011,7.011,7.044,7.1233,7.1307,7.1307,7.1307,7.2041,7.2496,7.2496,7.2496,7.2496,7.2496,7.2496,7.2496,7.2496,7.2496,7.2496,7.2496,7.2496,7.2496,7.2496,7.2496,7.2496,7.2496,7.2496,7.2496,7.2496,7.2496,7.2496,7.2496,7.2496,7.2496,7.2496,7.9876,7.9859,7.9569,7.9099,7.8845,7.8606,7.8279,7.7872,7.7691,7.7951,7.7599,7.7105,7.6592,7.6041,7.5726,7.5726,7.5197,7.4903,7.4903,7.4903,7.4903,7.4903,7.4647,7.4515,7.4515,7.428,7.4133,7.4133,7.4133,7.4133,7.4133,7.4133,7.4133,7.4133,7.4133,7.4133,7.4133,7.4133,7.4133,7.4133,7.4133,7.4133,7.4133,7.4133,7.4133,7.4133,7.4133,7.378,7.3303,7.3303,7.2936,7.2496,7.2496,7.2496,7.2496,7.2496,7.2496,7.2496,7.2496,7.2496,7.2496,7.2496,7.2496,7.2496,7.2496,7.2496,7.2496,7.2496,7.2496,7.2496,7.2496,7.2496,7.2496,7.2496,7.2312,7.2129,7.2129,7.1908,7.1725,7.1725,7.1725,7.1725,7.1725,7.1725,7.1835,7.2092,7.2129,7.2129,7.2129,7.2349,7.2496,7.2496,7.2496,7.2496,7.2496,7.2496,7.2496,7.2496,7.2496,7.2496,7.2496,7.2496,7.2496,7.2496,7.2496,7.2496,7.2496,7.2496,7.2496,7.2496,7.2496,7.2496,7.2496,7.2496,7.2863,7.3303,8.0977,8.0888,8.0599,8.0173,7.9919,7.9621,7.9267,7.8691,7.8309,7.8309,7.771,7.7289,7.7289,7.6848,7.6555,7.6555,7.6078,7.5784,7.5784,7.5784,7.5784,7.5784,7.5491,7.5344,7.5344,7.505,7.4903,7.4903,7.4903,7.4903,7.4903,7.4903,7.4903,7.4903,7.4903,7.4903,7.4903,7.4903,7.4903,7.4903,7.4903,7.4903,7.4903,7.4903,7.4903,7.4903,7.4903,7.4573,7.4147,7.4147,7.3634,7.2936,7.2936,7.2753,7.2496,7.2496,7.2496,7.2496,7.2496,7.2496,7.2496,7.2496,7.2496,7.2496,7.2496,7.2496,7.2496,7.2496,7.2496,7.2496,7.2496,7.2496,7.2496,7.2496,7.2496,7.2496,7.2496,7.2496,7.2496,7.2496,7.2496,7.2496,7.2496,7.2496,7.2496,7.2496,7.2496,7.2496,7.2496,7.2496,7.2496,7.2496,7.2496,7.2496,7.2496,7.2496,7.2496,7.2496,7.2496,7.2496,7.2496,7.2496,7.2496,7.2496,7.2496,7.2496,7.2496,7.2496,7.2496,7.2496,7.2496,7.2496,7.2532,7.2826,7.3266,7.3744,8.1093,8.0599,8.0173,8.0173,7.9723,7.9313,7.9267,7.8754,7.8363,7.8309,7.771,7.7289,7.7289,7.7289,7.7289,7.7289,7.7289,7.7289,7.7289,7.7289,7.7289,7.7289,7.6592,7.6166,7.6166,7.5454,7.505,7.505,7.505,7.505,7.505,7.505,7.505,7.505,7.505,7.505,7.505,7.505,7.505,7.505,7.505,7.505,7.505,7.505,7.505,7.505,7.505,7.5014,7.4977,7.4977,7.4441,7.378,7.3707,7.3193,7.2569,7.2532,7.2496,7.2496,7.2496,7.2496,7.2496,7.2496,7.2496,7.2496,7.2496,7.2496,7.2496,7.2496,7.2496,7.2496,7.2496,7.2496,7.2496,7.2496,7.2496,7.2496,7.2496,7.2496,7.2496,7.2496,7.2496,7.2496,7.2496,7.2496,7.2496,7.2496,7.2496,7.2496,7.2496,7.2496,7.2496,7.2496,7.2496,7.2496,7.2496,7.2496,7.2496,7.2496,7.2496,7.2496,7.2496,7.2496,7.2496,7.2496,7.2496,7.2496,7.2496,7.2496,7.2496,7.2496,7.2496,7.2496,7.2606,7.3377,7.3758,7.3891,8.1093,8.0975,8.0863,8.0863,8.0741,8.0463,7.9959,7.9369,7.8841,7.8376,7.771,7.7289,7.7289,7.7289,7.7289,7.7289,7.7289,7.7289,7.7289,7.7289,7.7289,7.7289,7.7105,7.7032,7.7032,7.6848,7.6738,7.6738,7.6738,7.6738,7.6738,7.6738,7.6738,7.6738,7.6738,7.6738,7.6738,7.6738,7.6738,7.6738,7.6738,7.6738,7.6738,7.6738,7.6738,7.6738,7.6738,7.6335,7.5836,7.5836,7.5285,7.4515,7.3891,7.356,7.3303,7.2679,7.2496,7.2496,7.2496,7.2496,7.2496,7.2496,7.2496,7.2496,7.2496,7.2496,7.2496,7.2496,7.2496,7.2496,7.2496,7.2496,7.2496,7.2496,7.2496,7.2496,7.2496,7.2496,7.2496,7.2496,7.2496,7.2496,7.2496,7.2496,7.2496,7.2496,7.2496,7.2496,7.2496,7.2496,7.2496,7.2496,7.2496,7.2496,7.2496,7.2496,7.2496,7.2496,7.2496,7.2496,7.2496,7.2496,7.2496,7.2496,7.2496,7.2496,7.2496,7.2496,7.2496,7.2496,7.2496,7.2496,7.2606,7.3377,7.4074,7.4735,8.1093,8.1093,8.1093,8.1093,8.1093,8.0871,8.0192,7.9578,7.8974,7.8365,7.771,7.7289,7.7289,7.7289,7.7289,7.7289,7.7289,7.7289,7.7289,7.7289,7.7289,7.7289,7.7289,7.7289,7.7289,7.7289,7.7289,7.7289,7.7289,7.7289,7.7289,7.7289,7.7289,7.7289,7.7289,7.7289,7.7289,7.7289,7.7289,7.7289,7.7289,7.7289,7.7289,7.7289,7.7289,7.7289,7.7289,7.7032,7.6628,7.6628,7.6114,7.5359,7.4918,7.4294,7.3597,7.3193,7.2789,7.2496,7.2496,7.2496,7.2496,7.2496,7.2496,7.2496,7.2496,7.2496,7.2496,7.2496,7.2496,7.2496,7.2496,7.2496,7.2496,7.2496,7.2496,7.2496,7.2496,7.2496,7.2496,7.2496,7.2496,7.2496,7.2496,7.2496,7.2496,7.2496,7.2496,7.2496,7.2496,7.2496,7.2496,7.2496,7.2496,7.2496,7.2496,7.2496,7.2496,7.2496,7.2496,7.2496,7.2496,7.2496,7.2496,7.2496,7.2496,7.2496,7.2496,7.2496,7.2496,7.2496,7.2496,7.2716,7.3156,7.3964,7.4771,7.5564,8.1093,8.1093,8.1093,8.1093,8.1093,8.0871,8.0192,7.9578,7.8974,7.8365,7.771,7.7289,7.7289,7.7289,7.7289,7.7289,7.7289,7.7289,7.7289,7.7289,7.7289,7.7289,7.7289,7.7289,7.7289,7.7289,7.7289,7.7289,7.7289,7.7289,7.7289,7.7289,7.7289,7.7289,7.7289,7.7289,7.7289,7.7289,7.7289,7.7289,7.7289,7.7289,7.7289,7.7289,7.7289,7.7289,7.7289,7.7289,7.7289,7.7289,7.6848,7.6276,7.613,7.5065,7.3854,7.3758,7.312,7.2496,7.2496,7.2496,7.2496,7.2496,7.2496,7.2496,7.2496,7.2496,7.2496,7.2496,7.2496,7.2496,7.2496,7.2496,7.2496,7.2496,7.2496,7.2496,7.2496,7.2496,7.2496,7.2496,7.2496,7.2496,7.2496,7.2496,7.2496,7.2496,7.2496,7.2496,7.2496,7.2496,7.2496,7.2496,7.2496,7.2496,7.2496,7.2496,7.2496,7.2496,7.2496,7.2496,7.2496,7.2496,7.2496,7.2496,7.2496,7.2496,7.2496,7.2496,7.2496,7.2496,7.2496,7.2973,7.378,7.461,7.5432,7.624,8.1093,8.1093,8.1093,8.1093,8.1093,8.0871,8.0192,7.9578,7.8974,7.8365,7.771,7.7289,7.7289,7.7289,7.7289,7.7289,7.7289,7.7289,7.7289,7.7289,7.7289,7.7289,7.7289,7.7289,7.7289,7.7289,7.7289,7.7289,7.7289,7.7289,7.7289,7.7289,7.7289,7.7289,7.7289,7.7289,7.7289,7.7289,7.7289,7.7289,7.7289,7.7289,7.7289,7.7289,7.7289,7.7289,7.7289,7.7289,7.7289,7.7289,7.7215,7.6995,7.6313,7.5469,7.4573,7.3891,7.312,7.2496,7.2496,7.2496,7.2496,7.2496,7.2496,7.2496,7.2496,7.2496,7.2496,7.2496,7.2496,7.2496,7.2496,7.2496,7.2496,7.2496,7.2496,7.2496,7.2496,7.2496,7.2496,7.2496,7.2496,7.2496,7.2496,7.2496,7.2496,7.2496,7.2496,7.2496,7.2496,7.2496,7.2496,7.2496,7.2496,7.2496,7.2496,7.2496,7.2496,7.2496,7.2496,7.2496,7.2496,7.2496,7.2496,7.2496,7.2496,7.2496,7.2496,7.2496,7.2496,7.2496,7.2496,7.2973,7.378,7.461,7.5432,7.624,8.1093,8.1093,8.1093,8.1093,8.1093,8.0871,8.0192,7.9578,7.8974,7.8365,7.771,7.7289,7.7289,7.7289,7.7289,7.7289,7.7289,7.7289,7.7289,7.7289,7.7289,7.7289,7.7289,7.7289,7.7289,7.7289,7.7289,7.7289,7.7289,7.7289,7.7289,7.7289,7.7289,7.7289,7.7289,7.7289,7.7289,7.7289,7.7289,7.7289,7.7289,7.7289,7.7289,7.7289,7.7289,7.7289,7.7289,7.7289,7.7289,7.7289,7.7289,7.7252,7.6848,7.5894,7.483,7.4478,7.3487,7.2496,7.2496,7.2496,7.2496,7.2496,7.2496,7.2496,7.2496,7.2496,7.2496,7.2496,7.2496,7.2496,7.2496,7.2496,7.2496,7.2496,7.2496,7.2496,7.2496,7.2496,7.2496,7.2496,7.2496,7.2496,7.2496,7.2496,7.2496,7.2496,7.2496,7.2496,7.2496,7.2496,7.2496,7.2496,7.2496,7.2496,7.2496,7.2496,7.2496,7.2496,7.2496,7.2496,7.2496,7.2496,7.2496,7.2496,7.2496,7.2496,7.2496,7.2496,7.2496,7.2532,7.2973,7.3634,7.4441,7.5249,7.6041,7.6812,8.1093,8.1093,8.1093,8.1093,8.1093,8.0871,8.0192,7.9578,7.8974,7.8365,7.771,7.7289,7.7289,7.7289,7.7289,7.7289,7.7289,7.7289,7.7289,7.7289,7.7289,7.7289,7.7289,7.7289,7.7289,7.7289,7.7289,7.7289,7.7289,7.7289,7.7289,7.7289,7.7289,7.7289,7.7289,7.7289,7.7289,7.7289,7.7289,7.7289,7.7289,7.7289,7.7289,7.7289,7.7289,7.7289,7.7289,7.7289,7.7289,7.7289,7.7289,7.7289,7.7289,7.6188,7.4903,7.4903,7.3766,7.2496,7.2496,7.2496,7.2496,7.2496,7.2496,7.2496,7.2496,7.2496,7.2496,7.2496,7.2496,7.2496,7.2496,7.2496,7.2496,7.2496,7.2496,7.2496,7.2496,7.2496,7.2496,7.2496,7.2496,7.2496,7.2496,7.2496,7.2496,7.2496,7.2496,7.2496,7.2496,7.2496,7.2496,7.2496,7.2496,7.2496,7.2496,7.2496,7.2496,7.2496,7.2496,7.2496,7.2496,7.2496,7.2496,7.2496,7.2496,7.2496,7.2496,7.2496,7.2496,7.2569,7.3193,7.4037,7.4977,7.5579,7.6445,7.7289,8.1093,8.1093,8.1093,8.1093,8.1093,8.0871,8.0192,7.9578,7.8974,7.8365,7.771,7.7289,7.7289,7.7289,7.7289,7.7289,7.7289,7.7289,7.7289,7.7289,7.7289,7.7289,7.7289,7.7289,7.7289,7.7289,7.7289,7.7289,7.7289,7.7289,7.7289,7.7289,7.7289,7.7289,7.7289,7.7289,7.7289,7.7289,7.7289,7.7289,7.7289,7.7289,7.7289,7.7289,7.7289,7.7289,7.7289,7.7289,7.7289,7.7289,7.7289,7.7289,7.7289,7.6188,7.4903,7.4903,7.3766,7.2496,7.2496,7.2496,7.2496,7.2496,7.2496,7.2496,7.2496,7.2496,7.2496,7.2496,7.2496,7.2496,7.2496,7.2496,7.2496,7.2496,7.2496,7.2496,7.2496,7.2496,7.2496,7.2496,7.2496,7.2496,7.2496,7.2496,7.2496,7.2496,7.2496,7.2496,7.2496,7.2496,7.2496,7.2496,7.2496,7.2496,7.2496,7.2496,7.2496,7.2496,7.2496,7.2496,7.2496,7.2496,7.2496,7.2496,7.2496,7.2496,7.2496,7.2496,7.2496,7.2496,7.2569,7.3546,7.4903,7.4977,7.5968,7.7289,8.1093,8.1093,8.1093,8.1093,8.1093,8.0871,8.0192,7.9578,7.8974,7.8365,7.771,7.7289,7.7289,7.7289,7.7289,7.7289,7.7289,7.7289,7.7289,7.7289,7.7289,7.7289,7.7289,7.7289,7.7289,7.7289,7.7289,7.7289,7.7289,7.7289,7.7289,7.7289,7.7289,7.7289,7.7289,7.7289,7.7289,7.7289,7.7289,7.7289,7.7289,7.7289,7.7289,7.7289,7.7289,7.7289,7.7289,7.7289,7.7289,7.7289,7.7289,7.7289,7.7289,7.6188,7.4683,7.3692,7.2973,7.2496,7.2496,7.2496,7.2496,7.2496,7.2496,7.2496,7.2496,7.2496,7.2496,7.2496,7.2496,7.2496,7.2496,7.2496,7.2496,7.2496,7.2496,7.2496,7.2496,7.2496,7.2496,7.2496,7.2496,7.2496,7.2496,7.2496,7.2496,7.2496,7.2496,7.2496,7.2496,7.2496,7.2496,7.2496,7.2496,7.2496,7.2496,7.2496,7.2496,7.2496,7.2496,7.2496,7.2496,7.2496,7.2496,7.2496,7.2496,7.2496,7.2496,7.2496,7.2496,7.2569,7.3046,7.3927,7.494,7.5454,7.6335,7.7289,8.1093,8.1093,8.1093,8.1093,8.1093,8.0871,8.0192,7.9578,7.8974,7.8365,7.771,7.7289,7.7289,7.7289,7.7289,7.7289,7.7289,7.7289,7.7289,7.7289,7.7289,7.7289,7.7289,7.7289,7.7289,7.7289,7.7289,7.7289,7.7289,7.7289,7.7289,7.7289,7.7289,7.7289,7.7289,7.7289,7.7289,7.7289,7.7289,7.7289,7.7289,7.7289,7.7289,7.7289,7.7289,7.7289,7.7289,7.7289,7.7289,7.7289,7.7289,7.7289,7.7289,7.6188,7.4573,7.2973,7.2496,7.2496,7.2496,7.2496,7.2496,7.2496,7.2496,7.2496,7.2496,7.2496,7.2496,7.2496,7.2496,7.2496,7.2496,7.2496,7.2496,7.2496,7.2496,7.2496,7.2496,7.2496,7.2496,7.2496,7.2496,7.2496,7.2496,7.2496,7.2496,7.2496,7.2496,7.2496,7.2496,7.2496,7.2496,7.2496,7.2496,7.2496,7.2496,7.2496,7.2496,7.2496,7.2496,7.2496,7.2496,7.2496,7.2496,7.2496,7.2496,7.2496,7.2496,7.2496,7.2496,7.2569,7.312,7.3817,7.4625,7.5432,7.6225,7.6959,8.1093,8.1093,8.1093,8.1093,8.1093,8.0871,8.0192,7.9578,7.8974,7.8365,7.771,7.7289,7.7289,7.7289,7.7289,7.7289,7.7289,7.7289,7.7289,7.7289,7.7289,7.7289,7.7289,7.7289,7.7289,7.7289,7.7289,7.7289,7.7289,7.7289,7.7289,7.7289,7.7289,7.7289,7.7289,7.7289,7.7289,7.7289,7.7289,7.7289,7.7289,7.7289,7.7289,7.7289,7.7289,7.7289,7.7289,7.7289,7.7289,7.7289,7.7289,7.7289,7.7289,7.6188,7.4573,7.2973,7.2496,7.2496,7.2496,7.2496,7.2496,7.2496,7.2496,7.2496,7.2496,7.2496,7.2496,7.2496,7.2496,7.2496,7.2496,7.2496,7.2496,7.2496,7.2496,7.2496,7.2496,7.2496,7.2496,7.2496,7.2496,7.2496,7.2496,7.2496,7.2496,7.2496,7.2496,7.2496,7.2496,7.2496,7.2496,7.2496,7.2496,7.2496,7.2496,7.2496,7.2496,7.2496,7.2496,7.2496,7.2496,7.2496,7.2496,7.2496,7.2496,7.2496,7.2496,7.2496,7.2496,7.2496,7.2496,7.2973,7.378,7.4588,7.538,7.6203,8.1093,8.1093,8.1093,8.1093,8.1093,8.0871,8.0192,7.9578,7.8974,7.8365,7.771,7.7289,7.7289,7.7289,7.7289,7.7289,7.7289,7.7289,7.7289,7.7289,7.7289,7.7289,7.7289,7.7289,7.7289,7.7289,7.7289,7.7289,7.7289,7.7289,7.7289,7.7289,7.7289,7.7289,7.7289,7.7289,7.7289,7.7289,7.7289,7.7289,7.7289,7.7289,7.7289,7.7289,7.7289,7.7289,7.7289,7.7289,7.7289,7.7289,7.7289,7.7105,7.5968,7.527,7.4573,7.2973,7.2496,7.2496,7.2496,7.2496,7.2496,7.2496,7.2496,7.2496,7.2496,7.2496,7.2496,7.2496,7.2496,7.2496,7.2496,7.2496,7.2496,7.2496,7.2496,7.2496,7.2496,7.2496,7.2496,7.2496,7.2496,7.2496,7.2496,7.2496,7.2496,7.2496,7.2496,7.2496,7.2496,7.2496,7.2496,7.2496,7.2496,7.2496,7.2496,7.2496,7.2496,7.2496,7.2496,7.2496,7.2496,7.2496,7.2496,7.2496,7.2496,7.2496,7.2496,7.2496,7.2496,7.2496,7.2496,7.2973,7.3722,7.3964,7.4588,7.538,8.1093,8.1093,8.1093,8.1093,8.1093,8.0967,8.0573,7.9949,7.9425,7.9046,7.8231,7.7695,7.7695,7.745,7.7289,7.7289,7.7289,7.7289,7.7289,7.7289,7.7289,7.7289,7.7289,7.7289,7.7289,7.7289,7.7289,7.7289,7.7289,7.7289,7.7289,7.7289,7.7289,7.7289,7.7289,7.7289,7.7289,7.7289,7.7289,7.7289,7.7289,7.7289,7.7289,7.7289,7.7289,7.7289,7.7289,7.7289,7.7289,7.7289,7.7289,7.7032,7.5417,7.4903,7.4573,7.2973,7.2496,7.2496,7.2496,7.2496,7.2496,7.2496,7.2496,7.2496,7.2496,7.2496,7.2496,7.2496,7.2496,7.2496,7.2496,7.2496,7.2496,7.2496,7.2496,7.2496,7.2496,7.2496,7.2496,7.2496,7.2496,7.2496,7.2496,7.2496,7.2496,7.2496,7.2496,7.2496,7.2496,7.2496,7.2496,7.2496,7.2496,7.2496,7.2496,7.2496,7.2496,7.2496,7.2496,7.2496,7.2496,7.2496,7.2496,7.2496,7.2496,7.2496,7.2496,7.2496,7.2496,7.2496,7.2496,7.2789,7.3266,7.356,7.4001,7.4551,8.1093,8.1093,8.1093,8.1093,8.1093,8.1093,8.1093,8.0517,8.0115,8.0115,7.9081,7.8365,7.8365,7.7797,7.7396,7.7396,7.732,7.7289,7.7289,7.7289,7.7289,7.7289,7.7289,7.7289,7.7289,7.7289,7.7289,7.7289,7.7289,7.7289,7.7289,7.7289,7.7289,7.7289,7.7289,7.7289,7.7289,7.7289,7.7289,7.7289,7.7289,7.7289,7.7289,7.7289,7.7289,7.7289,7.7289,7.7289,7.7289,7.7289,7.7289,7.7032,7.5417,7.4903,7.4573,7.2973,7.2496,7.2496,7.2496,7.2496,7.2496,7.2496,7.2496,7.2496,7.2496,7.2496,7.2496,7.2496,7.2496,7.2496,7.2496,7.2496,7.2496,7.2496,7.2496,7.2496,7.2496,7.2496,7.2496,7.2496,7.2496,7.2496,7.2496,7.2496,7.2496,7.2496,7.2496,7.2496,7.2496,7.2496,7.2496,7.2496,7.2496,7.2496,7.2496,7.2496,7.2496,7.2496,7.2496,7.2496,7.2496,7.2496,7.2496,7.2496,7.2496,7.2496,7.2496,7.2496,7.2496,7.2496,7.2496,7.2496,7.2606,7.3303,7.3611,7.3707,8.1093,8.1093,8.1093,8.1093,8.1093,8.1093,8.1093,8.0517,8.0115,8.0115,7.9458,7.8998,7.8998,7.8471,7.8063,7.8063,7.7614,7.7289,7.7289,7.7289,7.7289,7.7289,7.7289,7.7289,7.7289,7.7289,7.7289,7.7289,7.7289,7.7289,7.7289,7.7289,7.7289,7.7289,7.7289,7.7289,7.7289,7.7289,7.7289,7.7289,7.7289,7.7289,7.7289,7.7289,7.7289,7.7289,7.7289,7.7289,7.7289,7.7289,7.7289,7.7032,7.5417,7.4903,7.4573,7.2973,7.2496,7.2496,7.2496,7.2496,7.2496,7.2496,7.2496,7.2496,7.2496,7.2496,7.2496,7.2496,7.2496,7.2496,7.2496,7.2496,7.2496,7.2496,7.2496,7.2496,7.2496,7.2496,7.2496,7.2496,7.2496,7.2496,7.2496,7.2496,7.2496,7.2496,7.2496,7.2496,7.2496,7.2496,7.2496,7.2496,7.2496,7.2496,7.2496,7.2496,7.2496,7.2496,7.2496,7.2496,7.2496,7.2496,7.2496,7.2496,7.2496,7.2496,7.2496,7.2496,7.2496,7.2496,7.2496,7.2496,7.2532,7.2716,7.2753,7.2899,8.1093,8.1093,8.1093,8.1093,8.1093,8.1093,8.1093,8.0783,8.0591,8.0591,7.9998,7.9621,7.9621,7.9081,7.8602,7.8336,7.8231,7.7951,7.7335,7.7614,7.7622,7.7304,7.7289,7.7289,7.7289,7.7289,7.7289,7.7289,7.7289,7.7289,7.7289,7.7289,7.7289,7.7289,7.7289,7.7289,7.7289,7.7289,7.7289,7.7289,7.7289,7.7289,7.7289,7.7289,7.7289,7.7289,7.7289,7.7289,7.7289,7.7289,7.7289,7.7032,7.5417,7.4903,7.4573,7.2973,7.2496,7.2496,7.2496,7.2496,7.2496,7.2496,7.2496,7.2496,7.2496,7.2496,7.2496,7.2496,7.2496,7.2496,7.2496,7.2496,7.2496,7.2496,7.2496,7.2496,7.2496,7.2496,7.2496,7.2496,7.2496,7.2496,7.2496,7.2496,7.2496,7.2496,7.2496,7.2496,7.2496,7.2496,7.2496,7.2496,7.2496,7.2496,7.2496,7.2496,7.2496,7.2496,7.2496,7.2496,7.2496,7.2496,7.2496,7.2496,7.2496,7.2496,7.2496,7.2496,7.2496,7.2496,7.2496,7.2496,7.2496,7.2496,7.2496,7.2606,8.1093,8.1093,8.1093,8.1093,8.1093,8.1093,8.1093,8.1093,8.1093,8.1093,8.0617,8.0287,8.0287,7.9706,7.9105,7.851,7.8901,7.8741,7.7673,7.8159,7.8159,7.7495,7.7465,7.7426,7.7289,7.7289,7.7289,7.7289,7.7289,7.7289,7.7289,7.7289,7.7289,7.7289,7.7289,7.7289,7.7289,7.7289,7.7289,7.7289,7.7289,7.7289,7.7289,7.7289,7.7289,7.7289,7.7289,7.7289,7.7289,7.7289,7.7289,7.7032,7.5417,7.4903,7.4573,7.2973,7.2496,7.2496,7.2496,7.2496,7.2496,7.2496,7.2496,7.2496,7.2496,7.2496,7.2496,7.2496,7.2496,7.2496,7.2496,7.2496,7.2496,7.2496,7.2496,7.2496,7.2496,7.2496,7.2496,7.2496,7.2496,7.2496,7.2496,7.2496,7.2496,7.2496,7.2496,7.2496,7.2496,7.2496,7.2496,7.2496,7.2496,7.2496,7.2496,7.2496,7.2496,7.2496,7.2496,7.2496,7.2496,7.2496,7.2496,7.2496,7.2496,7.2496,7.2496,7.2496,7.2496,7.2496,7.2496,7.2496,7.2496,7.2496,7.2496,7.2606,8.1093,8.1093,8.1093,8.1093,8.1093,8.1093,8.1093,8.1093,8.1093,8.1093,8.1007,8.0967,8.0967,8.0361,7.9754,7.9128,7.9152,7.9128,7.895,7.9022,7.8779,7.8187,7.8159,7.7889,7.7304,7.7289,7.7289,7.7289,7.7289,7.7289,7.7289,7.7289,7.7289,7.7289,7.7289,7.7289,7.7289,7.7289,7.7289,7.7289,7.7289,7.7289,7.7289,7.7289,7.7289,7.7289,7.7289,7.7289,7.7289,7.7289,7.7289,7.7032,7.5417,7.4903,7.4573,7.2973,7.2496,7.2496,7.2496,7.2496,7.2496,7.2496,7.2496,7.2496,7.2496,7.2496,7.2496,7.2496,7.2496,7.2496,7.2496,7.2496,7.2496,7.2496,7.2496,7.2496,7.2496,7.2496,7.2496,7.2496,7.2496,7.2496,7.2496,7.2496,7.2496,7.2496,7.2496,7.2496,7.2496,7.2496,7.2496,7.2496,7.2496,7.2496,7.2496,7.2496,7.2496,7.2496,7.2496,7.2496,7.2496,7.2496,7.2496,7.2496,7.2496,7.2496,7.2496,7.2496,7.2496,7.2496,7.2496,7.2496,7.2496,7.2496,7.2496,7.2532,8.1093,8.1093,8.1093,8.1093,8.1093,8.1093,8.1093,8.1093,8.1093,8.1093,8.1093,8.1093,8.1093,8.0847,8.0418,7.9775,8.0046,7.9967,7.9244,7.9513,7.9279,7.8349,7.8309,7.7988,7.7304,7.7289,7.7289,7.7289,7.7289,7.7289,7.7289,7.7289,7.7289,7.7289,7.7289,7.7289,7.7289,7.7289,7.7289,7.7289,7.7289,7.7289,7.7289,7.7289,7.7289,7.7289,7.7289,7.7289,7.7289,7.7289,7.7289,7.7032,7.5417,7.4903,7.4573,7.2973,7.2496,7.2496,7.2496,7.2496,7.2496,7.2496,7.2496,7.2496,7.2496,7.2496,7.2496,7.2496,7.2496,7.2496,7.2496,7.2496,7.2496,7.2496,7.2496,7.2496,7.2496,7.2496,7.2496,7.2496,7.2496,7.2496,7.2496,7.2496,7.2496,7.2496,7.2496,7.2496,7.2496,7.2496,7.2496,7.2496,7.2496,7.2496,7.2496,7.2496,7.2496,7.2496,7.2973,7.3156,7.3156,7.3156,7.3413,7.3839,7.3839,7.3597,7.3156,7.3156,7.2899,7.2496,7.2496,7.2496,7.2496,7.2496,7.2496,7.2496]}]]